<?xml version="1.0" encoding="UTF-8" standalone="no" ?>
<gpx xmlns="http://www.topografix.com/GPX/1/1" xmlns:xsi="http://www.w3.org/2001/XMLSchema-instance" xsi:schemaLocation="http://www.topografix.com/GPX/1/1 http://www.topografix.com/GPX/1/1/gpx.xsd" version="1.1" creator="VisuGPX - https://www.visugpx.com">
  <metadata>
    <name>Saint Quentin</name>
    <desc><![CDATA[Trace AlpineQuest 11/06/2020 07:05:29]]></desc>
  </metadata>
  <trk>
    <name><![CDATA[Saint Quentin_1]]></name>
    <trkseg>
      <trkpt lat="46.53763" lon="4.53319">
        <ele>253.6</ele>
        <time>2020-06-11T05:05:29Z</time>
      </trkpt>
      <trkpt lat="46.53756" lon="4.53318">
        <ele>249.6</ele>
        <time>2020-06-11T05:05:38Z</time>
      </trkpt>
      <trkpt lat="46.53748" lon="4.53321">
        <ele>250.6</ele>
        <time>2020-06-11T05:05:43Z</time>
      </trkpt>
      <trkpt lat="46.53741" lon="4.53324">
        <ele>251.6</ele>
        <time>2020-06-11T05:05:48Z</time>
      </trkpt>
      <trkpt lat="46.53733" lon="4.53323">
        <ele>250.6</ele>
        <time>2020-06-11T05:05:53Z</time>
      </trkpt>
      <trkpt lat="46.53726" lon="4.53315">
        <ele>249.6</ele>
        <time>2020-06-11T05:05:58Z</time>
      </trkpt>
      <trkpt lat="46.53718" lon="4.53319">
        <ele>247.6</ele>
        <time>2020-06-11T05:06:03Z</time>
      </trkpt>
      <trkpt lat="46.53711" lon="4.53322">
        <ele>243.6</ele>
        <time>2020-06-11T05:06:08Z</time>
      </trkpt>
      <trkpt lat="46.53701" lon="4.53322">
        <ele>244.6</ele>
        <time>2020-06-11T05:06:13Z</time>
      </trkpt>
      <trkpt lat="46.53694" lon="4.53321">
        <ele>247.6</ele>
        <time>2020-06-11T05:06:19Z</time>
      </trkpt>
      <trkpt lat="46.53687" lon="4.53318">
        <ele>249.6</ele>
        <time>2020-06-11T05:06:25Z</time>
      </trkpt>
      <trkpt lat="46.53679" lon="4.53315">
        <ele>248.6</ele>
        <time>2020-06-11T05:06:30Z</time>
      </trkpt>
      <trkpt lat="46.53672" lon="4.53313">
        <ele>249.6</ele>
        <time>2020-06-11T05:06:35Z</time>
      </trkpt>
      <trkpt lat="46.53663" lon="4.53308">
        <ele>249.6</ele>
        <time>2020-06-11T05:06:40Z</time>
      </trkpt>
      <trkpt lat="46.53655" lon="4.53305">
        <ele>248.6</ele>
        <time>2020-06-11T05:06:45Z</time>
      </trkpt>
      <trkpt lat="46.53646" lon="4.53297">
        <ele>249.6</ele>
        <time>2020-06-11T05:06:50Z</time>
      </trkpt>
      <trkpt lat="46.53639" lon="4.53291">
        <ele>247.6</ele>
        <time>2020-06-11T05:06:55Z</time>
      </trkpt>
      <trkpt lat="46.53632" lon="4.53286">
        <ele>247.6</ele>
        <time>2020-06-11T05:07:01Z</time>
      </trkpt>
      <trkpt lat="46.53625" lon="4.53281">
        <ele>246.6</ele>
        <time>2020-06-11T05:07:07Z</time>
      </trkpt>
      <trkpt lat="46.5362" lon="4.53274">
        <ele>245.6</ele>
        <time>2020-06-11T05:07:12Z</time>
      </trkpt>
      <trkpt lat="46.53614" lon="4.53271">
        <ele>244.6</ele>
        <time>2020-06-11T05:07:19Z</time>
      </trkpt>
      <trkpt lat="46.53607" lon="4.53268">
        <ele>241.6</ele>
        <time>2020-06-11T05:07:26Z</time>
      </trkpt>
      <trkpt lat="46.53601" lon="4.53262">
        <ele>241.6</ele>
        <time>2020-06-11T05:07:34Z</time>
      </trkpt>
      <trkpt lat="46.53595" lon="4.53258">
        <ele>240.6</ele>
        <time>2020-06-11T05:07:39Z</time>
      </trkpt>
      <trkpt lat="46.53586" lon="4.53249">
        <ele>238.6</ele>
        <time>2020-06-11T05:07:44Z</time>
      </trkpt>
      <trkpt lat="46.53578" lon="4.53244">
        <ele>236.6</ele>
        <time>2020-06-11T05:07:49Z</time>
      </trkpt>
      <trkpt lat="46.53569" lon="4.53236">
        <ele>236.6</ele>
        <time>2020-06-11T05:07:54Z</time>
      </trkpt>
      <trkpt lat="46.53561" lon="4.5323">
        <ele>235.6</ele>
        <time>2020-06-11T05:07:59Z</time>
      </trkpt>
      <trkpt lat="46.53553" lon="4.53224">
        <ele>232.6</ele>
        <time>2020-06-11T05:08:04Z</time>
      </trkpt>
      <trkpt lat="46.53546" lon="4.53218">
        <ele>233.6</ele>
        <time>2020-06-11T05:08:09Z</time>
      </trkpt>
      <trkpt lat="46.53539" lon="4.53214">
        <ele>236.6</ele>
        <time>2020-06-11T05:08:16Z</time>
      </trkpt>
      <trkpt lat="46.5353" lon="4.53204">
        <ele>238.6</ele>
        <time>2020-06-11T05:08:21Z</time>
      </trkpt>
      <trkpt lat="46.53522" lon="4.53197">
        <ele>241.6</ele>
        <time>2020-06-11T05:08:26Z</time>
      </trkpt>
      <trkpt lat="46.53515" lon="4.53191">
        <ele>247.6</ele>
        <time>2020-06-11T05:08:31Z</time>
      </trkpt>
      <trkpt lat="46.53508" lon="4.53186">
        <ele>252.599</ele>
        <time>2020-06-11T05:08:37Z</time>
      </trkpt>
      <trkpt lat="46.53501" lon="4.53182">
        <ele>250.599</ele>
        <time>2020-06-11T05:08:44Z</time>
      </trkpt>
      <trkpt lat="46.53493" lon="4.53178">
        <ele>253.599</ele>
        <time>2020-06-11T05:08:49Z</time>
      </trkpt>
      <trkpt lat="46.53486" lon="4.53174">
        <ele>252.599</ele>
        <time>2020-06-11T05:08:55Z</time>
      </trkpt>
      <trkpt lat="46.53479" lon="4.53169">
        <ele>251.599</ele>
        <time>2020-06-11T05:09:01Z</time>
      </trkpt>
      <trkpt lat="46.53471" lon="4.53166">
        <ele>250.599</ele>
        <time>2020-06-11T05:09:06Z</time>
      </trkpt>
      <trkpt lat="46.53461" lon="4.53163">
        <ele>253.599</ele>
        <time>2020-06-11T05:09:11Z</time>
      </trkpt>
      <trkpt lat="46.53454" lon="4.53159">
        <ele>251.599</ele>
        <time>2020-06-11T05:09:16Z</time>
      </trkpt>
      <trkpt lat="46.53449" lon="4.5315">
        <ele>250.599</ele>
        <time>2020-06-11T05:09:23Z</time>
      </trkpt>
      <trkpt lat="46.53438" lon="4.53144">
        <ele>247.599</ele>
        <time>2020-06-11T05:09:28Z</time>
      </trkpt>
      <trkpt lat="46.53431" lon="4.53141">
        <ele>247.599</ele>
        <time>2020-06-11T05:09:33Z</time>
      </trkpt>
      <trkpt lat="46.53424" lon="4.53134">
        <ele>248.599</ele>
        <time>2020-06-11T05:09:43Z</time>
      </trkpt>
      <trkpt lat="46.53418" lon="4.53124">
        <ele>247.599</ele>
        <time>2020-06-11T05:09:48Z</time>
      </trkpt>
      <trkpt lat="46.53415" lon="4.53115">
        <ele>252.599</ele>
        <time>2020-06-11T05:09:53Z</time>
      </trkpt>
      <trkpt lat="46.53412" lon="4.53105">
        <ele>252.599</ele>
        <time>2020-06-11T05:10:00Z</time>
      </trkpt>
      <trkpt lat="46.53412" lon="4.53095">
        <ele>254.599</ele>
        <time>2020-06-11T05:10:05Z</time>
      </trkpt>
      <trkpt lat="46.5341" lon="4.53086">
        <ele>255.599</ele>
        <time>2020-06-11T05:10:12Z</time>
      </trkpt>
      <trkpt lat="46.53409" lon="4.53074">
        <ele>255.599</ele>
        <time>2020-06-11T05:10:17Z</time>
      </trkpt>
      <trkpt lat="46.53407" lon="4.53064">
        <ele>255.599</ele>
        <time>2020-06-11T05:10:24Z</time>
      </trkpt>
      <trkpt lat="46.53405" lon="4.53052">
        <ele>257.599</ele>
        <time>2020-06-11T05:10:31Z</time>
      </trkpt>
      <trkpt lat="46.53405" lon="4.53041">
        <ele>260.599</ele>
        <time>2020-06-11T05:10:36Z</time>
      </trkpt>
      <trkpt lat="46.53404" lon="4.53031">
        <ele>259.599</ele>
        <time>2020-06-11T05:10:42Z</time>
      </trkpt>
      <trkpt lat="46.53402" lon="4.53021">
        <ele>259.599</ele>
        <time>2020-06-11T05:10:47Z</time>
      </trkpt>
      <trkpt lat="46.53401" lon="4.5301">
        <ele>259.599</ele>
        <time>2020-06-11T05:10:52Z</time>
      </trkpt>
      <trkpt lat="46.53398" lon="4.53">
        <ele>259.599</ele>
        <time>2020-06-11T05:10:58Z</time>
      </trkpt>
      <trkpt lat="46.53394" lon="4.52992">
        <ele>259.599</ele>
        <time>2020-06-11T05:11:03Z</time>
      </trkpt>
      <trkpt lat="46.53392" lon="4.52981">
        <ele>260.599</ele>
        <time>2020-06-11T05:11:08Z</time>
      </trkpt>
      <trkpt lat="46.53388" lon="4.5297">
        <ele>259.599</ele>
        <time>2020-06-11T05:11:13Z</time>
      </trkpt>
      <trkpt lat="46.53384" lon="4.5296">
        <ele>260.599</ele>
        <time>2020-06-11T05:11:18Z</time>
      </trkpt>
      <trkpt lat="46.53379" lon="4.52952">
        <ele>261.599</ele>
        <time>2020-06-11T05:11:23Z</time>
      </trkpt>
      <trkpt lat="46.53376" lon="4.52944">
        <ele>258.599</ele>
        <time>2020-06-11T05:11:28Z</time>
      </trkpt>
      <trkpt lat="46.5337" lon="4.52934">
        <ele>254.599</ele>
        <time>2020-06-11T05:11:35Z</time>
      </trkpt>
      <trkpt lat="46.53367" lon="4.52924">
        <ele>254.599</ele>
        <time>2020-06-11T05:11:41Z</time>
      </trkpt>
      <trkpt lat="46.53363" lon="4.52915">
        <ele>255.599</ele>
        <time>2020-06-11T05:11:46Z</time>
      </trkpt>
      <trkpt lat="46.5336" lon="4.52906">
        <ele>254.599</ele>
        <time>2020-06-11T05:11:51Z</time>
      </trkpt>
      <trkpt lat="46.53355" lon="4.52893">
        <ele>253.599</ele>
        <time>2020-06-11T05:11:56Z</time>
      </trkpt>
      <trkpt lat="46.53351" lon="4.52879">
        <ele>253.599</ele>
        <time>2020-06-11T05:12:01Z</time>
      </trkpt>
      <trkpt lat="46.53349" lon="4.52869">
        <ele>249.599</ele>
        <time>2020-06-11T05:12:08Z</time>
      </trkpt>
      <trkpt lat="46.53344" lon="4.52861">
        <ele>249.599</ele>
        <time>2020-06-11T05:12:14Z</time>
      </trkpt>
      <trkpt lat="46.5334" lon="4.5285">
        <ele>249.599</ele>
        <time>2020-06-11T05:12:19Z</time>
      </trkpt>
      <trkpt lat="46.53335" lon="4.52843">
        <ele>246.599</ele>
        <time>2020-06-11T05:12:24Z</time>
      </trkpt>
      <trkpt lat="46.53329" lon="4.52836">
        <ele>245.599</ele>
        <time>2020-06-11T05:12:29Z</time>
      </trkpt>
      <trkpt lat="46.53321" lon="4.52829">
        <ele>244.599</ele>
        <time>2020-06-11T05:12:34Z</time>
      </trkpt>
      <trkpt lat="46.53315" lon="4.52824">
        <ele>244.599</ele>
        <time>2020-06-11T05:12:39Z</time>
      </trkpt>
      <trkpt lat="46.53309" lon="4.52818">
        <ele>243.599</ele>
        <time>2020-06-11T05:12:44Z</time>
      </trkpt>
      <trkpt lat="46.53301" lon="4.52811">
        <ele>244.599</ele>
        <time>2020-06-11T05:12:49Z</time>
      </trkpt>
      <trkpt lat="46.53293" lon="4.52805">
        <ele>246.599</ele>
        <time>2020-06-11T05:12:54Z</time>
      </trkpt>
      <trkpt lat="46.53287" lon="4.52799">
        <ele>249.599</ele>
        <time>2020-06-11T05:13:00Z</time>
      </trkpt>
      <trkpt lat="46.5328" lon="4.5279">
        <ele>251.599</ele>
        <time>2020-06-11T05:13:06Z</time>
      </trkpt>
      <trkpt lat="46.53274" lon="4.52786">
        <ele>252.599</ele>
        <time>2020-06-11T05:13:11Z</time>
      </trkpt>
      <trkpt lat="46.53268" lon="4.52781">
        <ele>254.599</ele>
        <time>2020-06-11T05:13:16Z</time>
      </trkpt>
      <trkpt lat="46.53263" lon="4.52774">
        <ele>255.599</ele>
        <time>2020-06-11T05:13:21Z</time>
      </trkpt>
      <trkpt lat="46.53256" lon="4.5277">
        <ele>253.598</ele>
        <time>2020-06-11T05:13:27Z</time>
      </trkpt>
      <trkpt lat="46.53252" lon="4.52762">
        <ele>253.598</ele>
        <time>2020-06-11T05:13:33Z</time>
      </trkpt>
      <trkpt lat="46.53244" lon="4.52756">
        <ele>254.598</ele>
        <time>2020-06-11T05:13:38Z</time>
      </trkpt>
      <trkpt lat="46.53237" lon="4.52752">
        <ele>252.598</ele>
        <time>2020-06-11T05:13:43Z</time>
      </trkpt>
      <trkpt lat="46.53231" lon="4.52744">
        <ele>251.598</ele>
        <time>2020-06-11T05:13:48Z</time>
      </trkpt>
      <trkpt lat="46.5323" lon="4.52733">
        <ele>254.598</ele>
        <time>2020-06-11T05:13:53Z</time>
      </trkpt>
      <trkpt lat="46.53232" lon="4.52723">
        <ele>255.598</ele>
        <time>2020-06-11T05:13:58Z</time>
      </trkpt>
      <trkpt lat="46.53235" lon="4.52714">
        <ele>257.598</ele>
        <time>2020-06-11T05:14:03Z</time>
      </trkpt>
      <trkpt lat="46.53237" lon="4.52705">
        <ele>258.598</ele>
        <time>2020-06-11T05:14:08Z</time>
      </trkpt>
      <trkpt lat="46.5324" lon="4.52695">
        <ele>258.598</ele>
        <time>2020-06-11T05:14:13Z</time>
      </trkpt>
      <trkpt lat="46.5324" lon="4.52685">
        <ele>257.598</ele>
        <time>2020-06-11T05:14:18Z</time>
      </trkpt>
      <trkpt lat="46.53238" lon="4.52674">
        <ele>256.598</ele>
        <time>2020-06-11T05:14:24Z</time>
      </trkpt>
      <trkpt lat="46.53237" lon="4.52664">
        <ele>261.598</ele>
        <time>2020-06-11T05:14:29Z</time>
      </trkpt>
      <trkpt lat="46.53236" lon="4.52653">
        <ele>261.598</ele>
        <time>2020-06-11T05:14:34Z</time>
      </trkpt>
      <trkpt lat="46.53236" lon="4.52642">
        <ele>263.598</ele>
        <time>2020-06-11T05:14:40Z</time>
      </trkpt>
      <trkpt lat="46.53235" lon="4.52632">
        <ele>262.598</ele>
        <time>2020-06-11T05:14:45Z</time>
      </trkpt>
      <trkpt lat="46.53235" lon="4.52623">
        <ele>263.598</ele>
        <time>2020-06-11T05:14:50Z</time>
      </trkpt>
      <trkpt lat="46.53235" lon="4.52612">
        <ele>262.598</ele>
        <time>2020-06-11T05:14:55Z</time>
      </trkpt>
      <trkpt lat="46.53234" lon="4.52602">
        <ele>261.598</ele>
        <time>2020-06-11T05:15:00Z</time>
      </trkpt>
      <trkpt lat="46.53233" lon="4.52592">
        <ele>256.598</ele>
        <time>2020-06-11T05:15:09Z</time>
      </trkpt>
      <trkpt lat="46.53231" lon="4.52582">
        <ele>255.598</ele>
        <time>2020-06-11T05:15:15Z</time>
      </trkpt>
      <trkpt lat="46.5323" lon="4.52569">
        <ele>255.598</ele>
        <time>2020-06-11T05:15:20Z</time>
      </trkpt>
      <trkpt lat="46.53226" lon="4.52556">
        <ele>257.598</ele>
        <time>2020-06-11T05:15:25Z</time>
      </trkpt>
      <trkpt lat="46.53227" lon="4.52545">
        <ele>260.598</ele>
        <time>2020-06-11T05:15:30Z</time>
      </trkpt>
      <trkpt lat="46.53227" lon="4.52535">
        <ele>263.598</ele>
        <time>2020-06-11T05:15:35Z</time>
      </trkpt>
      <trkpt lat="46.53232" lon="4.52525">
        <ele>265.598</ele>
        <time>2020-06-11T05:15:40Z</time>
      </trkpt>
      <trkpt lat="46.53236" lon="4.52516">
        <ele>266.598</ele>
        <time>2020-06-11T05:15:45Z</time>
      </trkpt>
      <trkpt lat="46.53239" lon="4.52508">
        <ele>261.598</ele>
        <time>2020-06-11T05:15:53Z</time>
      </trkpt>
      <trkpt lat="46.53244" lon="4.52501">
        <ele>259.598</ele>
        <time>2020-06-11T05:16:00Z</time>
      </trkpt>
      <trkpt lat="46.53251" lon="4.52499">
        <ele>261.598</ele>
        <time>2020-06-11T05:16:06Z</time>
      </trkpt>
      <trkpt lat="46.53258" lon="4.52495">
        <ele>263.598</ele>
        <time>2020-06-11T05:16:11Z</time>
      </trkpt>
      <trkpt lat="46.53264" lon="4.5249">
        <ele>263.598</ele>
        <time>2020-06-11T05:16:16Z</time>
      </trkpt>
      <trkpt lat="46.53272" lon="4.52486">
        <ele>267.598</ele>
        <time>2020-06-11T05:16:21Z</time>
      </trkpt>
      <trkpt lat="46.53278" lon="4.5248">
        <ele>265.598</ele>
        <time>2020-06-11T05:16:27Z</time>
      </trkpt>
      <trkpt lat="46.53285" lon="4.52472">
        <ele>269.598</ele>
        <time>2020-06-11T05:16:32Z</time>
      </trkpt>
      <trkpt lat="46.53292" lon="4.52463">
        <ele>269.598</ele>
        <time>2020-06-11T05:16:37Z</time>
      </trkpt>
      <trkpt lat="46.53295" lon="4.52454">
        <ele>270.598</ele>
        <time>2020-06-11T05:16:42Z</time>
      </trkpt>
      <trkpt lat="46.53297" lon="4.52444">
        <ele>269.598</ele>
        <time>2020-06-11T05:16:48Z</time>
      </trkpt>
      <trkpt lat="46.533" lon="4.52433">
        <ele>270.598</ele>
        <time>2020-06-11T05:16:53Z</time>
      </trkpt>
      <trkpt lat="46.533" lon="4.52423">
        <ele>269.598</ele>
        <time>2020-06-11T05:16:59Z</time>
      </trkpt>
      <trkpt lat="46.53301" lon="4.52413">
        <ele>270.598</ele>
        <time>2020-06-11T05:17:04Z</time>
      </trkpt>
      <trkpt lat="46.53303" lon="4.52402">
        <ele>273.598</ele>
        <time>2020-06-11T05:17:09Z</time>
      </trkpt>
      <trkpt lat="46.53303" lon="4.52391">
        <ele>271.598</ele>
        <time>2020-06-11T05:17:15Z</time>
      </trkpt>
      <trkpt lat="46.53304" lon="4.52381">
        <ele>271.598</ele>
        <time>2020-06-11T05:17:20Z</time>
      </trkpt>
      <trkpt lat="46.53308" lon="4.52372">
        <ele>275.598</ele>
        <time>2020-06-11T05:17:25Z</time>
      </trkpt>
      <trkpt lat="46.53309" lon="4.52362">
        <ele>275.598</ele>
        <time>2020-06-11T05:17:30Z</time>
      </trkpt>
      <trkpt lat="46.53309" lon="4.52353">
        <ele>275.598</ele>
        <time>2020-06-11T05:17:35Z</time>
      </trkpt>
      <trkpt lat="46.53311" lon="4.52342">
        <ele>274.598</ele>
        <time>2020-06-11T05:17:40Z</time>
      </trkpt>
      <trkpt lat="46.53309" lon="4.52332">
        <ele>273.598</ele>
        <time>2020-06-11T05:17:47Z</time>
      </trkpt>
      <trkpt lat="46.53304" lon="4.52325">
        <ele>270.598</ele>
        <time>2020-06-11T05:17:53Z</time>
      </trkpt>
      <trkpt lat="46.53298" lon="4.52323">
        <ele>271.598</ele>
        <time>2020-06-11T05:17:59Z</time>
      </trkpt>
      <trkpt lat="46.53292" lon="4.52315">
        <ele>272.598</ele>
        <time>2020-06-11T05:18:04Z</time>
      </trkpt>
      <trkpt lat="46.53285" lon="4.52311">
        <ele>272.598</ele>
        <time>2020-06-11T05:18:11Z</time>
      </trkpt>
      <trkpt lat="46.53277" lon="4.52305">
        <ele>270.598</ele>
        <time>2020-06-11T05:18:16Z</time>
      </trkpt>
      <trkpt lat="46.53272" lon="4.52299">
        <ele>268.598</ele>
        <time>2020-06-11T05:18:21Z</time>
      </trkpt>
      <trkpt lat="46.53265" lon="4.52293">
        <ele>267.598</ele>
        <time>2020-06-11T05:18:26Z</time>
      </trkpt>
      <trkpt lat="46.53259" lon="4.52286">
        <ele>265.598</ele>
        <time>2020-06-11T05:18:31Z</time>
      </trkpt>
      <trkpt lat="46.53252" lon="4.5228">
        <ele>265.598</ele>
        <time>2020-06-11T05:18:40Z</time>
      </trkpt>
      <trkpt lat="46.53246" lon="4.52275">
        <ele>263.598</ele>
        <time>2020-06-11T05:18:46Z</time>
      </trkpt>
      <trkpt lat="46.5324" lon="4.5227">
        <ele>260.598</ele>
        <time>2020-06-11T05:18:52Z</time>
      </trkpt>
      <trkpt lat="46.53233" lon="4.52263">
        <ele>259.598</ele>
        <time>2020-06-11T05:18:58Z</time>
      </trkpt>
      <trkpt lat="46.53227" lon="4.52254">
        <ele>261.598</ele>
        <time>2020-06-11T05:19:04Z</time>
      </trkpt>
      <trkpt lat="46.53221" lon="4.52248">
        <ele>259.598</ele>
        <time>2020-06-11T05:19:09Z</time>
      </trkpt>
      <trkpt lat="46.53213" lon="4.52242">
        <ele>260.598</ele>
        <time>2020-06-11T05:19:14Z</time>
      </trkpt>
      <trkpt lat="46.53207" lon="4.52233">
        <ele>260.598</ele>
        <time>2020-06-11T05:19:20Z</time>
      </trkpt>
      <trkpt lat="46.532" lon="4.52231">
        <ele>259.598</ele>
        <time>2020-06-11T05:19:27Z</time>
      </trkpt>
      <trkpt lat="46.53193" lon="4.52225">
        <ele>257.598</ele>
        <time>2020-06-11T05:19:33Z</time>
      </trkpt>
      <trkpt lat="46.53189" lon="4.52216">
        <ele>257.598</ele>
        <time>2020-06-11T05:19:39Z</time>
      </trkpt>
      <trkpt lat="46.53181" lon="4.52213">
        <ele>257.598</ele>
        <time>2020-06-11T05:19:44Z</time>
      </trkpt>
      <trkpt lat="46.53174" lon="4.52209">
        <ele>257.598</ele>
        <time>2020-06-11T05:19:49Z</time>
      </trkpt>
      <trkpt lat="46.53167" lon="4.52204">
        <ele>263.598</ele>
        <time>2020-06-11T05:19:54Z</time>
      </trkpt>
      <trkpt lat="46.53162" lon="4.52196">
        <ele>261.598</ele>
        <time>2020-06-11T05:19:59Z</time>
      </trkpt>
      <trkpt lat="46.53153" lon="4.52192">
        <ele>261.598</ele>
        <time>2020-06-11T05:20:04Z</time>
      </trkpt>
      <trkpt lat="46.53148" lon="4.52183">
        <ele>261.598</ele>
        <time>2020-06-11T05:20:09Z</time>
      </trkpt>
      <trkpt lat="46.53146" lon="4.52171">
        <ele>260.598</ele>
        <time>2020-06-11T05:20:16Z</time>
      </trkpt>
      <trkpt lat="46.53145" lon="4.5216">
        <ele>262.598</ele>
        <time>2020-06-11T05:20:22Z</time>
      </trkpt>
      <trkpt lat="46.53144" lon="4.52149">
        <ele>265.598</ele>
        <time>2020-06-11T05:20:27Z</time>
      </trkpt>
      <trkpt lat="46.53144" lon="4.52137">
        <ele>266.598</ele>
        <time>2020-06-11T05:20:33Z</time>
      </trkpt>
      <trkpt lat="46.53145" lon="4.52127">
        <ele>266.598</ele>
        <time>2020-06-11T05:20:38Z</time>
      </trkpt>
      <trkpt lat="46.53144" lon="4.52116">
        <ele>265.598</ele>
        <time>2020-06-11T05:20:44Z</time>
      </trkpt>
      <trkpt lat="46.53143" lon="4.52105">
        <ele>266.598</ele>
        <time>2020-06-11T05:20:49Z</time>
      </trkpt>
      <trkpt lat="46.53142" lon="4.52094">
        <ele>265.598</ele>
        <time>2020-06-11T05:20:55Z</time>
      </trkpt>
      <trkpt lat="46.53139" lon="4.52084">
        <ele>267.598</ele>
        <time>2020-06-11T05:21:07Z</time>
      </trkpt>
      <trkpt lat="46.53136" lon="4.52075">
        <ele>264.598</ele>
        <time>2020-06-11T05:21:12Z</time>
      </trkpt>
      <trkpt lat="46.53137" lon="4.52065">
        <ele>261.598</ele>
        <time>2020-06-11T05:21:17Z</time>
      </trkpt>
      <trkpt lat="46.53138" lon="4.52055">
        <ele>263.598</ele>
        <time>2020-06-11T05:21:22Z</time>
      </trkpt>
      <trkpt lat="46.53136" lon="4.52042">
        <ele>260.598</ele>
        <time>2020-06-11T05:21:32Z</time>
      </trkpt>
      <trkpt lat="46.53134" lon="4.52031">
        <ele>260.598</ele>
        <time>2020-06-11T05:21:37Z</time>
      </trkpt>
      <trkpt lat="46.53135" lon="4.5202">
        <ele>263.598</ele>
        <time>2020-06-11T05:21:42Z</time>
      </trkpt>
      <trkpt lat="46.53136" lon="4.5201">
        <ele>263.598</ele>
        <time>2020-06-11T05:21:52Z</time>
      </trkpt>
      <trkpt lat="46.53137" lon="4.52001">
        <ele>265.598</ele>
        <time>2020-06-11T05:21:57Z</time>
      </trkpt>
      <trkpt lat="46.53136" lon="4.51988">
        <ele>269.598</ele>
        <time>2020-06-11T05:22:02Z</time>
      </trkpt>
      <trkpt lat="46.53137" lon="4.51977">
        <ele>271.598</ele>
        <time>2020-06-11T05:22:07Z</time>
      </trkpt>
      <trkpt lat="46.53139" lon="4.51963">
        <ele>275.598</ele>
        <time>2020-06-11T05:22:12Z</time>
      </trkpt>
      <trkpt lat="46.53143" lon="4.51948">
        <ele>282.598</ele>
        <time>2020-06-11T05:22:17Z</time>
      </trkpt>
      <trkpt lat="46.53143" lon="4.51938">
        <ele>283.598</ele>
        <time>2020-06-11T05:22:22Z</time>
      </trkpt>
      <trkpt lat="46.53139" lon="4.51925">
        <ele>281.598</ele>
        <time>2020-06-11T05:22:27Z</time>
      </trkpt>
      <trkpt lat="46.53136" lon="4.51915">
        <ele>282.598</ele>
        <time>2020-06-11T05:22:32Z</time>
      </trkpt>
      <trkpt lat="46.53132" lon="4.51908">
        <ele>277.598</ele>
        <time>2020-06-11T05:22:38Z</time>
      </trkpt>
      <trkpt lat="46.53127" lon="4.51901">
        <ele>273.597</ele>
        <time>2020-06-11T05:22:43Z</time>
      </trkpt>
      <trkpt lat="46.53121" lon="4.51893">
        <ele>269.597</ele>
        <time>2020-06-11T05:23:01Z</time>
      </trkpt>
      <trkpt lat="46.53118" lon="4.51878">
        <ele>265.597</ele>
        <time>2020-06-11T05:23:06Z</time>
      </trkpt>
      <trkpt lat="46.53116" lon="4.51861">
        <ele>268.597</ele>
        <time>2020-06-11T05:23:11Z</time>
      </trkpt>
      <trkpt lat="46.53115" lon="4.51852">
        <ele>270.597</ele>
        <time>2020-06-11T05:23:16Z</time>
      </trkpt>
      <trkpt lat="46.53113" lon="4.51839">
        <ele>270.597</ele>
        <time>2020-06-11T05:23:21Z</time>
      </trkpt>
      <trkpt lat="46.53114" lon="4.51823">
        <ele>271.597</ele>
        <time>2020-06-11T05:23:26Z</time>
      </trkpt>
      <trkpt lat="46.53116" lon="4.51807">
        <ele>273.597</ele>
        <time>2020-06-11T05:23:31Z</time>
      </trkpt>
      <trkpt lat="46.53122" lon="4.51797">
        <ele>274.597</ele>
        <time>2020-06-11T05:23:36Z</time>
      </trkpt>
      <trkpt lat="46.53128" lon="4.51789">
        <ele>274.597</ele>
        <time>2020-06-11T05:23:41Z</time>
      </trkpt>
      <trkpt lat="46.53134" lon="4.51782">
        <ele>274.597</ele>
        <time>2020-06-11T05:23:47Z</time>
      </trkpt>
      <trkpt lat="46.53141" lon="4.51778">
        <ele>275.597</ele>
        <time>2020-06-11T05:23:53Z</time>
      </trkpt>
      <trkpt lat="46.53147" lon="4.51773">
        <ele>277.597</ele>
        <time>2020-06-11T05:23:58Z</time>
      </trkpt>
      <trkpt lat="46.53152" lon="4.51767">
        <ele>276.597</ele>
        <time>2020-06-11T05:24:04Z</time>
      </trkpt>
      <trkpt lat="46.53158" lon="4.51762">
        <ele>278.597</ele>
        <time>2020-06-11T05:24:11Z</time>
      </trkpt>
      <trkpt lat="46.53164" lon="4.51756">
        <ele>280.597</ele>
        <time>2020-06-11T05:24:19Z</time>
      </trkpt>
      <trkpt lat="46.53169" lon="4.51749">
        <ele>279.598</ele>
        <time>2020-06-11T05:24:24Z</time>
      </trkpt>
      <trkpt lat="46.53177" lon="4.51746">
        <ele>281.598</ele>
        <time>2020-06-11T05:24:29Z</time>
      </trkpt>
      <trkpt lat="46.53184" lon="4.51745">
        <ele>281.598</ele>
        <time>2020-06-11T05:24:39Z</time>
      </trkpt>
      <trkpt lat="46.53191" lon="4.51742">
        <ele>283.598</ele>
        <time>2020-06-11T05:24:44Z</time>
      </trkpt>
      <trkpt lat="46.53198" lon="4.51741">
        <ele>283.598</ele>
        <time>2020-06-11T05:24:50Z</time>
      </trkpt>
      <trkpt lat="46.53206" lon="4.51741">
        <ele>283.598</ele>
        <time>2020-06-11T05:24:56Z</time>
      </trkpt>
      <trkpt lat="46.53213" lon="4.51739">
        <ele>283.598</ele>
        <time>2020-06-11T05:25:01Z</time>
      </trkpt>
      <trkpt lat="46.5322" lon="4.51738">
        <ele>279.598</ele>
        <time>2020-06-11T05:25:06Z</time>
      </trkpt>
      <trkpt lat="46.53226" lon="4.51741">
        <ele>277.598</ele>
        <time>2020-06-11T05:25:11Z</time>
      </trkpt>
      <trkpt lat="46.53233" lon="4.51742">
        <ele>277.598</ele>
        <time>2020-06-11T05:25:17Z</time>
      </trkpt>
      <trkpt lat="46.53241" lon="4.51742">
        <ele>278.598</ele>
        <time>2020-06-11T05:25:23Z</time>
      </trkpt>
      <trkpt lat="46.53248" lon="4.5174">
        <ele>280.598</ele>
        <time>2020-06-11T05:25:28Z</time>
      </trkpt>
      <trkpt lat="46.53256" lon="4.5174">
        <ele>281.598</ele>
        <time>2020-06-11T05:25:33Z</time>
      </trkpt>
      <trkpt lat="46.53263" lon="4.51738">
        <ele>281.598</ele>
        <time>2020-06-11T05:25:38Z</time>
      </trkpt>
      <trkpt lat="46.53269" lon="4.51736">
        <ele>281.598</ele>
        <time>2020-06-11T05:25:45Z</time>
      </trkpt>
      <trkpt lat="46.53276" lon="4.51737">
        <ele>281.598</ele>
        <time>2020-06-11T05:25:50Z</time>
      </trkpt>
      <trkpt lat="46.53283" lon="4.51739">
        <ele>282.598</ele>
        <time>2020-06-11T05:25:55Z</time>
      </trkpt>
      <trkpt lat="46.5329" lon="4.51733">
        <ele>280.598</ele>
        <time>2020-06-11T05:26:03Z</time>
      </trkpt>
      <trkpt lat="46.53296" lon="4.51729">
        <ele>280.598</ele>
        <time>2020-06-11T05:26:08Z</time>
      </trkpt>
      <trkpt lat="46.53305" lon="4.51726">
        <ele>285.598</ele>
        <time>2020-06-11T05:26:13Z</time>
      </trkpt>
      <trkpt lat="46.53311" lon="4.51722">
        <ele>285.598</ele>
        <time>2020-06-11T05:26:19Z</time>
      </trkpt>
      <trkpt lat="46.53317" lon="4.51719">
        <ele>286.598</ele>
        <time>2020-06-11T05:26:24Z</time>
      </trkpt>
      <trkpt lat="46.53324" lon="4.51716">
        <ele>288.598</ele>
        <time>2020-06-11T05:26:29Z</time>
      </trkpt>
      <trkpt lat="46.53329" lon="4.51709">
        <ele>284.598</ele>
        <time>2020-06-11T05:26:34Z</time>
      </trkpt>
      <trkpt lat="46.53335" lon="4.51703">
        <ele>282.598</ele>
        <time>2020-06-11T05:26:39Z</time>
      </trkpt>
      <trkpt lat="46.5334" lon="4.51696">
        <ele>281.598</ele>
        <time>2020-06-11T05:26:44Z</time>
      </trkpt>
      <trkpt lat="46.53345" lon="4.51691">
        <ele>283.598</ele>
        <time>2020-06-11T05:26:49Z</time>
      </trkpt>
      <trkpt lat="46.53351" lon="4.51684">
        <ele>282.598</ele>
        <time>2020-06-11T05:26:54Z</time>
      </trkpt>
      <trkpt lat="46.53356" lon="4.51677">
        <ele>280.598</ele>
        <time>2020-06-11T05:26:59Z</time>
      </trkpt>
      <trkpt lat="46.53361" lon="4.5167">
        <ele>280.598</ele>
        <time>2020-06-11T05:27:04Z</time>
      </trkpt>
      <trkpt lat="46.53366" lon="4.51664">
        <ele>280.598</ele>
        <time>2020-06-11T05:27:09Z</time>
      </trkpt>
      <trkpt lat="46.53372" lon="4.51658">
        <ele>280.598</ele>
        <time>2020-06-11T05:27:14Z</time>
      </trkpt>
      <trkpt lat="46.53379" lon="4.51653">
        <ele>279.598</ele>
        <time>2020-06-11T05:27:19Z</time>
      </trkpt>
      <trkpt lat="46.53385" lon="4.51647">
        <ele>279.598</ele>
        <time>2020-06-11T05:27:24Z</time>
      </trkpt>
      <trkpt lat="46.53392" lon="4.51641">
        <ele>280.598</ele>
        <time>2020-06-11T05:27:29Z</time>
      </trkpt>
      <trkpt lat="46.53397" lon="4.51633">
        <ele>280.598</ele>
        <time>2020-06-11T05:27:34Z</time>
      </trkpt>
      <trkpt lat="46.53402" lon="4.51625">
        <ele>281.598</ele>
        <time>2020-06-11T05:27:40Z</time>
      </trkpt>
      <trkpt lat="46.53408" lon="4.51619">
        <ele>282.598</ele>
        <time>2020-06-11T05:27:47Z</time>
      </trkpt>
      <trkpt lat="46.53411" lon="4.51611">
        <ele>281.598</ele>
        <time>2020-06-11T05:27:52Z</time>
      </trkpt>
      <trkpt lat="46.53418" lon="4.51604">
        <ele>281.598</ele>
        <time>2020-06-11T05:27:57Z</time>
      </trkpt>
      <trkpt lat="46.53422" lon="4.51595">
        <ele>280.598</ele>
        <time>2020-06-11T05:28:02Z</time>
      </trkpt>
      <trkpt lat="46.53427" lon="4.51586">
        <ele>280.598</ele>
        <time>2020-06-11T05:28:08Z</time>
      </trkpt>
      <trkpt lat="46.53433" lon="4.5158">
        <ele>281.598</ele>
        <time>2020-06-11T05:28:14Z</time>
      </trkpt>
      <trkpt lat="46.53437" lon="4.51569">
        <ele>282.598</ele>
        <time>2020-06-11T05:28:19Z</time>
      </trkpt>
      <trkpt lat="46.53443" lon="4.51548">
        <ele>283.598</ele>
        <time>2020-06-11T05:28:24Z</time>
      </trkpt>
      <trkpt lat="46.5345" lon="4.51544">
        <ele>283.598</ele>
        <time>2020-06-11T05:28:30Z</time>
      </trkpt>
      <trkpt lat="46.53462" lon="4.51534">
        <ele>286.598</ele>
        <time>2020-06-11T05:28:35Z</time>
      </trkpt>
      <trkpt lat="46.53467" lon="4.51526">
        <ele>285.598</ele>
        <time>2020-06-11T05:28:40Z</time>
      </trkpt>
      <trkpt lat="46.53472" lon="4.5152">
        <ele>286.598</ele>
        <time>2020-06-11T05:28:45Z</time>
      </trkpt>
      <trkpt lat="46.53477" lon="4.51513">
        <ele>286.598</ele>
        <time>2020-06-11T05:28:50Z</time>
      </trkpt>
      <trkpt lat="46.53485" lon="4.51508">
        <ele>288.598</ele>
        <time>2020-06-11T05:28:55Z</time>
      </trkpt>
      <trkpt lat="46.53491" lon="4.51503">
        <ele>288.598</ele>
        <time>2020-06-11T05:29:00Z</time>
      </trkpt>
      <trkpt lat="46.53497" lon="4.51497">
        <ele>287.598</ele>
        <time>2020-06-11T05:29:07Z</time>
      </trkpt>
      <trkpt lat="46.53501" lon="4.51487">
        <ele>287.598</ele>
        <time>2020-06-11T05:29:13Z</time>
      </trkpt>
      <trkpt lat="46.5351" lon="4.51478">
        <ele>289.598</ele>
        <time>2020-06-11T05:29:18Z</time>
      </trkpt>
      <trkpt lat="46.53516" lon="4.51471">
        <ele>291.598</ele>
        <time>2020-06-11T05:29:24Z</time>
      </trkpt>
      <trkpt lat="46.53521" lon="4.51464">
        <ele>290.598</ele>
        <time>2020-06-11T05:29:29Z</time>
      </trkpt>
      <trkpt lat="46.53522" lon="4.51455">
        <ele>284.598</ele>
        <time>2020-06-11T05:29:36Z</time>
      </trkpt>
      <trkpt lat="46.53526" lon="4.51446">
        <ele>284.598</ele>
        <time>2020-06-11T05:29:41Z</time>
      </trkpt>
      <trkpt lat="46.53525" lon="4.51436">
        <ele>283.598</ele>
        <time>2020-06-11T05:29:46Z</time>
      </trkpt>
      <trkpt lat="46.53533" lon="4.51428">
        <ele>283.598</ele>
        <time>2020-06-11T05:29:51Z</time>
      </trkpt>
      <trkpt lat="46.53539" lon="4.51417">
        <ele>283.598</ele>
        <time>2020-06-11T05:29:56Z</time>
      </trkpt>
      <trkpt lat="46.53541" lon="4.51408">
        <ele>284.598</ele>
        <time>2020-06-11T05:30:01Z</time>
      </trkpt>
      <trkpt lat="46.53544" lon="4.51399">
        <ele>282.598</ele>
        <time>2020-06-11T05:30:07Z</time>
      </trkpt>
      <trkpt lat="46.53542" lon="4.51389">
        <ele>280.598</ele>
        <time>2020-06-11T05:30:12Z</time>
      </trkpt>
      <trkpt lat="46.53544" lon="4.5138">
        <ele>278.598</ele>
        <time>2020-06-11T05:30:17Z</time>
      </trkpt>
      <trkpt lat="46.53551" lon="4.51376">
        <ele>277.598</ele>
        <time>2020-06-11T05:30:22Z</time>
      </trkpt>
      <trkpt lat="46.53555" lon="4.51368">
        <ele>273.598</ele>
        <time>2020-06-11T05:30:27Z</time>
      </trkpt>
      <trkpt lat="46.53567" lon="4.51363">
        <ele>274.598</ele>
        <time>2020-06-11T05:30:32Z</time>
      </trkpt>
      <trkpt lat="46.53573" lon="4.51356">
        <ele>274.598</ele>
        <time>2020-06-11T05:30:37Z</time>
      </trkpt>
      <trkpt lat="46.53579" lon="4.5135">
        <ele>271.598</ele>
        <time>2020-06-11T05:30:42Z</time>
      </trkpt>
      <trkpt lat="46.53584" lon="4.51343">
        <ele>272.598</ele>
        <time>2020-06-11T05:30:47Z</time>
      </trkpt>
      <trkpt lat="46.53587" lon="4.51334">
        <ele>272.598</ele>
        <time>2020-06-11T05:30:52Z</time>
      </trkpt>
      <trkpt lat="46.53594" lon="4.51327">
        <ele>272.598</ele>
        <time>2020-06-11T05:30:57Z</time>
      </trkpt>
      <trkpt lat="46.53599" lon="4.5132">
        <ele>273.598</ele>
        <time>2020-06-11T05:31:02Z</time>
      </trkpt>
      <trkpt lat="46.53605" lon="4.51312">
        <ele>270.598</ele>
        <time>2020-06-11T05:31:08Z</time>
      </trkpt>
      <trkpt lat="46.5361" lon="4.51306">
        <ele>270.598</ele>
        <time>2020-06-11T05:31:13Z</time>
      </trkpt>
      <trkpt lat="46.53616" lon="4.513">
        <ele>272.598</ele>
        <time>2020-06-11T05:31:18Z</time>
      </trkpt>
      <trkpt lat="46.53623" lon="4.51297">
        <ele>268.598</ele>
        <time>2020-06-11T05:31:24Z</time>
      </trkpt>
      <trkpt lat="46.5363" lon="4.51297">
        <ele>266.598</ele>
        <time>2020-06-11T05:31:29Z</time>
      </trkpt>
      <trkpt lat="46.53638" lon="4.51296">
        <ele>268.598</ele>
        <time>2020-06-11T05:31:34Z</time>
      </trkpt>
      <trkpt lat="46.53644" lon="4.51299">
        <ele>265.598</ele>
        <time>2020-06-11T05:31:39Z</time>
      </trkpt>
      <trkpt lat="46.53652" lon="4.513">
        <ele>263.598</ele>
        <time>2020-06-11T05:31:44Z</time>
      </trkpt>
      <trkpt lat="46.53659" lon="4.51302">
        <ele>263.599</ele>
        <time>2020-06-11T05:31:49Z</time>
      </trkpt>
      <trkpt lat="46.53666" lon="4.51303">
        <ele>262.599</ele>
        <time>2020-06-11T05:31:54Z</time>
      </trkpt>
      <trkpt lat="46.53673" lon="4.51302">
        <ele>263.599</ele>
        <time>2020-06-11T05:31:59Z</time>
      </trkpt>
      <trkpt lat="46.53679" lon="4.51295">
        <ele>263.599</ele>
        <time>2020-06-11T05:32:05Z</time>
      </trkpt>
      <trkpt lat="46.53681" lon="4.51286">
        <ele>261.599</ele>
        <time>2020-06-11T05:32:10Z</time>
      </trkpt>
      <trkpt lat="46.53683" lon="4.51274">
        <ele>261.599</ele>
        <time>2020-06-11T05:32:15Z</time>
      </trkpt>
      <trkpt lat="46.53684" lon="4.51264">
        <ele>259.599</ele>
        <time>2020-06-11T05:32:20Z</time>
      </trkpt>
      <trkpt lat="46.53686" lon="4.51253">
        <ele>256.599</ele>
        <time>2020-06-11T05:32:25Z</time>
      </trkpt>
      <trkpt lat="46.53689" lon="4.51244">
        <ele>255.599</ele>
        <time>2020-06-11T05:32:30Z</time>
      </trkpt>
      <trkpt lat="46.53694" lon="4.51237">
        <ele>255.599</ele>
        <time>2020-06-11T05:32:35Z</time>
      </trkpt>
      <trkpt lat="46.53699" lon="4.51227">
        <ele>255.599</ele>
        <time>2020-06-11T05:32:40Z</time>
      </trkpt>
      <trkpt lat="46.53702" lon="4.5122">
        <ele>253.599</ele>
        <time>2020-06-11T05:32:45Z</time>
      </trkpt>
      <trkpt lat="46.53707" lon="4.51211">
        <ele>254.599</ele>
        <time>2020-06-11T05:32:50Z</time>
      </trkpt>
      <trkpt lat="46.5371" lon="4.51203">
        <ele>254.599</ele>
        <time>2020-06-11T05:32:55Z</time>
      </trkpt>
      <trkpt lat="46.53715" lon="4.51195">
        <ele>251.599</ele>
        <time>2020-06-11T05:33:00Z</time>
      </trkpt>
      <trkpt lat="46.53721" lon="4.51186">
        <ele>252.599</ele>
        <time>2020-06-11T05:33:05Z</time>
      </trkpt>
      <trkpt lat="46.53726" lon="4.51177">
        <ele>250.599</ele>
        <time>2020-06-11T05:33:10Z</time>
      </trkpt>
      <trkpt lat="46.53732" lon="4.51168">
        <ele>251.599</ele>
        <time>2020-06-11T05:33:15Z</time>
      </trkpt>
      <trkpt lat="46.53736" lon="4.51159">
        <ele>251.599</ele>
        <time>2020-06-11T05:33:20Z</time>
      </trkpt>
      <trkpt lat="46.53738" lon="4.5115">
        <ele>250.599</ele>
        <time>2020-06-11T05:33:25Z</time>
      </trkpt>
      <trkpt lat="46.53741" lon="4.5114">
        <ele>251.599</ele>
        <time>2020-06-11T05:33:30Z</time>
      </trkpt>
      <trkpt lat="46.53746" lon="4.51127">
        <ele>251.599</ele>
        <time>2020-06-11T05:33:35Z</time>
      </trkpt>
      <trkpt lat="46.53745" lon="4.51115">
        <ele>251.599</ele>
        <time>2020-06-11T05:33:42Z</time>
      </trkpt>
      <trkpt lat="46.53748" lon="4.51105">
        <ele>250.599</ele>
        <time>2020-06-11T05:33:48Z</time>
      </trkpt>
      <trkpt lat="46.53754" lon="4.51099">
        <ele>250.599</ele>
        <time>2020-06-11T05:33:53Z</time>
      </trkpt>
      <trkpt lat="46.5376" lon="4.51092">
        <ele>251.599</ele>
        <time>2020-06-11T05:33:58Z</time>
      </trkpt>
      <trkpt lat="46.53766" lon="4.51084">
        <ele>253.599</ele>
        <time>2020-06-11T05:34:03Z</time>
      </trkpt>
      <trkpt lat="46.53772" lon="4.51077">
        <ele>250.599</ele>
        <time>2020-06-11T05:34:08Z</time>
      </trkpt>
      <trkpt lat="46.53776" lon="4.51069">
        <ele>250.599</ele>
        <time>2020-06-11T05:34:14Z</time>
      </trkpt>
      <trkpt lat="46.53785" lon="4.51061">
        <ele>252.599</ele>
        <time>2020-06-11T05:34:19Z</time>
      </trkpt>
      <trkpt lat="46.53793" lon="4.51054">
        <ele>253.599</ele>
        <time>2020-06-11T05:34:24Z</time>
      </trkpt>
      <trkpt lat="46.538" lon="4.51045">
        <ele>254.599</ele>
        <time>2020-06-11T05:34:30Z</time>
      </trkpt>
      <trkpt lat="46.53806" lon="4.5104">
        <ele>250.599</ele>
        <time>2020-06-11T05:34:35Z</time>
      </trkpt>
      <trkpt lat="46.53813" lon="4.51039">
        <ele>248.599</ele>
        <time>2020-06-11T05:34:41Z</time>
      </trkpt>
      <trkpt lat="46.53821" lon="4.51039">
        <ele>253.599</ele>
        <time>2020-06-11T05:34:46Z</time>
      </trkpt>
      <trkpt lat="46.53827" lon="4.51038">
        <ele>253.599</ele>
        <time>2020-06-11T05:34:51Z</time>
      </trkpt>
      <trkpt lat="46.53834" lon="4.51038">
        <ele>253.599</ele>
        <time>2020-06-11T05:34:57Z</time>
      </trkpt>
      <trkpt lat="46.53841" lon="4.51034">
        <ele>252.599</ele>
        <time>2020-06-11T05:35:02Z</time>
      </trkpt>
      <trkpt lat="46.53846" lon="4.51024">
        <ele>250.599</ele>
        <time>2020-06-11T05:35:08Z</time>
      </trkpt>
      <trkpt lat="46.5385" lon="4.51014">
        <ele>250.599</ele>
        <time>2020-06-11T05:35:13Z</time>
      </trkpt>
      <trkpt lat="46.53855" lon="4.51007">
        <ele>245.599</ele>
        <time>2020-06-11T05:35:32Z</time>
      </trkpt>
      <trkpt lat="46.53858" lon="4.50998">
        <ele>245.599</ele>
        <time>2020-06-11T05:35:37Z</time>
      </trkpt>
      <trkpt lat="46.53862" lon="4.50988">
        <ele>247.599</ele>
        <time>2020-06-11T05:35:42Z</time>
      </trkpt>
      <trkpt lat="46.53865" lon="4.50978">
        <ele>248.599</ele>
        <time>2020-06-11T05:35:47Z</time>
      </trkpt>
      <trkpt lat="46.5387" lon="4.50968">
        <ele>249.599</ele>
        <time>2020-06-11T05:35:52Z</time>
      </trkpt>
      <trkpt lat="46.53874" lon="4.50959">
        <ele>248.599</ele>
        <time>2020-06-11T05:35:58Z</time>
      </trkpt>
      <trkpt lat="46.53875" lon="4.5095">
        <ele>249.599</ele>
        <time>2020-06-11T05:36:03Z</time>
      </trkpt>
      <trkpt lat="46.53874" lon="4.5094">
        <ele>251.599</ele>
        <time>2020-06-11T05:36:10Z</time>
      </trkpt>
      <trkpt lat="46.53874" lon="4.50929">
        <ele>253.599</ele>
        <time>2020-06-11T05:36:15Z</time>
      </trkpt>
      <trkpt lat="46.53873" lon="4.50917">
        <ele>255.599</ele>
        <time>2020-06-11T05:36:21Z</time>
      </trkpt>
      <trkpt lat="46.53873" lon="4.50907">
        <ele>256.599</ele>
        <time>2020-06-11T05:36:26Z</time>
      </trkpt>
      <trkpt lat="46.53873" lon="4.50895">
        <ele>258.599</ele>
        <time>2020-06-11T05:36:32Z</time>
      </trkpt>
      <trkpt lat="46.53872" lon="4.50885">
        <ele>258.599</ele>
        <time>2020-06-11T05:36:37Z</time>
      </trkpt>
      <trkpt lat="46.53869" lon="4.50876">
        <ele>256.599</ele>
        <time>2020-06-11T05:36:42Z</time>
      </trkpt>
      <trkpt lat="46.53864" lon="4.50868">
        <ele>255.599</ele>
        <time>2020-06-11T05:36:47Z</time>
      </trkpt>
      <trkpt lat="46.53859" lon="4.5086">
        <ele>254.599</ele>
        <time>2020-06-11T05:36:52Z</time>
      </trkpt>
      <trkpt lat="46.5386" lon="4.50851">
        <ele>253.599</ele>
        <time>2020-06-11T05:36:57Z</time>
      </trkpt>
      <trkpt lat="46.5386" lon="4.50841">
        <ele>255.599</ele>
        <time>2020-06-11T05:37:03Z</time>
      </trkpt>
      <trkpt lat="46.53856" lon="4.50832">
        <ele>254.599</ele>
        <time>2020-06-11T05:37:08Z</time>
      </trkpt>
      <trkpt lat="46.5385" lon="4.50827">
        <ele>254.599</ele>
        <time>2020-06-11T05:37:13Z</time>
      </trkpt>
      <trkpt lat="46.53844" lon="4.50819">
        <ele>254.599</ele>
        <time>2020-06-11T05:37:18Z</time>
      </trkpt>
      <trkpt lat="46.53839" lon="4.50811">
        <ele>253.599</ele>
        <time>2020-06-11T05:37:23Z</time>
      </trkpt>
      <trkpt lat="46.53835" lon="4.50803">
        <ele>252.599</ele>
        <time>2020-06-11T05:37:29Z</time>
      </trkpt>
      <trkpt lat="46.5383" lon="4.50796">
        <ele>252.599</ele>
        <time>2020-06-11T05:37:34Z</time>
      </trkpt>
      <trkpt lat="46.53824" lon="4.5079">
        <ele>254.599</ele>
        <time>2020-06-11T05:37:39Z</time>
      </trkpt>
      <trkpt lat="46.53817" lon="4.50782">
        <ele>256.599</ele>
        <time>2020-06-11T05:37:44Z</time>
      </trkpt>
      <trkpt lat="46.53812" lon="4.50774">
        <ele>256.599</ele>
        <time>2020-06-11T05:37:49Z</time>
      </trkpt>
      <trkpt lat="46.53806" lon="4.50765">
        <ele>260.599</ele>
        <time>2020-06-11T05:37:54Z</time>
      </trkpt>
      <trkpt lat="46.53804" lon="4.50755">
        <ele>256.599</ele>
        <time>2020-06-11T05:38:01Z</time>
      </trkpt>
      <trkpt lat="46.53802" lon="4.50746">
        <ele>256.599</ele>
        <time>2020-06-11T05:38:06Z</time>
      </trkpt>
      <trkpt lat="46.53803" lon="4.50735">
        <ele>255.598</ele>
        <time>2020-06-11T05:38:12Z</time>
      </trkpt>
      <trkpt lat="46.53807" lon="4.50727">
        <ele>257.599</ele>
        <time>2020-06-11T05:38:20Z</time>
      </trkpt>
      <trkpt lat="46.53808" lon="4.50709">
        <ele>257.598</ele>
        <time>2020-06-11T05:38:25Z</time>
      </trkpt>
      <trkpt lat="46.53809" lon="4.50698">
        <ele>260.598</ele>
        <time>2020-06-11T05:38:30Z</time>
      </trkpt>
      <trkpt lat="46.5381" lon="4.50688">
        <ele>259.598</ele>
        <time>2020-06-11T05:38:37Z</time>
      </trkpt>
      <trkpt lat="46.53814" lon="4.5068">
        <ele>261.598</ele>
        <time>2020-06-11T05:38:42Z</time>
      </trkpt>
      <trkpt lat="46.53815" lon="4.50669">
        <ele>261.598</ele>
        <time>2020-06-11T05:38:49Z</time>
      </trkpt>
      <trkpt lat="46.53819" lon="4.50661">
        <ele>261.598</ele>
        <time>2020-06-11T05:38:54Z</time>
      </trkpt>
      <trkpt lat="46.53826" lon="4.50654">
        <ele>265.599</ele>
        <time>2020-06-11T05:39:00Z</time>
      </trkpt>
      <trkpt lat="46.5383" lon="4.50646">
        <ele>265.599</ele>
        <time>2020-06-11T05:39:07Z</time>
      </trkpt>
      <trkpt lat="46.53838" lon="4.50644">
        <ele>264.599</ele>
        <time>2020-06-11T05:39:12Z</time>
      </trkpt>
      <trkpt lat="46.53845" lon="4.50638">
        <ele>263.599</ele>
        <time>2020-06-11T05:39:20Z</time>
      </trkpt>
      <trkpt lat="46.5385" lon="4.50631">
        <ele>265.599</ele>
        <time>2020-06-11T05:39:26Z</time>
      </trkpt>
      <trkpt lat="46.53856" lon="4.50621">
        <ele>266.599</ele>
        <time>2020-06-11T05:39:31Z</time>
      </trkpt>
      <trkpt lat="46.53857" lon="4.50611">
        <ele>267.599</ele>
        <time>2020-06-11T05:39:38Z</time>
      </trkpt>
      <trkpt lat="46.53862" lon="4.50601">
        <ele>267.599</ele>
        <time>2020-06-11T05:39:44Z</time>
      </trkpt>
      <trkpt lat="46.53864" lon="4.50591">
        <ele>268.599</ele>
        <time>2020-06-11T05:39:49Z</time>
      </trkpt>
      <trkpt lat="46.53865" lon="4.50581">
        <ele>266.599</ele>
        <time>2020-06-11T05:39:55Z</time>
      </trkpt>
      <trkpt lat="46.53868" lon="4.50572">
        <ele>266.599</ele>
        <time>2020-06-11T05:40:00Z</time>
      </trkpt>
      <trkpt lat="46.53869" lon="4.50561">
        <ele>267.599</ele>
        <time>2020-06-11T05:40:05Z</time>
      </trkpt>
      <trkpt lat="46.53872" lon="4.5055">
        <ele>268.599</ele>
        <time>2020-06-11T05:40:11Z</time>
      </trkpt>
      <trkpt lat="46.53873" lon="4.5054">
        <ele>265.599</ele>
        <time>2020-06-11T05:40:17Z</time>
      </trkpt>
      <trkpt lat="46.53875" lon="4.50528">
        <ele>265.599</ele>
        <time>2020-06-11T05:40:22Z</time>
      </trkpt>
      <trkpt lat="46.53879" lon="4.50518">
        <ele>265.599</ele>
        <time>2020-06-11T05:40:27Z</time>
      </trkpt>
      <trkpt lat="46.53881" lon="4.50506">
        <ele>263.599</ele>
        <time>2020-06-11T05:40:33Z</time>
      </trkpt>
      <trkpt lat="46.5388" lon="4.50493">
        <ele>263.599</ele>
        <time>2020-06-11T05:40:38Z</time>
      </trkpt>
      <trkpt lat="46.53878" lon="4.50481">
        <ele>265.599</ele>
        <time>2020-06-11T05:40:43Z</time>
      </trkpt>
      <trkpt lat="46.53877" lon="4.50472">
        <ele>265.599</ele>
        <time>2020-06-11T05:40:49Z</time>
      </trkpt>
      <trkpt lat="46.53873" lon="4.50463">
        <ele>264.598</ele>
        <time>2020-06-11T05:40:55Z</time>
      </trkpt>
      <trkpt lat="46.53871" lon="4.50454">
        <ele>266.598</ele>
        <time>2020-06-11T05:41:00Z</time>
      </trkpt>
      <trkpt lat="46.53866" lon="4.50447">
        <ele>263.598</ele>
        <time>2020-06-11T05:41:06Z</time>
      </trkpt>
      <trkpt lat="46.53863" lon="4.50437">
        <ele>262.598</ele>
        <time>2020-06-11T05:41:12Z</time>
      </trkpt>
      <trkpt lat="46.53861" lon="4.50426">
        <ele>260.598</ele>
        <time>2020-06-11T05:41:18Z</time>
      </trkpt>
      <trkpt lat="46.5386" lon="4.50412">
        <ele>262.598</ele>
        <time>2020-06-11T05:41:23Z</time>
      </trkpt>
      <trkpt lat="46.53856" lon="4.50404">
        <ele>263.598</ele>
        <time>2020-06-11T05:41:28Z</time>
      </trkpt>
      <trkpt lat="46.53854" lon="4.50392">
        <ele>266.598</ele>
        <time>2020-06-11T05:41:33Z</time>
      </trkpt>
      <trkpt lat="46.53852" lon="4.50383">
        <ele>268.598</ele>
        <time>2020-06-11T05:41:39Z</time>
      </trkpt>
      <trkpt lat="46.5385" lon="4.50371">
        <ele>266.598</ele>
        <time>2020-06-11T05:41:46Z</time>
      </trkpt>
      <trkpt lat="46.53851" lon="4.50358">
        <ele>269.598</ele>
        <time>2020-06-11T05:41:51Z</time>
      </trkpt>
      <trkpt lat="46.53851" lon="4.50347">
        <ele>270.598</ele>
        <time>2020-06-11T05:41:56Z</time>
      </trkpt>
      <trkpt lat="46.53854" lon="4.50335">
        <ele>273.598</ele>
        <time>2020-06-11T05:42:01Z</time>
      </trkpt>
      <trkpt lat="46.53859" lon="4.50325">
        <ele>271.598</ele>
        <time>2020-06-11T05:42:06Z</time>
      </trkpt>
      <trkpt lat="46.53862" lon="4.50315">
        <ele>268.598</ele>
        <time>2020-06-11T05:42:12Z</time>
      </trkpt>
      <trkpt lat="46.53869" lon="4.50313">
        <ele>267.598</ele>
        <time>2020-06-11T05:42:17Z</time>
      </trkpt>
      <trkpt lat="46.53878" lon="4.50308">
        <ele>267.598</ele>
        <time>2020-06-11T05:42:22Z</time>
      </trkpt>
      <trkpt lat="46.53884" lon="4.50303">
        <ele>267.598</ele>
        <time>2020-06-11T05:42:28Z</time>
      </trkpt>
      <trkpt lat="46.5389" lon="4.50299">
        <ele>266.598</ele>
        <time>2020-06-11T05:42:34Z</time>
      </trkpt>
      <trkpt lat="46.53901" lon="4.50295">
        <ele>264.598</ele>
        <time>2020-06-11T05:42:39Z</time>
      </trkpt>
      <trkpt lat="46.53901" lon="4.5029">
        <ele>264.598</ele>
        <time>2020-06-11T05:42:41Z</time>
      </trkpt>
      <trkpt lat="46.53902" lon="4.5028">
        <ele>258.598</ele>
        <time>2020-06-11T05:42:49Z</time>
      </trkpt>
      <trkpt lat="46.53902" lon="4.5027">
        <ele>260.598</ele>
        <time>2020-06-11T05:42:54Z</time>
      </trkpt>
      <trkpt lat="46.53903" lon="4.5026">
        <ele>261.598</ele>
        <time>2020-06-11T05:42:59Z</time>
      </trkpt>
      <trkpt lat="46.53906" lon="4.50251">
        <ele>260.598</ele>
        <time>2020-06-11T05:43:05Z</time>
      </trkpt>
      <trkpt lat="46.53904" lon="4.50241">
        <ele>259.598</ele>
        <time>2020-06-11T05:43:10Z</time>
      </trkpt>
      <trkpt lat="46.53905" lon="4.50227">
        <ele>258.598</ele>
        <time>2020-06-11T05:43:15Z</time>
      </trkpt>
      <trkpt lat="46.53902" lon="4.50216">
        <ele>257.598</ele>
        <time>2020-06-11T05:43:20Z</time>
      </trkpt>
      <trkpt lat="46.539" lon="4.50206">
        <ele>255.598</ele>
        <time>2020-06-11T05:43:26Z</time>
      </trkpt>
      <trkpt lat="46.53899" lon="4.50195">
        <ele>252.598</ele>
        <time>2020-06-11T05:43:32Z</time>
      </trkpt>
      <trkpt lat="46.53898" lon="4.50182">
        <ele>253.598</ele>
        <time>2020-06-11T05:43:37Z</time>
      </trkpt>
      <trkpt lat="46.539" lon="4.50173">
        <ele>260.598</ele>
        <time>2020-06-11T05:44:24Z</time>
      </trkpt>
      <trkpt lat="46.53906" lon="4.50165">
        <ele>261.598</ele>
        <time>2020-06-11T05:45:24Z</time>
      </trkpt>
      <trkpt lat="46.53912" lon="4.50159">
        <ele>261.598</ele>
        <time>2020-06-11T05:45:30Z</time>
      </trkpt>
      <trkpt lat="46.53919" lon="4.50154">
        <ele>262.598</ele>
        <time>2020-06-11T05:45:37Z</time>
      </trkpt>
      <trkpt lat="46.53925" lon="4.50149">
        <ele>265.598</ele>
        <time>2020-06-11T05:45:44Z</time>
      </trkpt>
      <trkpt lat="46.53931" lon="4.50145">
        <ele>267.598</ele>
        <time>2020-06-11T05:45:49Z</time>
      </trkpt>
      <trkpt lat="46.53935" lon="4.50135">
        <ele>263.598</ele>
        <time>2020-06-11T05:45:59Z</time>
      </trkpt>
      <trkpt lat="46.53942" lon="4.50134">
        <ele>263.598</ele>
        <time>2020-06-11T05:46:04Z</time>
      </trkpt>
      <trkpt lat="46.53948" lon="4.5013">
        <ele>263.598</ele>
        <time>2020-06-11T05:46:09Z</time>
      </trkpt>
      <trkpt lat="46.53954" lon="4.50126">
        <ele>262.598</ele>
        <time>2020-06-11T05:46:16Z</time>
      </trkpt>
      <trkpt lat="46.53962" lon="4.50123">
        <ele>260.598</ele>
        <time>2020-06-11T05:46:22Z</time>
      </trkpt>
      <trkpt lat="46.53969" lon="4.50118">
        <ele>261.599</ele>
        <time>2020-06-11T05:46:27Z</time>
      </trkpt>
      <trkpt lat="46.53975" lon="4.50113">
        <ele>264.599</ele>
        <time>2020-06-11T05:46:34Z</time>
      </trkpt>
      <trkpt lat="46.5398" lon="4.50108">
        <ele>265.599</ele>
        <time>2020-06-11T05:46:40Z</time>
      </trkpt>
      <trkpt lat="46.5399" lon="4.50106">
        <ele>268.599</ele>
        <time>2020-06-11T05:46:46Z</time>
      </trkpt>
      <trkpt lat="46.53996" lon="4.501">
        <ele>268.599</ele>
        <time>2020-06-11T05:46:51Z</time>
      </trkpt>
      <trkpt lat="46.54001" lon="4.50091">
        <ele>270.599</ele>
        <time>2020-06-11T05:46:57Z</time>
      </trkpt>
      <trkpt lat="46.54004" lon="4.50082">
        <ele>271.599</ele>
        <time>2020-06-11T05:47:05Z</time>
      </trkpt>
      <trkpt lat="46.54005" lon="4.50071">
        <ele>266.599</ele>
        <time>2020-06-11T05:47:13Z</time>
      </trkpt>
      <trkpt lat="46.54007" lon="4.5006">
        <ele>273.599</ele>
        <time>2020-06-11T05:47:19Z</time>
      </trkpt>
      <trkpt lat="46.54008" lon="4.50047">
        <ele>276.599</ele>
        <time>2020-06-11T05:47:26Z</time>
      </trkpt>
      <trkpt lat="46.54008" lon="4.50036">
        <ele>277.599</ele>
        <time>2020-06-11T05:47:31Z</time>
      </trkpt>
      <trkpt lat="46.54007" lon="4.50027">
        <ele>275.599</ele>
        <time>2020-06-11T05:47:37Z</time>
      </trkpt>
      <trkpt lat="46.54008" lon="4.50017">
        <ele>275.599</ele>
        <time>2020-06-11T05:47:42Z</time>
      </trkpt>
      <trkpt lat="46.54009" lon="4.50005">
        <ele>273.599</ele>
        <time>2020-06-11T05:47:50Z</time>
      </trkpt>
      <trkpt lat="46.54011" lon="4.49993">
        <ele>276.599</ele>
        <time>2020-06-11T05:47:55Z</time>
      </trkpt>
      <trkpt lat="46.54013" lon="4.49983">
        <ele>278.599</ele>
        <time>2020-06-11T05:48:02Z</time>
      </trkpt>
      <trkpt lat="46.54013" lon="4.49972">
        <ele>281.599</ele>
        <time>2020-06-11T05:48:07Z</time>
      </trkpt>
      <trkpt lat="46.54016" lon="4.49962">
        <ele>282.599</ele>
        <time>2020-06-11T05:48:14Z</time>
      </trkpt>
      <trkpt lat="46.54015" lon="4.49951">
        <ele>283.599</ele>
        <time>2020-06-11T05:48:21Z</time>
      </trkpt>
      <trkpt lat="46.54013" lon="4.49942">
        <ele>284.598</ele>
        <time>2020-06-11T05:48:28Z</time>
      </trkpt>
      <trkpt lat="46.54008" lon="4.49936">
        <ele>284.598</ele>
        <time>2020-06-11T05:48:35Z</time>
      </trkpt>
      <trkpt lat="46.54001" lon="4.49931">
        <ele>284.598</ele>
        <time>2020-06-11T05:48:43Z</time>
      </trkpt>
      <trkpt lat="46.53995" lon="4.4993">
        <ele>286.598</ele>
        <time>2020-06-11T05:48:51Z</time>
      </trkpt>
      <trkpt lat="46.5399" lon="4.49923">
        <ele>288.598</ele>
        <time>2020-06-11T05:48:56Z</time>
      </trkpt>
      <trkpt lat="46.53988" lon="4.49913">
        <ele>292.598</ele>
        <time>2020-06-11T05:49:03Z</time>
      </trkpt>
      <trkpt lat="46.53989" lon="4.49903">
        <ele>292.598</ele>
        <time>2020-06-11T05:49:11Z</time>
      </trkpt>
      <trkpt lat="46.53989" lon="4.49893">
        <ele>293.598</ele>
        <time>2020-06-11T05:49:17Z</time>
      </trkpt>
      <trkpt lat="46.5399" lon="4.49884">
        <ele>297.598</ele>
        <time>2020-06-11T05:49:24Z</time>
      </trkpt>
      <trkpt lat="46.53994" lon="4.49875">
        <ele>297.598</ele>
        <time>2020-06-11T05:49:33Z</time>
      </trkpt>
      <trkpt lat="46.53998" lon="4.49865">
        <ele>296.598</ele>
        <time>2020-06-11T05:49:42Z</time>
      </trkpt>
      <trkpt lat="46.54003" lon="4.49859">
        <ele>299.598</ele>
        <time>2020-06-11T05:49:48Z</time>
      </trkpt>
      <trkpt lat="46.54007" lon="4.4985">
        <ele>298.598</ele>
        <time>2020-06-11T05:49:55Z</time>
      </trkpt>
      <trkpt lat="46.54012" lon="4.49842">
        <ele>300.598</ele>
        <time>2020-06-11T05:50:02Z</time>
      </trkpt>
      <trkpt lat="46.54014" lon="4.49832">
        <ele>298.598</ele>
        <time>2020-06-11T05:50:10Z</time>
      </trkpt>
      <trkpt lat="46.54016" lon="4.49822">
        <ele>301.598</ele>
        <time>2020-06-11T05:50:18Z</time>
      </trkpt>
      <trkpt lat="46.54018" lon="4.49812">
        <ele>302.598</ele>
        <time>2020-06-11T05:50:23Z</time>
      </trkpt>
      <trkpt lat="46.54019" lon="4.49803">
        <ele>305.598</ele>
        <time>2020-06-11T05:50:30Z</time>
      </trkpt>
      <trkpt lat="46.5402" lon="4.49791">
        <ele>306.598</ele>
        <time>2020-06-11T05:50:40Z</time>
      </trkpt>
      <trkpt lat="46.54022" lon="4.49781">
        <ele>305.598</ele>
        <time>2020-06-11T05:50:46Z</time>
      </trkpt>
      <trkpt lat="46.54019" lon="4.49773">
        <ele>302.598</ele>
        <time>2020-06-11T05:50:56Z</time>
      </trkpt>
      <trkpt lat="46.54022" lon="4.49762">
        <ele>303.598</ele>
        <time>2020-06-11T05:51:02Z</time>
      </trkpt>
      <trkpt lat="46.54023" lon="4.49753">
        <ele>302.598</ele>
        <time>2020-06-11T05:51:07Z</time>
      </trkpt>
      <trkpt lat="46.54023" lon="4.49743">
        <ele>299.598</ele>
        <time>2020-06-11T05:51:14Z</time>
      </trkpt>
      <trkpt lat="46.54026" lon="4.49734">
        <ele>303.598</ele>
        <time>2020-06-11T05:51:21Z</time>
      </trkpt>
      <trkpt lat="46.54029" lon="4.49726">
        <ele>303.598</ele>
        <time>2020-06-11T05:51:27Z</time>
      </trkpt>
      <trkpt lat="46.54032" lon="4.49716">
        <ele>304.598</ele>
        <time>2020-06-11T05:51:33Z</time>
      </trkpt>
      <trkpt lat="46.54035" lon="4.49707">
        <ele>302.598</ele>
        <time>2020-06-11T05:51:41Z</time>
      </trkpt>
      <trkpt lat="46.54038" lon="4.49698">
        <ele>306.598</ele>
        <time>2020-06-11T05:51:47Z</time>
      </trkpt>
      <trkpt lat="46.54043" lon="4.49689">
        <ele>308.598</ele>
        <time>2020-06-11T05:51:53Z</time>
      </trkpt>
      <trkpt lat="46.54046" lon="4.4968">
        <ele>310.598</ele>
        <time>2020-06-11T05:51:59Z</time>
      </trkpt>
      <trkpt lat="46.54049" lon="4.49671">
        <ele>314.598</ele>
        <time>2020-06-11T05:52:05Z</time>
      </trkpt>
      <trkpt lat="46.54051" lon="4.49661">
        <ele>318.598</ele>
        <time>2020-06-11T05:52:12Z</time>
      </trkpt>
      <trkpt lat="46.54055" lon="4.49652">
        <ele>318.598</ele>
        <time>2020-06-11T05:52:18Z</time>
      </trkpt>
      <trkpt lat="46.54057" lon="4.49641">
        <ele>319.598</ele>
        <time>2020-06-11T05:52:24Z</time>
      </trkpt>
      <trkpt lat="46.54059" lon="4.4963">
        <ele>320.598</ele>
        <time>2020-06-11T05:52:32Z</time>
      </trkpt>
      <trkpt lat="46.54061" lon="4.49619">
        <ele>317.598</ele>
        <time>2020-06-11T05:52:39Z</time>
      </trkpt>
      <trkpt lat="46.54062" lon="4.49609">
        <ele>320.598</ele>
        <time>2020-06-11T05:52:45Z</time>
      </trkpt>
      <trkpt lat="46.54062" lon="4.49599">
        <ele>316.598</ele>
        <time>2020-06-11T05:52:53Z</time>
      </trkpt>
      <trkpt lat="46.54063" lon="4.49589">
        <ele>316.598</ele>
        <time>2020-06-11T05:52:58Z</time>
      </trkpt>
      <trkpt lat="46.54065" lon="4.4958">
        <ele>316.598</ele>
        <time>2020-06-11T05:53:03Z</time>
      </trkpt>
      <trkpt lat="46.54067" lon="4.49571">
        <ele>321.598</ele>
        <time>2020-06-11T05:53:08Z</time>
      </trkpt>
      <trkpt lat="46.54068" lon="4.4956">
        <ele>318.598</ele>
        <time>2020-06-11T05:53:13Z</time>
      </trkpt>
      <trkpt lat="46.54071" lon="4.4955">
        <ele>317.598</ele>
        <time>2020-06-11T05:53:18Z</time>
      </trkpt>
      <trkpt lat="46.54074" lon="4.49539">
        <ele>319.598</ele>
        <time>2020-06-11T05:53:24Z</time>
      </trkpt>
      <trkpt lat="46.54074" lon="4.49529">
        <ele>315.598</ele>
        <time>2020-06-11T05:53:31Z</time>
      </trkpt>
      <trkpt lat="46.54076" lon="4.49517">
        <ele>319.598</ele>
        <time>2020-06-11T05:53:36Z</time>
      </trkpt>
      <trkpt lat="46.54077" lon="4.49508">
        <ele>320.598</ele>
        <time>2020-06-11T05:53:42Z</time>
      </trkpt>
      <trkpt lat="46.54077" lon="4.49498">
        <ele>322.598</ele>
        <time>2020-06-11T05:53:47Z</time>
      </trkpt>
      <trkpt lat="46.5408" lon="4.49487">
        <ele>320.598</ele>
        <time>2020-06-11T05:53:53Z</time>
      </trkpt>
      <trkpt lat="46.54083" lon="4.49478">
        <ele>322.598</ele>
        <time>2020-06-11T05:53:58Z</time>
      </trkpt>
      <trkpt lat="46.54085" lon="4.49469">
        <ele>322.598</ele>
        <time>2020-06-11T05:54:03Z</time>
      </trkpt>
      <trkpt lat="46.5409" lon="4.4946">
        <ele>326.598</ele>
        <time>2020-06-11T05:54:08Z</time>
      </trkpt>
      <trkpt lat="46.54094" lon="4.49451">
        <ele>328.598</ele>
        <time>2020-06-11T05:54:13Z</time>
      </trkpt>
      <trkpt lat="46.54097" lon="4.49443">
        <ele>327.598</ele>
        <time>2020-06-11T05:54:19Z</time>
      </trkpt>
      <trkpt lat="46.54101" lon="4.49433">
        <ele>330.598</ele>
        <time>2020-06-11T05:54:24Z</time>
      </trkpt>
      <trkpt lat="46.54103" lon="4.49424">
        <ele>329.598</ele>
        <time>2020-06-11T05:54:29Z</time>
      </trkpt>
      <trkpt lat="46.54105" lon="4.49414">
        <ele>325.598</ele>
        <time>2020-06-11T05:54:36Z</time>
      </trkpt>
      <trkpt lat="46.54109" lon="4.49404">
        <ele>327.598</ele>
        <time>2020-06-11T05:54:41Z</time>
      </trkpt>
      <trkpt lat="46.5411" lon="4.49393">
        <ele>324.598</ele>
        <time>2020-06-11T05:54:48Z</time>
      </trkpt>
      <trkpt lat="46.54114" lon="4.49386">
        <ele>322.598</ele>
        <time>2020-06-11T05:54:54Z</time>
      </trkpt>
      <trkpt lat="46.54119" lon="4.49375">
        <ele>326.598</ele>
        <time>2020-06-11T05:54:59Z</time>
      </trkpt>
      <trkpt lat="46.54123" lon="4.49367">
        <ele>324.598</ele>
        <time>2020-06-11T05:55:04Z</time>
      </trkpt>
      <trkpt lat="46.54128" lon="4.49358">
        <ele>326.598</ele>
        <time>2020-06-11T05:55:10Z</time>
      </trkpt>
      <trkpt lat="46.54132" lon="4.4935">
        <ele>325.598</ele>
        <time>2020-06-11T05:55:15Z</time>
      </trkpt>
      <trkpt lat="46.54137" lon="4.49342">
        <ele>327.598</ele>
        <time>2020-06-11T05:55:20Z</time>
      </trkpt>
      <trkpt lat="46.54141" lon="4.49334">
        <ele>322.598</ele>
        <time>2020-06-11T05:55:26Z</time>
      </trkpt>
      <trkpt lat="46.54147" lon="4.49325">
        <ele>325.598</ele>
        <time>2020-06-11T05:55:31Z</time>
      </trkpt>
      <trkpt lat="46.54151" lon="4.49316">
        <ele>323.598</ele>
        <time>2020-06-11T05:55:37Z</time>
      </trkpt>
      <trkpt lat="46.54158" lon="4.49309">
        <ele>325.598</ele>
        <time>2020-06-11T05:55:42Z</time>
      </trkpt>
      <trkpt lat="46.54161" lon="4.49301">
        <ele>323.598</ele>
        <time>2020-06-11T05:55:47Z</time>
      </trkpt>
      <trkpt lat="46.54166" lon="4.49292">
        <ele>321.598</ele>
        <time>2020-06-11T05:55:53Z</time>
      </trkpt>
      <trkpt lat="46.54171" lon="4.49284">
        <ele>319.598</ele>
        <time>2020-06-11T05:55:58Z</time>
      </trkpt>
      <trkpt lat="46.54172" lon="4.49273">
        <ele>319.598</ele>
        <time>2020-06-11T05:56:03Z</time>
      </trkpt>
      <trkpt lat="46.54176" lon="4.49266">
        <ele>318.598</ele>
        <time>2020-06-11T05:56:08Z</time>
      </trkpt>
      <trkpt lat="46.54184" lon="4.49259">
        <ele>318.598</ele>
        <time>2020-06-11T05:56:13Z</time>
      </trkpt>
      <trkpt lat="46.5419" lon="4.4925">
        <ele>321.598</ele>
        <time>2020-06-11T05:56:18Z</time>
      </trkpt>
      <trkpt lat="46.54197" lon="4.4924">
        <ele>325.598</ele>
        <time>2020-06-11T05:56:23Z</time>
      </trkpt>
      <trkpt lat="46.542" lon="4.49231">
        <ele>326.598</ele>
        <time>2020-06-11T05:56:28Z</time>
      </trkpt>
      <trkpt lat="46.54204" lon="4.49221">
        <ele>317.598</ele>
        <time>2020-06-11T05:56:35Z</time>
      </trkpt>
      <trkpt lat="46.54209" lon="4.49211">
        <ele>321.599</ele>
        <time>2020-06-11T05:56:41Z</time>
      </trkpt>
      <trkpt lat="46.54215" lon="4.49201">
        <ele>321.599</ele>
        <time>2020-06-11T05:56:46Z</time>
      </trkpt>
      <trkpt lat="46.54219" lon="4.49193">
        <ele>321.599</ele>
        <time>2020-06-11T05:56:51Z</time>
      </trkpt>
      <trkpt lat="46.54222" lon="4.49184">
        <ele>318.599</ele>
        <time>2020-06-11T05:56:58Z</time>
      </trkpt>
      <trkpt lat="46.54225" lon="4.49173">
        <ele>319.599</ele>
        <time>2020-06-11T05:57:04Z</time>
      </trkpt>
      <trkpt lat="46.54228" lon="4.49165">
        <ele>317.599</ele>
        <time>2020-06-11T05:57:09Z</time>
      </trkpt>
      <trkpt lat="46.54231" lon="4.49157">
        <ele>315.599</ele>
        <time>2020-06-11T05:57:14Z</time>
      </trkpt>
      <trkpt lat="46.54238" lon="4.49149">
        <ele>317.599</ele>
        <time>2020-06-11T05:57:20Z</time>
      </trkpt>
      <trkpt lat="46.54243" lon="4.49141">
        <ele>320.599</ele>
        <time>2020-06-11T05:57:25Z</time>
      </trkpt>
      <trkpt lat="46.54249" lon="4.49132">
        <ele>325.599</ele>
        <time>2020-06-11T05:57:30Z</time>
      </trkpt>
      <trkpt lat="46.54253" lon="4.49126">
        <ele>328.599</ele>
        <time>2020-06-11T05:57:35Z</time>
      </trkpt>
      <trkpt lat="46.54259" lon="4.49118">
        <ele>328.599</ele>
        <time>2020-06-11T05:57:40Z</time>
      </trkpt>
      <trkpt lat="46.54264" lon="4.4911">
        <ele>329.599</ele>
        <time>2020-06-11T05:57:45Z</time>
      </trkpt>
      <trkpt lat="46.54266" lon="4.49099">
        <ele>324.599</ele>
        <time>2020-06-11T05:57:51Z</time>
      </trkpt>
      <trkpt lat="46.5427" lon="4.49091">
        <ele>325.599</ele>
        <time>2020-06-11T05:57:56Z</time>
      </trkpt>
      <trkpt lat="46.54276" lon="4.49082">
        <ele>325.599</ele>
        <time>2020-06-11T05:58:01Z</time>
      </trkpt>
      <trkpt lat="46.54279" lon="4.49073">
        <ele>325.599</ele>
        <time>2020-06-11T05:58:07Z</time>
      </trkpt>
      <trkpt lat="46.54283" lon="4.49063">
        <ele>327.599</ele>
        <time>2020-06-11T05:58:12Z</time>
      </trkpt>
      <trkpt lat="46.54288" lon="4.49055">
        <ele>327.599</ele>
        <time>2020-06-11T05:58:18Z</time>
      </trkpt>
      <trkpt lat="46.54291" lon="4.49045">
        <ele>327.599</ele>
        <time>2020-06-11T05:58:24Z</time>
      </trkpt>
      <trkpt lat="46.54295" lon="4.49036">
        <ele>328.599</ele>
        <time>2020-06-11T05:58:29Z</time>
      </trkpt>
      <trkpt lat="46.543" lon="4.49029">
        <ele>326.599</ele>
        <time>2020-06-11T05:58:34Z</time>
      </trkpt>
      <trkpt lat="46.54307" lon="4.49021">
        <ele>328.599</ele>
        <time>2020-06-11T05:58:39Z</time>
      </trkpt>
      <trkpt lat="46.5431" lon="4.49012">
        <ele>328.599</ele>
        <time>2020-06-11T05:58:44Z</time>
      </trkpt>
      <trkpt lat="46.54315" lon="4.49004">
        <ele>328.599</ele>
        <time>2020-06-11T05:58:49Z</time>
      </trkpt>
      <trkpt lat="46.54318" lon="4.48995">
        <ele>324.599</ele>
        <time>2020-06-11T05:58:56Z</time>
      </trkpt>
      <trkpt lat="46.54323" lon="4.48985">
        <ele>323.599</ele>
        <time>2020-06-11T05:59:01Z</time>
      </trkpt>
      <trkpt lat="46.54325" lon="4.48976">
        <ele>322.599</ele>
        <time>2020-06-11T05:59:06Z</time>
      </trkpt>
      <trkpt lat="46.5433" lon="4.48969">
        <ele>321.599</ele>
        <time>2020-06-11T05:59:11Z</time>
      </trkpt>
      <trkpt lat="46.54335" lon="4.48962">
        <ele>325.599</ele>
        <time>2020-06-11T05:59:17Z</time>
      </trkpt>
      <trkpt lat="46.5434" lon="4.48951">
        <ele>328.599</ele>
        <time>2020-06-11T05:59:22Z</time>
      </trkpt>
      <trkpt lat="46.54344" lon="4.48943">
        <ele>330.599</ele>
        <time>2020-06-11T05:59:28Z</time>
      </trkpt>
      <trkpt lat="46.54352" lon="4.48936">
        <ele>335.599</ele>
        <time>2020-06-11T05:59:33Z</time>
      </trkpt>
      <trkpt lat="46.54358" lon="4.48926">
        <ele>335.599</ele>
        <time>2020-06-11T05:59:39Z</time>
      </trkpt>
      <trkpt lat="46.54363" lon="4.48918">
        <ele>334.599</ele>
        <time>2020-06-11T05:59:45Z</time>
      </trkpt>
      <trkpt lat="46.54369" lon="4.48913">
        <ele>332.599</ele>
        <time>2020-06-11T05:59:50Z</time>
      </trkpt>
      <trkpt lat="46.54373" lon="4.48905">
        <ele>330.599</ele>
        <time>2020-06-11T05:59:57Z</time>
      </trkpt>
      <trkpt lat="46.54378" lon="4.48897">
        <ele>329.599</ele>
        <time>2020-06-11T06:00:03Z</time>
      </trkpt>
      <trkpt lat="46.54385" lon="4.48892">
        <ele>330.599</ele>
        <time>2020-06-11T06:00:08Z</time>
      </trkpt>
      <trkpt lat="46.54393" lon="4.48888">
        <ele>333.599</ele>
        <time>2020-06-11T06:00:13Z</time>
      </trkpt>
      <trkpt lat="46.54397" lon="4.48879">
        <ele>334.599</ele>
        <time>2020-06-11T06:00:20Z</time>
      </trkpt>
      <trkpt lat="46.54398" lon="4.48869">
        <ele>329.599</ele>
        <time>2020-06-11T06:00:27Z</time>
      </trkpt>
      <trkpt lat="46.54402" lon="4.48862">
        <ele>329.599</ele>
        <time>2020-06-11T06:00:32Z</time>
      </trkpt>
      <trkpt lat="46.54407" lon="4.48856">
        <ele>332.599</ele>
        <time>2020-06-11T06:00:38Z</time>
      </trkpt>
      <trkpt lat="46.54412" lon="4.48847">
        <ele>331.599</ele>
        <time>2020-06-11T06:00:45Z</time>
      </trkpt>
      <trkpt lat="46.5442" lon="4.48842">
        <ele>335.599</ele>
        <time>2020-06-11T06:00:50Z</time>
      </trkpt>
      <trkpt lat="46.54426" lon="4.48836">
        <ele>331.599</ele>
        <time>2020-06-11T06:00:57Z</time>
      </trkpt>
      <trkpt lat="46.54431" lon="4.4883">
        <ele>331.599</ele>
        <time>2020-06-11T06:01:02Z</time>
      </trkpt>
      <trkpt lat="46.54436" lon="4.48824">
        <ele>333.599</ele>
        <time>2020-06-11T06:01:07Z</time>
      </trkpt>
      <trkpt lat="46.54441" lon="4.48817">
        <ele>332.599</ele>
        <time>2020-06-11T06:01:14Z</time>
      </trkpt>
      <trkpt lat="46.54445" lon="4.48809">
        <ele>331.599</ele>
        <time>2020-06-11T06:01:22Z</time>
      </trkpt>
      <trkpt lat="46.54451" lon="4.48801">
        <ele>334.599</ele>
        <time>2020-06-11T06:01:28Z</time>
      </trkpt>
      <trkpt lat="46.54456" lon="4.48794">
        <ele>332.599</ele>
        <time>2020-06-11T06:01:37Z</time>
      </trkpt>
      <trkpt lat="46.54461" lon="4.48788">
        <ele>334.599</ele>
        <time>2020-06-11T06:01:46Z</time>
      </trkpt>
      <trkpt lat="46.54465" lon="4.48779">
        <ele>333.599</ele>
        <time>2020-06-11T06:01:53Z</time>
      </trkpt>
      <trkpt lat="46.54468" lon="4.48771">
        <ele>337.599</ele>
        <time>2020-06-11T06:01:58Z</time>
      </trkpt>
      <trkpt lat="46.54475" lon="4.48768">
        <ele>339.599</ele>
        <time>2020-06-11T06:02:04Z</time>
      </trkpt>
      <trkpt lat="46.5448" lon="4.48762">
        <ele>341.599</ele>
        <time>2020-06-11T06:02:09Z</time>
      </trkpt>
      <trkpt lat="46.54486" lon="4.48757">
        <ele>344.599</ele>
        <time>2020-06-11T06:02:17Z</time>
      </trkpt>
      <trkpt lat="46.54492" lon="4.48753">
        <ele>343.599</ele>
        <time>2020-06-11T06:02:31Z</time>
      </trkpt>
      <trkpt lat="46.54498" lon="4.48749">
        <ele>343.599</ele>
        <time>2020-06-11T06:02:36Z</time>
      </trkpt>
      <trkpt lat="46.54504" lon="4.48743">
        <ele>343.599</ele>
        <time>2020-06-11T06:02:43Z</time>
      </trkpt>
      <trkpt lat="46.5451" lon="4.48742">
        <ele>343.599</ele>
        <time>2020-06-11T06:02:49Z</time>
      </trkpt>
      <trkpt lat="46.54519" lon="4.48736">
        <ele>345.599</ele>
        <time>2020-06-11T06:02:55Z</time>
      </trkpt>
      <trkpt lat="46.54524" lon="4.48745">
        <ele>343.599</ele>
        <time>2020-06-11T06:03:01Z</time>
      </trkpt>
      <trkpt lat="46.5453" lon="4.48741">
        <ele>349.599</ele>
        <time>2020-06-11T06:03:06Z</time>
      </trkpt>
      <trkpt lat="46.54536" lon="4.48738">
        <ele>349.599</ele>
        <time>2020-06-11T06:03:14Z</time>
      </trkpt>
      <trkpt lat="46.54543" lon="4.48734">
        <ele>349.599</ele>
        <time>2020-06-11T06:03:19Z</time>
      </trkpt>
      <trkpt lat="46.54547" lon="4.48725">
        <ele>348.599</ele>
        <time>2020-06-11T06:03:24Z</time>
      </trkpt>
      <trkpt lat="46.54551" lon="4.48716">
        <ele>349.599</ele>
        <time>2020-06-11T06:03:32Z</time>
      </trkpt>
      <trkpt lat="46.54554" lon="4.48707">
        <ele>352.599</ele>
        <time>2020-06-11T06:03:39Z</time>
      </trkpt>
      <trkpt lat="46.54557" lon="4.48698">
        <ele>354.599</ele>
        <time>2020-06-11T06:03:45Z</time>
      </trkpt>
      <trkpt lat="46.54559" lon="4.48689">
        <ele>358.599</ele>
        <time>2020-06-11T06:03:52Z</time>
      </trkpt>
      <trkpt lat="46.54561" lon="4.48678">
        <ele>363.599</ele>
        <time>2020-06-11T06:03:59Z</time>
      </trkpt>
      <trkpt lat="46.54564" lon="4.48669">
        <ele>366.599</ele>
        <time>2020-06-11T06:04:04Z</time>
      </trkpt>
      <trkpt lat="46.54567" lon="4.4866">
        <ele>366.599</ele>
        <time>2020-06-11T06:04:10Z</time>
      </trkpt>
      <trkpt lat="46.54572" lon="4.48652">
        <ele>368.599</ele>
        <time>2020-06-11T06:04:15Z</time>
      </trkpt>
      <trkpt lat="46.54574" lon="4.48642">
        <ele>368.599</ele>
        <time>2020-06-11T06:04:20Z</time>
      </trkpt>
      <trkpt lat="46.54572" lon="4.48633">
        <ele>371.599</ele>
        <time>2020-06-11T06:04:30Z</time>
      </trkpt>
      <trkpt lat="46.54574" lon="4.48623">
        <ele>371.599</ele>
        <time>2020-06-11T06:04:38Z</time>
      </trkpt>
      <trkpt lat="46.5458" lon="4.48616">
        <ele>375.599</ele>
        <time>2020-06-11T06:04:45Z</time>
      </trkpt>
      <trkpt lat="46.54581" lon="4.48607">
        <ele>377.599</ele>
        <time>2020-06-11T06:04:55Z</time>
      </trkpt>
      <trkpt lat="46.54589" lon="4.48602">
        <ele>379.599</ele>
        <time>2020-06-11T06:05:00Z</time>
      </trkpt>
      <trkpt lat="46.54594" lon="4.48596">
        <ele>378.599</ele>
        <time>2020-06-11T06:05:15Z</time>
      </trkpt>
      <trkpt lat="46.546" lon="4.48589">
        <ele>377.599</ele>
        <time>2020-06-11T06:05:24Z</time>
      </trkpt>
      <trkpt lat="46.54604" lon="4.48579">
        <ele>382.599</ele>
        <time>2020-06-11T06:05:30Z</time>
      </trkpt>
      <trkpt lat="46.54608" lon="4.4857">
        <ele>384.599</ele>
        <time>2020-06-11T06:05:42Z</time>
      </trkpt>
      <trkpt lat="46.54613" lon="4.48564">
        <ele>385.599</ele>
        <time>2020-06-11T06:05:47Z</time>
      </trkpt>
      <trkpt lat="46.54618" lon="4.48555">
        <ele>384.599</ele>
        <time>2020-06-11T06:05:55Z</time>
      </trkpt>
      <trkpt lat="46.54622" lon="4.48548">
        <ele>382.599</ele>
        <time>2020-06-11T06:06:00Z</time>
      </trkpt>
      <trkpt lat="46.54627" lon="4.48541">
        <ele>381.599</ele>
        <time>2020-06-11T06:06:09Z</time>
      </trkpt>
      <trkpt lat="46.54633" lon="4.48537">
        <ele>381.599</ele>
        <time>2020-06-11T06:06:15Z</time>
      </trkpt>
      <trkpt lat="46.54639" lon="4.48529">
        <ele>381.599</ele>
        <time>2020-06-11T06:06:22Z</time>
      </trkpt>
      <trkpt lat="46.54644" lon="4.48523">
        <ele>384.599</ele>
        <time>2020-06-11T06:06:28Z</time>
      </trkpt>
      <trkpt lat="46.5465" lon="4.48518">
        <ele>386.599</ele>
        <time>2020-06-11T06:06:35Z</time>
      </trkpt>
      <trkpt lat="46.54655" lon="4.48511">
        <ele>382.599</ele>
        <time>2020-06-11T06:06:45Z</time>
      </trkpt>
      <trkpt lat="46.54661" lon="4.48508">
        <ele>378.599</ele>
        <time>2020-06-11T06:06:52Z</time>
      </trkpt>
      <trkpt lat="46.54665" lon="4.48499">
        <ele>377.599</ele>
        <time>2020-06-11T06:07:06Z</time>
      </trkpt>
      <trkpt lat="46.54671" lon="4.48493">
        <ele>380.599</ele>
        <time>2020-06-11T06:07:12Z</time>
      </trkpt>
      <trkpt lat="46.54676" lon="4.48485">
        <ele>379.599</ele>
        <time>2020-06-11T06:07:22Z</time>
      </trkpt>
      <trkpt lat="46.54681" lon="4.48478">
        <ele>379.599</ele>
        <time>2020-06-11T06:07:27Z</time>
      </trkpt>
      <trkpt lat="46.54688" lon="4.48468">
        <ele>383.599</ele>
        <time>2020-06-11T06:07:47Z</time>
      </trkpt>
      <trkpt lat="46.54694" lon="4.48456">
        <ele>385.599</ele>
        <time>2020-06-11T06:07:52Z</time>
      </trkpt>
      <trkpt lat="46.54699" lon="4.48448">
        <ele>389.599</ele>
        <time>2020-06-11T06:07:58Z</time>
      </trkpt>
      <trkpt lat="46.54701" lon="4.48438">
        <ele>390.599</ele>
        <time>2020-06-11T06:08:04Z</time>
      </trkpt>
      <trkpt lat="46.54706" lon="4.4843">
        <ele>389.599</ele>
        <time>2020-06-11T06:08:17Z</time>
      </trkpt>
      <trkpt lat="46.54709" lon="4.48419">
        <ele>392.599</ele>
        <time>2020-06-11T06:08:22Z</time>
      </trkpt>
      <trkpt lat="46.54713" lon="4.48411">
        <ele>394.599</ele>
        <time>2020-06-11T06:08:27Z</time>
      </trkpt>
      <trkpt lat="46.54718" lon="4.48404">
        <ele>397.599</ele>
        <time>2020-06-11T06:08:33Z</time>
      </trkpt>
      <trkpt lat="46.54723" lon="4.48396">
        <ele>403.599</ele>
        <time>2020-06-11T06:08:45Z</time>
      </trkpt>
      <trkpt lat="46.54727" lon="4.48388">
        <ele>403.599</ele>
        <time>2020-06-11T06:08:53Z</time>
      </trkpt>
      <trkpt lat="46.54728" lon="4.48377">
        <ele>401.599</ele>
        <time>2020-06-11T06:09:07Z</time>
      </trkpt>
      <trkpt lat="46.5473" lon="4.48367">
        <ele>404.599</ele>
        <time>2020-06-11T06:09:12Z</time>
      </trkpt>
      <trkpt lat="46.54732" lon="4.48357">
        <ele>406.599</ele>
        <time>2020-06-11T06:09:19Z</time>
      </trkpt>
      <trkpt lat="46.54737" lon="4.48349">
        <ele>408.599</ele>
        <time>2020-06-11T06:09:24Z</time>
      </trkpt>
      <trkpt lat="46.54741" lon="4.48341">
        <ele>409.599</ele>
        <time>2020-06-11T06:09:30Z</time>
      </trkpt>
      <trkpt lat="46.54743" lon="4.48331">
        <ele>410.599</ele>
        <time>2020-06-11T06:09:38Z</time>
      </trkpt>
      <trkpt lat="46.54748" lon="4.48323">
        <ele>411.599</ele>
        <time>2020-06-11T06:09:45Z</time>
      </trkpt>
      <trkpt lat="46.54754" lon="4.48319">
        <ele>411.599</ele>
        <time>2020-06-11T06:09:51Z</time>
      </trkpt>
      <trkpt lat="46.5476" lon="4.48313">
        <ele>410.599</ele>
        <time>2020-06-11T06:09:58Z</time>
      </trkpt>
      <trkpt lat="46.54765" lon="4.48308">
        <ele>410.599</ele>
        <time>2020-06-11T06:10:05Z</time>
      </trkpt>
      <trkpt lat="46.54772" lon="4.48306">
        <ele>409.599</ele>
        <time>2020-06-11T06:10:12Z</time>
      </trkpt>
      <trkpt lat="46.54779" lon="4.48306">
        <ele>413.599</ele>
        <time>2020-06-11T06:10:24Z</time>
      </trkpt>
      <trkpt lat="46.54791" lon="4.48306">
        <ele>415.599</ele>
        <time>2020-06-11T06:10:29Z</time>
      </trkpt>
      <trkpt lat="46.54798" lon="4.48302">
        <ele>412.599</ele>
        <time>2020-06-11T06:10:41Z</time>
      </trkpt>
      <trkpt lat="46.54805" lon="4.48305">
        <ele>413.599</ele>
        <time>2020-06-11T06:10:50Z</time>
      </trkpt>
      <trkpt lat="46.54809" lon="4.48312">
        <ele>411.6</ele>
        <time>2020-06-11T06:10:57Z</time>
      </trkpt>
      <trkpt lat="46.54815" lon="4.48318">
        <ele>416.6</ele>
        <time>2020-06-11T06:11:04Z</time>
      </trkpt>
      <trkpt lat="46.5482" lon="4.48325">
        <ele>417.6</ele>
        <time>2020-06-11T06:11:11Z</time>
      </trkpt>
      <trkpt lat="46.54825" lon="4.48334">
        <ele>416.6</ele>
        <time>2020-06-11T06:11:17Z</time>
      </trkpt>
      <trkpt lat="46.54832" lon="4.48336">
        <ele>417.6</ele>
        <time>2020-06-11T06:11:33Z</time>
      </trkpt>
      <trkpt lat="46.54838" lon="4.48337">
        <ele>417.6</ele>
        <time>2020-06-11T06:11:41Z</time>
      </trkpt>
      <trkpt lat="46.54846" lon="4.48341">
        <ele>417.6</ele>
        <time>2020-06-11T06:11:47Z</time>
      </trkpt>
      <trkpt lat="46.54853" lon="4.48338">
        <ele>417.6</ele>
        <time>2020-06-11T06:11:54Z</time>
      </trkpt>
      <trkpt lat="46.54858" lon="4.48333">
        <ele>417.6</ele>
        <time>2020-06-11T06:12:01Z</time>
      </trkpt>
      <trkpt lat="46.5486" lon="4.48323">
        <ele>420.6</ele>
        <time>2020-06-11T06:12:16Z</time>
      </trkpt>
      <trkpt lat="46.54864" lon="4.48315">
        <ele>425.6</ele>
        <time>2020-06-11T06:12:33Z</time>
      </trkpt>
      <trkpt lat="46.54866" lon="4.48305">
        <ele>422.6</ele>
        <time>2020-06-11T06:12:40Z</time>
      </trkpt>
      <trkpt lat="46.5487" lon="4.48297">
        <ele>422.6</ele>
        <time>2020-06-11T06:12:47Z</time>
      </trkpt>
      <trkpt lat="46.54874" lon="4.48289">
        <ele>424.6</ele>
        <time>2020-06-11T06:12:54Z</time>
      </trkpt>
      <trkpt lat="46.5488" lon="4.48286">
        <ele>424.6</ele>
        <time>2020-06-11T06:13:00Z</time>
      </trkpt>
      <trkpt lat="46.54886" lon="4.4828">
        <ele>427.6</ele>
        <time>2020-06-11T06:13:05Z</time>
      </trkpt>
      <trkpt lat="46.54892" lon="4.48276">
        <ele>433.6</ele>
        <time>2020-06-11T06:13:17Z</time>
      </trkpt>
      <trkpt lat="46.54898" lon="4.4827">
        <ele>437.6</ele>
        <time>2020-06-11T06:13:28Z</time>
      </trkpt>
      <trkpt lat="46.54904" lon="4.48265">
        <ele>437.6</ele>
        <time>2020-06-11T06:13:40Z</time>
      </trkpt>
      <trkpt lat="46.54909" lon="4.48259">
        <ele>437.6</ele>
        <time>2020-06-11T06:13:50Z</time>
      </trkpt>
      <trkpt lat="46.54916" lon="4.48253">
        <ele>437.6</ele>
        <time>2020-06-11T06:13:55Z</time>
      </trkpt>
      <trkpt lat="46.54919" lon="4.48244">
        <ele>438.6</ele>
        <time>2020-06-11T06:14:08Z</time>
      </trkpt>
      <trkpt lat="46.54913" lon="4.48238">
        <ele>436.6</ele>
        <time>2020-06-11T06:14:19Z</time>
      </trkpt>
      <trkpt lat="46.54907" lon="4.48233">
        <ele>439.6</ele>
        <time>2020-06-11T06:14:25Z</time>
      </trkpt>
      <trkpt lat="46.54903" lon="4.48226">
        <ele>440.6</ele>
        <time>2020-06-11T06:14:31Z</time>
      </trkpt>
      <trkpt lat="46.54898" lon="4.48218">
        <ele>438.6</ele>
        <time>2020-06-11T06:14:36Z</time>
      </trkpt>
      <trkpt lat="46.54897" lon="4.48208">
        <ele>435.6</ele>
        <time>2020-06-11T06:14:41Z</time>
      </trkpt>
      <trkpt lat="46.54893" lon="4.482">
        <ele>435.6</ele>
        <time>2020-06-11T06:14:47Z</time>
      </trkpt>
      <trkpt lat="46.54888" lon="4.48193">
        <ele>434.6</ele>
        <time>2020-06-11T06:14:53Z</time>
      </trkpt>
      <trkpt lat="46.54881" lon="4.48185">
        <ele>434.6</ele>
        <time>2020-06-11T06:15:02Z</time>
      </trkpt>
      <trkpt lat="46.54876" lon="4.48176">
        <ele>435.6</ele>
        <time>2020-06-11T06:15:12Z</time>
      </trkpt>
      <trkpt lat="46.54871" lon="4.48169">
        <ele>436.6</ele>
        <time>2020-06-11T06:15:18Z</time>
      </trkpt>
      <trkpt lat="46.54867" lon="4.48161">
        <ele>435.6</ele>
        <time>2020-06-11T06:15:24Z</time>
      </trkpt>
      <trkpt lat="46.54862" lon="4.48154">
        <ele>434.6</ele>
        <time>2020-06-11T06:15:30Z</time>
      </trkpt>
      <trkpt lat="46.54857" lon="4.48144">
        <ele>434.6</ele>
        <time>2020-06-11T06:15:35Z</time>
      </trkpt>
      <trkpt lat="46.54851" lon="4.48137">
        <ele>437.599</ele>
        <time>2020-06-11T06:15:40Z</time>
      </trkpt>
      <trkpt lat="46.54846" lon="4.48129">
        <ele>442.599</ele>
        <time>2020-06-11T06:15:50Z</time>
      </trkpt>
      <trkpt lat="46.54841" lon="4.48121">
        <ele>442.599</ele>
        <time>2020-06-11T06:15:55Z</time>
      </trkpt>
      <trkpt lat="46.54837" lon="4.48113">
        <ele>445.599</ele>
        <time>2020-06-11T06:16:01Z</time>
      </trkpt>
      <trkpt lat="46.54833" lon="4.48106">
        <ele>445.599</ele>
        <time>2020-06-11T06:16:06Z</time>
      </trkpt>
      <trkpt lat="46.54826" lon="4.48101">
        <ele>442.599</ele>
        <time>2020-06-11T06:16:14Z</time>
      </trkpt>
      <trkpt lat="46.54821" lon="4.48095">
        <ele>438.599</ele>
        <time>2020-06-11T06:16:20Z</time>
      </trkpt>
      <trkpt lat="46.54817" lon="4.48086">
        <ele>440.599</ele>
        <time>2020-06-11T06:16:25Z</time>
      </trkpt>
      <trkpt lat="46.54811" lon="4.48083">
        <ele>439.599</ele>
        <time>2020-06-11T06:16:32Z</time>
      </trkpt>
      <trkpt lat="46.54805" lon="4.48077">
        <ele>440.599</ele>
        <time>2020-06-11T06:16:37Z</time>
      </trkpt>
      <trkpt lat="46.54798" lon="4.48073">
        <ele>447.599</ele>
        <time>2020-06-11T06:16:43Z</time>
      </trkpt>
      <trkpt lat="46.54795" lon="4.48064">
        <ele>443.599</ele>
        <time>2020-06-11T06:16:52Z</time>
      </trkpt>
      <trkpt lat="46.54793" lon="4.48054">
        <ele>442.599</ele>
        <time>2020-06-11T06:16:57Z</time>
      </trkpt>
      <trkpt lat="46.54788" lon="4.48047">
        <ele>443.599</ele>
        <time>2020-06-11T06:17:04Z</time>
      </trkpt>
      <trkpt lat="46.54784" lon="4.4804">
        <ele>448.599</ele>
        <time>2020-06-11T06:17:11Z</time>
      </trkpt>
      <trkpt lat="46.54784" lon="4.48039">
        <ele>449.599</ele>
        <time>2020-06-11T06:17:27Z</time>
      </trkpt>
      <trkpt lat="46.54784" lon="4.48029">
        <ele>447.599</ele>
        <time>2020-06-11T06:24:05Z</time>
      </trkpt>
      <trkpt lat="46.54784" lon="4.48019">
        <ele>448.599</ele>
        <time>2020-06-11T06:24:11Z</time>
      </trkpt>
      <trkpt lat="46.548" lon="4.48016">
        <ele>449.599</ele>
        <time>2020-06-11T06:24:16Z</time>
      </trkpt>
      <trkpt lat="46.5481" lon="4.48012">
        <ele>448.599</ele>
        <time>2020-06-11T06:24:21Z</time>
      </trkpt>
      <trkpt lat="46.54803" lon="4.47999">
        <ele>448.599</ele>
        <time>2020-06-11T06:24:26Z</time>
      </trkpt>
      <trkpt lat="46.54802" lon="4.47987">
        <ele>448.599</ele>
        <time>2020-06-11T06:24:31Z</time>
      </trkpt>
      <trkpt lat="46.54796" lon="4.4798">
        <ele>447.599</ele>
        <time>2020-06-11T06:24:39Z</time>
      </trkpt>
      <trkpt lat="46.54793" lon="4.4797">
        <ele>449.599</ele>
        <time>2020-06-11T06:24:47Z</time>
      </trkpt>
      <trkpt lat="46.54792" lon="4.47961">
        <ele>447.599</ele>
        <time>2020-06-11T06:24:54Z</time>
      </trkpt>
      <trkpt lat="46.54789" lon="4.4795">
        <ele>451.599</ele>
        <time>2020-06-11T06:25:00Z</time>
      </trkpt>
      <trkpt lat="46.54792" lon="4.47939">
        <ele>453.599</ele>
        <time>2020-06-11T06:25:06Z</time>
      </trkpt>
      <trkpt lat="46.54794" lon="4.4793">
        <ele>454.599</ele>
        <time>2020-06-11T06:25:15Z</time>
      </trkpt>
      <trkpt lat="46.54793" lon="4.47917">
        <ele>455.599</ele>
        <time>2020-06-11T06:25:20Z</time>
      </trkpt>
      <trkpt lat="46.54792" lon="4.47905">
        <ele>456.599</ele>
        <time>2020-06-11T06:25:27Z</time>
      </trkpt>
      <trkpt lat="46.54791" lon="4.47894">
        <ele>455.599</ele>
        <time>2020-06-11T06:25:33Z</time>
      </trkpt>
      <trkpt lat="46.54792" lon="4.47885">
        <ele>458.599</ele>
        <time>2020-06-11T06:25:40Z</time>
      </trkpt>
      <trkpt lat="46.54795" lon="4.47875">
        <ele>461.599</ele>
        <time>2020-06-11T06:25:47Z</time>
      </trkpt>
      <trkpt lat="46.54795" lon="4.47865">
        <ele>462.599</ele>
        <time>2020-06-11T06:25:52Z</time>
      </trkpt>
      <trkpt lat="46.54799" lon="4.47854">
        <ele>464.599</ele>
        <time>2020-06-11T06:25:58Z</time>
      </trkpt>
      <trkpt lat="46.54802" lon="4.47844">
        <ele>463.599</ele>
        <time>2020-06-11T06:26:06Z</time>
      </trkpt>
      <trkpt lat="46.54804" lon="4.47834">
        <ele>462.599</ele>
        <time>2020-06-11T06:26:12Z</time>
      </trkpt>
      <trkpt lat="46.54808" lon="4.47827">
        <ele>462.599</ele>
        <time>2020-06-11T06:26:19Z</time>
      </trkpt>
      <trkpt lat="46.54812" lon="4.47819">
        <ele>463.599</ele>
        <time>2020-06-11T06:26:24Z</time>
      </trkpt>
      <trkpt lat="46.54818" lon="4.47814">
        <ele>467.599</ele>
        <time>2020-06-11T06:26:30Z</time>
      </trkpt>
      <trkpt lat="46.54821" lon="4.47805">
        <ele>466.599</ele>
        <time>2020-06-11T06:26:36Z</time>
      </trkpt>
      <trkpt lat="46.54827" lon="4.47797">
        <ele>468.599</ele>
        <time>2020-06-11T06:26:44Z</time>
      </trkpt>
      <trkpt lat="46.5483" lon="4.47789">
        <ele>468.599</ele>
        <time>2020-06-11T06:26:49Z</time>
      </trkpt>
      <trkpt lat="46.54834" lon="4.4778">
        <ele>468.599</ele>
        <time>2020-06-11T06:26:57Z</time>
      </trkpt>
      <trkpt lat="46.54838" lon="4.47771">
        <ele>469.599</ele>
        <time>2020-06-11T06:27:03Z</time>
      </trkpt>
      <trkpt lat="46.54841" lon="4.47761">
        <ele>471.599</ele>
        <time>2020-06-11T06:27:09Z</time>
      </trkpt>
      <trkpt lat="46.54847" lon="4.47755">
        <ele>471.599</ele>
        <time>2020-06-11T06:27:17Z</time>
      </trkpt>
      <trkpt lat="46.54854" lon="4.47748">
        <ele>473.599</ele>
        <time>2020-06-11T06:27:24Z</time>
      </trkpt>
      <trkpt lat="46.54861" lon="4.47742">
        <ele>477.599</ele>
        <time>2020-06-11T06:27:29Z</time>
      </trkpt>
      <trkpt lat="46.54868" lon="4.47744">
        <ele>477.599</ele>
        <time>2020-06-11T06:27:35Z</time>
      </trkpt>
      <trkpt lat="46.54873" lon="4.47751">
        <ele>478.599</ele>
        <time>2020-06-11T06:27:42Z</time>
      </trkpt>
      <trkpt lat="46.54873" lon="4.47761">
        <ele>477.599</ele>
        <time>2020-06-11T06:27:49Z</time>
      </trkpt>
      <trkpt lat="46.54877" lon="4.4777">
        <ele>474.599</ele>
        <time>2020-06-11T06:27:56Z</time>
      </trkpt>
      <trkpt lat="46.54875" lon="4.47785">
        <ele>479.599</ele>
        <time>2020-06-11T06:28:02Z</time>
      </trkpt>
      <trkpt lat="46.54878" lon="4.47796">
        <ele>478.599</ele>
        <time>2020-06-11T06:28:07Z</time>
      </trkpt>
      <trkpt lat="46.5488" lon="4.47805">
        <ele>481.599</ele>
        <time>2020-06-11T06:28:15Z</time>
      </trkpt>
      <trkpt lat="46.5488" lon="4.47817">
        <ele>483.599</ele>
        <time>2020-06-11T06:28:20Z</time>
      </trkpt>
      <trkpt lat="46.54888" lon="4.47819">
        <ele>484.599</ele>
        <time>2020-06-11T06:28:25Z</time>
      </trkpt>
      <trkpt lat="46.54893" lon="4.47825">
        <ele>483.599</ele>
        <time>2020-06-11T06:28:34Z</time>
      </trkpt>
      <trkpt lat="46.54897" lon="4.47834">
        <ele>481.599</ele>
        <time>2020-06-11T06:28:40Z</time>
      </trkpt>
      <trkpt lat="46.54904" lon="4.47837">
        <ele>481.599</ele>
        <time>2020-06-11T06:28:48Z</time>
      </trkpt>
      <trkpt lat="46.5491" lon="4.47842">
        <ele>483.599</ele>
        <time>2020-06-11T06:28:55Z</time>
      </trkpt>
      <trkpt lat="46.54916" lon="4.47845">
        <ele>482.599</ele>
        <time>2020-06-11T06:29:01Z</time>
      </trkpt>
      <trkpt lat="46.54923" lon="4.47848">
        <ele>480.599</ele>
        <time>2020-06-11T06:29:10Z</time>
      </trkpt>
      <trkpt lat="46.54928" lon="4.47854">
        <ele>478.599</ele>
        <time>2020-06-11T06:29:18Z</time>
      </trkpt>
      <trkpt lat="46.54936" lon="4.47857">
        <ele>483.6</ele>
        <time>2020-06-11T06:29:23Z</time>
      </trkpt>
      <trkpt lat="46.54945" lon="4.4786">
        <ele>487.6</ele>
        <time>2020-06-11T06:29:28Z</time>
      </trkpt>
      <trkpt lat="46.54953" lon="4.47859">
        <ele>491.6</ele>
        <time>2020-06-11T06:29:33Z</time>
      </trkpt>
      <trkpt lat="46.54959" lon="4.47857">
        <ele>490.6</ele>
        <time>2020-06-11T06:29:40Z</time>
      </trkpt>
      <trkpt lat="46.54967" lon="4.47859">
        <ele>492.6</ele>
        <time>2020-06-11T06:29:45Z</time>
      </trkpt>
      <trkpt lat="46.54974" lon="4.47857">
        <ele>493.6</ele>
        <time>2020-06-11T06:29:50Z</time>
      </trkpt>
      <trkpt lat="46.5498" lon="4.47854">
        <ele>490.6</ele>
        <time>2020-06-11T06:29:56Z</time>
      </trkpt>
      <trkpt lat="46.54987" lon="4.47855">
        <ele>487.6</ele>
        <time>2020-06-11T06:30:04Z</time>
      </trkpt>
      <trkpt lat="46.54994" lon="4.47857">
        <ele>485.6</ele>
        <time>2020-06-11T06:33:41Z</time>
      </trkpt>
      <trkpt lat="46.55001" lon="4.47861">
        <ele>485.6</ele>
        <time>2020-06-11T06:33:48Z</time>
      </trkpt>
      <trkpt lat="46.55007" lon="4.47857">
        <ele>484.6</ele>
        <time>2020-06-11T06:34:13Z</time>
      </trkpt>
      <trkpt lat="46.55013" lon="4.4786">
        <ele>485.6</ele>
        <time>2020-06-11T06:36:03Z</time>
      </trkpt>
      <trkpt lat="46.55021" lon="4.47863">
        <ele>485.6</ele>
        <time>2020-06-11T06:36:08Z</time>
      </trkpt>
      <trkpt lat="46.55028" lon="4.47866">
        <ele>487.6</ele>
        <time>2020-06-11T06:36:14Z</time>
      </trkpt>
      <trkpt lat="46.55034" lon="4.47871">
        <ele>490.6</ele>
        <time>2020-06-11T06:36:19Z</time>
      </trkpt>
      <trkpt lat="46.55041" lon="4.47871">
        <ele>486.6</ele>
        <time>2020-06-11T06:36:25Z</time>
      </trkpt>
      <trkpt lat="46.55048" lon="4.47875">
        <ele>487.6</ele>
        <time>2020-06-11T06:36:30Z</time>
      </trkpt>
      <trkpt lat="46.55055" lon="4.47877">
        <ele>487.6</ele>
        <time>2020-06-11T06:36:35Z</time>
      </trkpt>
      <trkpt lat="46.55062" lon="4.47883">
        <ele>489.6</ele>
        <time>2020-06-11T06:36:40Z</time>
      </trkpt>
      <trkpt lat="46.55069" lon="4.47881">
        <ele>488.6</ele>
        <time>2020-06-11T06:36:48Z</time>
      </trkpt>
      <trkpt lat="46.55078" lon="4.47879">
        <ele>489.6</ele>
        <time>2020-06-11T06:36:53Z</time>
      </trkpt>
      <trkpt lat="46.55085" lon="4.47882">
        <ele>490.6</ele>
        <time>2020-06-11T06:36:59Z</time>
      </trkpt>
      <trkpt lat="46.55092" lon="4.47885">
        <ele>485.6</ele>
        <time>2020-06-11T06:37:06Z</time>
      </trkpt>
      <trkpt lat="46.55098" lon="4.47887">
        <ele>484.6</ele>
        <time>2020-06-11T06:37:12Z</time>
      </trkpt>
      <trkpt lat="46.55105" lon="4.4789">
        <ele>484.6</ele>
        <time>2020-06-11T06:37:19Z</time>
      </trkpt>
      <trkpt lat="46.55112" lon="4.47892">
        <ele>481.6</ele>
        <time>2020-06-11T06:37:26Z</time>
      </trkpt>
      <trkpt lat="46.55119" lon="4.47893">
        <ele>479.6</ele>
        <time>2020-06-11T06:37:32Z</time>
      </trkpt>
      <trkpt lat="46.55126" lon="4.47895">
        <ele>479.6</ele>
        <time>2020-06-11T06:37:40Z</time>
      </trkpt>
      <trkpt lat="46.55133" lon="4.47895">
        <ele>477.6</ele>
        <time>2020-06-11T06:37:46Z</time>
      </trkpt>
      <trkpt lat="46.55141" lon="4.47895">
        <ele>473.6</ele>
        <time>2020-06-11T06:37:53Z</time>
      </trkpt>
      <trkpt lat="46.55147" lon="4.47897">
        <ele>472.6</ele>
        <time>2020-06-11T06:37:59Z</time>
      </trkpt>
      <trkpt lat="46.55156" lon="4.47897">
        <ele>471.6</ele>
        <time>2020-06-11T06:38:04Z</time>
      </trkpt>
      <trkpt lat="46.55163" lon="4.47898">
        <ele>473.6</ele>
        <time>2020-06-11T06:38:10Z</time>
      </trkpt>
      <trkpt lat="46.5517" lon="4.479">
        <ele>469.6</ele>
        <time>2020-06-11T06:38:15Z</time>
      </trkpt>
      <trkpt lat="46.55177" lon="4.47898">
        <ele>472.6</ele>
        <time>2020-06-11T06:38:20Z</time>
      </trkpt>
      <trkpt lat="46.55184" lon="4.47898">
        <ele>473.6</ele>
        <time>2020-06-11T06:38:25Z</time>
      </trkpt>
      <trkpt lat="46.55191" lon="4.47898">
        <ele>472.6</ele>
        <time>2020-06-11T06:38:31Z</time>
      </trkpt>
      <trkpt lat="46.55199" lon="4.479">
        <ele>471.6</ele>
        <time>2020-06-11T06:38:37Z</time>
      </trkpt>
      <trkpt lat="46.55206" lon="4.47901">
        <ele>472.6</ele>
        <time>2020-06-11T06:38:42Z</time>
      </trkpt>
      <trkpt lat="46.55213" lon="4.47903">
        <ele>471.6</ele>
        <time>2020-06-11T06:38:48Z</time>
      </trkpt>
      <trkpt lat="46.5522" lon="4.47902">
        <ele>471.6</ele>
        <time>2020-06-11T06:38:54Z</time>
      </trkpt>
      <trkpt lat="46.55227" lon="4.47902">
        <ele>473.6</ele>
        <time>2020-06-11T06:38:59Z</time>
      </trkpt>
      <trkpt lat="46.55234" lon="4.47903">
        <ele>472.6</ele>
        <time>2020-06-11T06:39:05Z</time>
      </trkpt>
      <trkpt lat="46.55241" lon="4.47904">
        <ele>470.6</ele>
        <time>2020-06-11T06:39:11Z</time>
      </trkpt>
      <trkpt lat="46.55248" lon="4.47907">
        <ele>469.6</ele>
        <time>2020-06-11T06:39:16Z</time>
      </trkpt>
      <trkpt lat="46.55255" lon="4.47906">
        <ele>467.6</ele>
        <time>2020-06-11T06:39:21Z</time>
      </trkpt>
      <trkpt lat="46.55263" lon="4.47908">
        <ele>468.6</ele>
        <time>2020-06-11T06:39:27Z</time>
      </trkpt>
      <trkpt lat="46.5527" lon="4.47911">
        <ele>469.6</ele>
        <time>2020-06-11T06:39:33Z</time>
      </trkpt>
      <trkpt lat="46.55278" lon="4.47912">
        <ele>466.601</ele>
        <time>2020-06-11T06:39:38Z</time>
      </trkpt>
      <trkpt lat="46.55286" lon="4.47909">
        <ele>468.601</ele>
        <time>2020-06-11T06:39:43Z</time>
      </trkpt>
      <trkpt lat="46.55293" lon="4.47911">
        <ele>466.601</ele>
        <time>2020-06-11T06:39:48Z</time>
      </trkpt>
      <trkpt lat="46.553" lon="4.47912">
        <ele>468.601</ele>
        <time>2020-06-11T06:39:53Z</time>
      </trkpt>
      <trkpt lat="46.55307" lon="4.47915">
        <ele>471.601</ele>
        <time>2020-06-11T06:39:58Z</time>
      </trkpt>
      <trkpt lat="46.55314" lon="4.47914">
        <ele>474.601</ele>
        <time>2020-06-11T06:40:04Z</time>
      </trkpt>
      <trkpt lat="46.55321" lon="4.47919">
        <ele>474.601</ele>
        <time>2020-06-11T06:40:10Z</time>
      </trkpt>
      <trkpt lat="46.55327" lon="4.47923">
        <ele>476.601</ele>
        <time>2020-06-11T06:40:16Z</time>
      </trkpt>
      <trkpt lat="46.55332" lon="4.47929">
        <ele>474.601</ele>
        <time>2020-06-11T06:40:23Z</time>
      </trkpt>
      <trkpt lat="46.55338" lon="4.47936">
        <ele>475.601</ele>
        <time>2020-06-11T06:40:30Z</time>
      </trkpt>
      <trkpt lat="46.5534" lon="4.47946">
        <ele>471.601</ele>
        <time>2020-06-11T06:40:36Z</time>
      </trkpt>
      <trkpt lat="46.55343" lon="4.47955">
        <ele>469.601</ele>
        <time>2020-06-11T06:40:41Z</time>
      </trkpt>
      <trkpt lat="46.55349" lon="4.47967">
        <ele>469.601</ele>
        <time>2020-06-11T06:40:46Z</time>
      </trkpt>
      <trkpt lat="46.55354" lon="4.47974">
        <ele>468.601</ele>
        <time>2020-06-11T06:40:52Z</time>
      </trkpt>
      <trkpt lat="46.55359" lon="4.47983">
        <ele>469.601</ele>
        <time>2020-06-11T06:40:57Z</time>
      </trkpt>
      <trkpt lat="46.55364" lon="4.4799">
        <ele>467.601</ele>
        <time>2020-06-11T06:41:02Z</time>
      </trkpt>
      <trkpt lat="46.55368" lon="4.47998">
        <ele>466.601</ele>
        <time>2020-06-11T06:41:07Z</time>
      </trkpt>
      <trkpt lat="46.55374" lon="4.48006">
        <ele>462.601</ele>
        <time>2020-06-11T06:41:14Z</time>
      </trkpt>
      <trkpt lat="46.55384" lon="4.48011">
        <ele>463.601</ele>
        <time>2020-06-11T06:41:19Z</time>
      </trkpt>
      <trkpt lat="46.5539" lon="4.48019">
        <ele>466.601</ele>
        <time>2020-06-11T06:41:24Z</time>
      </trkpt>
      <trkpt lat="46.55393" lon="4.48033">
        <ele>464.601</ele>
        <time>2020-06-11T06:41:29Z</time>
      </trkpt>
      <trkpt lat="46.55399" lon="4.48041">
        <ele>463.601</ele>
        <time>2020-06-11T06:41:34Z</time>
      </trkpt>
      <trkpt lat="46.55405" lon="4.48057">
        <ele>465.601</ele>
        <time>2020-06-11T06:41:39Z</time>
      </trkpt>
      <trkpt lat="46.55411" lon="4.48065">
        <ele>467.601</ele>
        <time>2020-06-11T06:41:44Z</time>
      </trkpt>
      <trkpt lat="46.55416" lon="4.48072">
        <ele>465.601</ele>
        <time>2020-06-11T06:41:49Z</time>
      </trkpt>
      <trkpt lat="46.55423" lon="4.48073">
        <ele>465.601</ele>
        <time>2020-06-11T06:41:55Z</time>
      </trkpt>
      <trkpt lat="46.5543" lon="4.48084">
        <ele>464.601</ele>
        <time>2020-06-11T06:42:00Z</time>
      </trkpt>
      <trkpt lat="46.55435" lon="4.48092">
        <ele>462.601</ele>
        <time>2020-06-11T06:42:05Z</time>
      </trkpt>
      <trkpt lat="46.55441" lon="4.48099">
        <ele>460.601</ele>
        <time>2020-06-11T06:42:10Z</time>
      </trkpt>
      <trkpt lat="46.55448" lon="4.48105">
        <ele>458.601</ele>
        <time>2020-06-11T06:42:17Z</time>
      </trkpt>
      <trkpt lat="46.55456" lon="4.48108">
        <ele>453.601</ele>
        <time>2020-06-11T06:42:24Z</time>
      </trkpt>
      <trkpt lat="46.55463" lon="4.48112">
        <ele>452.601</ele>
        <time>2020-06-11T06:42:29Z</time>
      </trkpt>
      <trkpt lat="46.55469" lon="4.48116">
        <ele>452.601</ele>
        <time>2020-06-11T06:42:34Z</time>
      </trkpt>
      <trkpt lat="46.55476" lon="4.48118">
        <ele>455.601</ele>
        <time>2020-06-11T06:42:39Z</time>
      </trkpt>
      <trkpt lat="46.55484" lon="4.48121">
        <ele>456.601</ele>
        <time>2020-06-11T06:42:44Z</time>
      </trkpt>
      <trkpt lat="46.55493" lon="4.48125">
        <ele>458.601</ele>
        <time>2020-06-11T06:42:49Z</time>
      </trkpt>
      <trkpt lat="46.55499" lon="4.48129">
        <ele>457.601</ele>
        <time>2020-06-11T06:42:54Z</time>
      </trkpt>
      <trkpt lat="46.55506" lon="4.48132">
        <ele>458.601</ele>
        <time>2020-06-11T06:42:59Z</time>
      </trkpt>
      <trkpt lat="46.55513" lon="4.48127">
        <ele>456.601</ele>
        <time>2020-06-11T06:43:04Z</time>
      </trkpt>
      <trkpt lat="46.55521" lon="4.48128">
        <ele>457.601</ele>
        <time>2020-06-11T06:43:09Z</time>
      </trkpt>
      <trkpt lat="46.5553" lon="4.4813">
        <ele>458.601</ele>
        <time>2020-06-11T06:43:14Z</time>
      </trkpt>
      <trkpt lat="46.55537" lon="4.4813">
        <ele>460.601</ele>
        <time>2020-06-11T06:43:19Z</time>
      </trkpt>
      <trkpt lat="46.55545" lon="4.48134">
        <ele>455.601</ele>
        <time>2020-06-11T06:43:26Z</time>
      </trkpt>
      <trkpt lat="46.55553" lon="4.48134">
        <ele>453.601</ele>
        <time>2020-06-11T06:43:31Z</time>
      </trkpt>
      <trkpt lat="46.55561" lon="4.48137">
        <ele>453.601</ele>
        <time>2020-06-11T06:43:36Z</time>
      </trkpt>
      <trkpt lat="46.55566" lon="4.48143">
        <ele>452.601</ele>
        <time>2020-06-11T06:43:42Z</time>
      </trkpt>
      <trkpt lat="46.55572" lon="4.48152">
        <ele>450.601</ele>
        <time>2020-06-11T06:43:47Z</time>
      </trkpt>
      <trkpt lat="46.55577" lon="4.48159">
        <ele>450.602</ele>
        <time>2020-06-11T06:43:54Z</time>
      </trkpt>
      <trkpt lat="46.5558" lon="4.48173">
        <ele>446.602</ele>
        <time>2020-06-11T06:43:59Z</time>
      </trkpt>
      <trkpt lat="46.55586" lon="4.48184">
        <ele>445.602</ele>
        <time>2020-06-11T06:44:04Z</time>
      </trkpt>
      <trkpt lat="46.55592" lon="4.48188">
        <ele>443.602</ele>
        <time>2020-06-11T06:44:11Z</time>
      </trkpt>
      <trkpt lat="46.55599" lon="4.48192">
        <ele>449.602</ele>
        <time>2020-06-11T06:44:16Z</time>
      </trkpt>
      <trkpt lat="46.55603" lon="4.48204">
        <ele>448.602</ele>
        <time>2020-06-11T06:44:21Z</time>
      </trkpt>
      <trkpt lat="46.5561" lon="4.48209">
        <ele>446.602</ele>
        <time>2020-06-11T06:44:26Z</time>
      </trkpt>
      <trkpt lat="46.55616" lon="4.48221">
        <ele>449.602</ele>
        <time>2020-06-11T06:44:31Z</time>
      </trkpt>
      <trkpt lat="46.55623" lon="4.48228">
        <ele>448.602</ele>
        <time>2020-06-11T06:44:36Z</time>
      </trkpt>
      <trkpt lat="46.55629" lon="4.48236">
        <ele>451.602</ele>
        <time>2020-06-11T06:44:41Z</time>
      </trkpt>
      <trkpt lat="46.55633" lon="4.48246">
        <ele>449.602</ele>
        <time>2020-06-11T06:44:46Z</time>
      </trkpt>
      <trkpt lat="46.5564" lon="4.4825">
        <ele>446.602</ele>
        <time>2020-06-11T06:44:51Z</time>
      </trkpt>
      <trkpt lat="46.55646" lon="4.48258">
        <ele>445.602</ele>
        <time>2020-06-11T06:44:57Z</time>
      </trkpt>
      <trkpt lat="46.55648" lon="4.48268">
        <ele>440.602</ele>
        <time>2020-06-11T06:45:02Z</time>
      </trkpt>
      <trkpt lat="46.5565" lon="4.48277">
        <ele>439.602</ele>
        <time>2020-06-11T06:45:07Z</time>
      </trkpt>
      <trkpt lat="46.55654" lon="4.4829">
        <ele>437.602</ele>
        <time>2020-06-11T06:45:12Z</time>
      </trkpt>
      <trkpt lat="46.55659" lon="4.48305">
        <ele>442.602</ele>
        <time>2020-06-11T06:45:17Z</time>
      </trkpt>
      <trkpt lat="46.55663" lon="4.48318">
        <ele>444.602</ele>
        <time>2020-06-11T06:45:22Z</time>
      </trkpt>
      <trkpt lat="46.55666" lon="4.48327">
        <ele>434.602</ele>
        <time>2020-06-11T06:45:33Z</time>
      </trkpt>
      <trkpt lat="46.55674" lon="4.48339">
        <ele>437.602</ele>
        <time>2020-06-11T06:45:38Z</time>
      </trkpt>
      <trkpt lat="46.55677" lon="4.4835">
        <ele>437.602</ele>
        <time>2020-06-11T06:45:43Z</time>
      </trkpt>
      <trkpt lat="46.55679" lon="4.4836">
        <ele>435.602</ele>
        <time>2020-06-11T06:45:49Z</time>
      </trkpt>
      <trkpt lat="46.55683" lon="4.4837">
        <ele>434.602</ele>
        <time>2020-06-11T06:45:54Z</time>
      </trkpt>
      <trkpt lat="46.55688" lon="4.48379">
        <ele>436.602</ele>
        <time>2020-06-11T06:45:59Z</time>
      </trkpt>
      <trkpt lat="46.55692" lon="4.48391">
        <ele>435.602</ele>
        <time>2020-06-11T06:46:04Z</time>
      </trkpt>
      <trkpt lat="46.55697" lon="4.48398">
        <ele>433.602</ele>
        <time>2020-06-11T06:46:10Z</time>
      </trkpt>
      <trkpt lat="46.55704" lon="4.48403">
        <ele>431.602</ele>
        <time>2020-06-11T06:46:16Z</time>
      </trkpt>
      <trkpt lat="46.55708" lon="4.48415">
        <ele>433.602</ele>
        <time>2020-06-11T06:46:21Z</time>
      </trkpt>
      <trkpt lat="46.5571" lon="4.48424">
        <ele>434.602</ele>
        <time>2020-06-11T06:46:27Z</time>
      </trkpt>
      <trkpt lat="46.55713" lon="4.48437">
        <ele>436.602</ele>
        <time>2020-06-11T06:46:32Z</time>
      </trkpt>
      <trkpt lat="46.55716" lon="4.48449">
        <ele>438.602</ele>
        <time>2020-06-11T06:46:37Z</time>
      </trkpt>
      <trkpt lat="46.55721" lon="4.48455">
        <ele>437.602</ele>
        <time>2020-06-11T06:46:43Z</time>
      </trkpt>
      <trkpt lat="46.55728" lon="4.48461">
        <ele>438.602</ele>
        <time>2020-06-11T06:46:48Z</time>
      </trkpt>
      <trkpt lat="46.55734" lon="4.48463">
        <ele>438.602</ele>
        <time>2020-06-11T06:46:54Z</time>
      </trkpt>
      <trkpt lat="46.55739" lon="4.48473">
        <ele>439.602</ele>
        <time>2020-06-11T06:46:59Z</time>
      </trkpt>
      <trkpt lat="46.5574" lon="4.48484">
        <ele>439.602</ele>
        <time>2020-06-11T06:47:09Z</time>
      </trkpt>
      <trkpt lat="46.55745" lon="4.48496">
        <ele>440.602</ele>
        <time>2020-06-11T06:47:14Z</time>
      </trkpt>
      <trkpt lat="46.5575" lon="4.48504">
        <ele>440.602</ele>
        <time>2020-06-11T06:47:21Z</time>
      </trkpt>
      <trkpt lat="46.55752" lon="4.48516">
        <ele>439.602</ele>
        <time>2020-06-11T06:47:26Z</time>
      </trkpt>
      <trkpt lat="46.55757" lon="4.48527">
        <ele>438.602</ele>
        <time>2020-06-11T06:47:44Z</time>
      </trkpt>
      <trkpt lat="46.55759" lon="4.48537">
        <ele>440.602</ele>
        <time>2020-06-11T06:47:52Z</time>
      </trkpt>
      <trkpt lat="46.55764" lon="4.48552">
        <ele>441.602</ele>
        <time>2020-06-11T06:47:57Z</time>
      </trkpt>
      <trkpt lat="46.55766" lon="4.48561">
        <ele>439.602</ele>
        <time>2020-06-11T06:48:04Z</time>
      </trkpt>
      <trkpt lat="46.55767" lon="4.48573">
        <ele>439.602</ele>
        <time>2020-06-11T06:48:09Z</time>
      </trkpt>
      <trkpt lat="46.55769" lon="4.48584">
        <ele>439.602</ele>
        <time>2020-06-11T06:48:15Z</time>
      </trkpt>
      <trkpt lat="46.5577" lon="4.48596">
        <ele>440.602</ele>
        <time>2020-06-11T06:48:20Z</time>
      </trkpt>
      <trkpt lat="46.55775" lon="4.48604">
        <ele>440.602</ele>
        <time>2020-06-11T06:48:26Z</time>
      </trkpt>
      <trkpt lat="46.55779" lon="4.48612">
        <ele>441.602</ele>
        <time>2020-06-11T06:48:33Z</time>
      </trkpt>
      <trkpt lat="46.5578" lon="4.48623">
        <ele>440.602</ele>
        <time>2020-06-11T06:48:43Z</time>
      </trkpt>
      <trkpt lat="46.5578" lon="4.48641">
        <ele>445.602</ele>
        <time>2020-06-11T06:48:48Z</time>
      </trkpt>
      <trkpt lat="46.55776" lon="4.48649">
        <ele>445.602</ele>
        <time>2020-06-11T06:48:57Z</time>
      </trkpt>
      <trkpt lat="46.55776" lon="4.48658">
        <ele>445.602</ele>
        <time>2020-06-11T06:49:03Z</time>
      </trkpt>
      <trkpt lat="46.55777" lon="4.48669">
        <ele>447.602</ele>
        <time>2020-06-11T06:49:10Z</time>
      </trkpt>
      <trkpt lat="46.55779" lon="4.48677">
        <ele>450.602</ele>
        <time>2020-06-11T06:49:15Z</time>
      </trkpt>
      <trkpt lat="46.55781" lon="4.48687">
        <ele>453.602</ele>
        <time>2020-06-11T06:49:21Z</time>
      </trkpt>
      <trkpt lat="46.55779" lon="4.48696">
        <ele>456.602</ele>
        <time>2020-06-11T06:49:30Z</time>
      </trkpt>
      <trkpt lat="46.55775" lon="4.48705">
        <ele>457.602</ele>
        <time>2020-06-11T06:49:35Z</time>
      </trkpt>
      <trkpt lat="46.55769" lon="4.48712">
        <ele>455.602</ele>
        <time>2020-06-11T06:49:40Z</time>
      </trkpt>
      <trkpt lat="46.55764" lon="4.48718">
        <ele>458.602</ele>
        <time>2020-06-11T06:49:50Z</time>
      </trkpt>
      <trkpt lat="46.55758" lon="4.48722">
        <ele>455.602</ele>
        <time>2020-06-11T06:50:07Z</time>
      </trkpt>
      <trkpt lat="46.55759" lon="4.48732">
        <ele>455.602</ele>
        <time>2020-06-11T06:50:18Z</time>
      </trkpt>
      <trkpt lat="46.55757" lon="4.48741">
        <ele>454.602</ele>
        <time>2020-06-11T06:50:35Z</time>
      </trkpt>
      <trkpt lat="46.55757" lon="4.48751">
        <ele>454.602</ele>
        <time>2020-06-11T06:50:44Z</time>
      </trkpt>
      <trkpt lat="46.55761" lon="4.48759">
        <ele>455.602</ele>
        <time>2020-06-11T06:50:53Z</time>
      </trkpt>
      <trkpt lat="46.55767" lon="4.48753">
        <ele>455.602</ele>
        <time>2020-06-11T06:51:02Z</time>
      </trkpt>
      <trkpt lat="46.55768" lon="4.48743">
        <ele>456.602</ele>
        <time>2020-06-11T06:51:10Z</time>
      </trkpt>
      <trkpt lat="46.55766" lon="4.48733">
        <ele>455.602</ele>
        <time>2020-06-11T06:51:18Z</time>
      </trkpt>
      <trkpt lat="46.55768" lon="4.48723">
        <ele>454.602</ele>
        <time>2020-06-11T06:51:28Z</time>
      </trkpt>
      <trkpt lat="46.55767" lon="4.48713">
        <ele>454.602</ele>
        <time>2020-06-11T06:55:28Z</time>
      </trkpt>
      <trkpt lat="46.55764" lon="4.48704">
        <ele>452.602</ele>
        <time>2020-06-11T07:00:55Z</time>
      </trkpt>
      <trkpt lat="46.55763" lon="4.48694">
        <ele>456.602</ele>
        <time>2020-06-11T07:04:26Z</time>
      </trkpt>
      <trkpt lat="46.55768" lon="4.48687">
        <ele>456.602</ele>
        <time>2020-06-11T07:04:34Z</time>
      </trkpt>
      <trkpt lat="46.55773" lon="4.48681">
        <ele>454.602</ele>
        <time>2020-06-11T07:04:41Z</time>
      </trkpt>
      <trkpt lat="46.55773" lon="4.4867">
        <ele>447.602</ele>
        <time>2020-06-11T07:04:54Z</time>
      </trkpt>
      <trkpt lat="46.55775" lon="4.48658">
        <ele>445.602</ele>
        <time>2020-06-11T07:04:59Z</time>
      </trkpt>
      <trkpt lat="46.55779" lon="4.48646">
        <ele>443.602</ele>
        <time>2020-06-11T07:05:04Z</time>
      </trkpt>
      <trkpt lat="46.55781" lon="4.48633">
        <ele>442.602</ele>
        <time>2020-06-11T07:05:09Z</time>
      </trkpt>
      <trkpt lat="46.5577" lon="4.48629">
        <ele>438.602</ele>
        <time>2020-06-11T07:05:14Z</time>
      </trkpt>
      <trkpt lat="46.5577" lon="4.48617">
        <ele>440.602</ele>
        <time>2020-06-11T07:05:20Z</time>
      </trkpt>
      <trkpt lat="46.55771" lon="4.48606">
        <ele>443.602</ele>
        <time>2020-06-11T07:05:27Z</time>
      </trkpt>
      <trkpt lat="46.55768" lon="4.48596">
        <ele>439.602</ele>
        <time>2020-06-11T07:05:33Z</time>
      </trkpt>
      <trkpt lat="46.55767" lon="4.48585">
        <ele>436.602</ele>
        <time>2020-06-11T07:05:38Z</time>
      </trkpt>
      <trkpt lat="46.55764" lon="4.48575">
        <ele>438.602</ele>
        <time>2020-06-11T07:05:43Z</time>
      </trkpt>
      <trkpt lat="46.55761" lon="4.48567">
        <ele>437.602</ele>
        <time>2020-06-11T07:05:48Z</time>
      </trkpt>
      <trkpt lat="46.55762" lon="4.48554">
        <ele>438.602</ele>
        <time>2020-06-11T07:05:53Z</time>
      </trkpt>
      <trkpt lat="46.55758" lon="4.48544">
        <ele>437.602</ele>
        <time>2020-06-11T07:05:58Z</time>
      </trkpt>
      <trkpt lat="46.55755" lon="4.48533">
        <ele>432.602</ele>
        <time>2020-06-11T07:06:04Z</time>
      </trkpt>
      <trkpt lat="46.55752" lon="4.48514">
        <ele>431.602</ele>
        <time>2020-06-11T07:06:09Z</time>
      </trkpt>
      <trkpt lat="46.55747" lon="4.48502">
        <ele>430.602</ele>
        <time>2020-06-11T07:06:14Z</time>
      </trkpt>
      <trkpt lat="46.55742" lon="4.4849">
        <ele>425.602</ele>
        <time>2020-06-11T07:06:30Z</time>
      </trkpt>
      <trkpt lat="46.55733" lon="4.48467">
        <ele>427.602</ele>
        <time>2020-06-11T07:06:35Z</time>
      </trkpt>
      <trkpt lat="46.55728" lon="4.48458">
        <ele>428.602</ele>
        <time>2020-06-11T07:06:40Z</time>
      </trkpt>
      <trkpt lat="46.55723" lon="4.48449">
        <ele>424.602</ele>
        <time>2020-06-11T07:06:47Z</time>
      </trkpt>
      <trkpt lat="46.55717" lon="4.48439">
        <ele>427.602</ele>
        <time>2020-06-11T07:06:52Z</time>
      </trkpt>
      <trkpt lat="46.55712" lon="4.48425">
        <ele>429.602</ele>
        <time>2020-06-11T07:06:57Z</time>
      </trkpt>
      <trkpt lat="46.5571" lon="4.48415">
        <ele>428.602</ele>
        <time>2020-06-11T07:07:02Z</time>
      </trkpt>
      <trkpt lat="46.55705" lon="4.48406">
        <ele>429.602</ele>
        <time>2020-06-11T07:07:07Z</time>
      </trkpt>
      <trkpt lat="46.55709" lon="4.48395">
        <ele>429.602</ele>
        <time>2020-06-11T07:07:12Z</time>
      </trkpt>
      <trkpt lat="46.55716" lon="4.48397">
        <ele>429.602</ele>
        <time>2020-06-11T07:07:18Z</time>
      </trkpt>
      <trkpt lat="46.55723" lon="4.48402">
        <ele>430.602</ele>
        <time>2020-06-11T07:07:24Z</time>
      </trkpt>
      <trkpt lat="46.55731" lon="4.48405">
        <ele>430.602</ele>
        <time>2020-06-11T07:07:30Z</time>
      </trkpt>
      <trkpt lat="46.55739" lon="4.48406">
        <ele>427.602</ele>
        <time>2020-06-11T07:07:35Z</time>
      </trkpt>
      <trkpt lat="46.55745" lon="4.48409">
        <ele>422.602</ele>
        <time>2020-06-11T07:07:40Z</time>
      </trkpt>
      <trkpt lat="46.55753" lon="4.48412">
        <ele>419.602</ele>
        <time>2020-06-11T07:07:45Z</time>
      </trkpt>
      <trkpt lat="46.55761" lon="4.48415">
        <ele>421.602</ele>
        <time>2020-06-11T07:07:51Z</time>
      </trkpt>
      <trkpt lat="46.55769" lon="4.48418">
        <ele>423.602</ele>
        <time>2020-06-11T07:07:56Z</time>
      </trkpt>
      <trkpt lat="46.55778" lon="4.48419">
        <ele>423.602</ele>
        <time>2020-06-11T07:08:01Z</time>
      </trkpt>
      <trkpt lat="46.55784" lon="4.48422">
        <ele>424.602</ele>
        <time>2020-06-11T07:08:06Z</time>
      </trkpt>
      <trkpt lat="46.55791" lon="4.48427">
        <ele>422.602</ele>
        <time>2020-06-11T07:08:11Z</time>
      </trkpt>
      <trkpt lat="46.55798" lon="4.48432">
        <ele>423.602</ele>
        <time>2020-06-11T07:08:16Z</time>
      </trkpt>
      <trkpt lat="46.55809" lon="4.48439">
        <ele>422.602</ele>
        <time>2020-06-11T07:08:21Z</time>
      </trkpt>
      <trkpt lat="46.55817" lon="4.48441">
        <ele>422.602</ele>
        <time>2020-06-11T07:08:26Z</time>
      </trkpt>
      <trkpt lat="46.55823" lon="4.48446">
        <ele>423.602</ele>
        <time>2020-06-11T07:08:33Z</time>
      </trkpt>
      <trkpt lat="46.55829" lon="4.48453">
        <ele>421.602</ele>
        <time>2020-06-11T07:08:39Z</time>
      </trkpt>
      <trkpt lat="46.55837" lon="4.48458">
        <ele>422.602</ele>
        <time>2020-06-11T07:08:44Z</time>
      </trkpt>
      <trkpt lat="46.55845" lon="4.4846">
        <ele>421.602</ele>
        <time>2020-06-11T07:08:49Z</time>
      </trkpt>
      <trkpt lat="46.55852" lon="4.48463">
        <ele>424.602</ele>
        <time>2020-06-11T07:08:54Z</time>
      </trkpt>
      <trkpt lat="46.55858" lon="4.48469">
        <ele>421.603</ele>
        <time>2020-06-11T07:08:59Z</time>
      </trkpt>
      <trkpt lat="46.55864" lon="4.48476">
        <ele>420.603</ele>
        <time>2020-06-11T07:09:04Z</time>
      </trkpt>
      <trkpt lat="46.55868" lon="4.48484">
        <ele>420.603</ele>
        <time>2020-06-11T07:09:09Z</time>
      </trkpt>
      <trkpt lat="46.55872" lon="4.48496">
        <ele>418.603</ele>
        <time>2020-06-11T07:09:14Z</time>
      </trkpt>
      <trkpt lat="46.55879" lon="4.48506">
        <ele>420.603</ele>
        <time>2020-06-11T07:09:19Z</time>
      </trkpt>
      <trkpt lat="46.55883" lon="4.48515">
        <ele>417.603</ele>
        <time>2020-06-11T07:09:25Z</time>
      </trkpt>
      <trkpt lat="46.55888" lon="4.48528">
        <ele>419.603</ele>
        <time>2020-06-11T07:09:30Z</time>
      </trkpt>
      <trkpt lat="46.55893" lon="4.48538">
        <ele>420.603</ele>
        <time>2020-06-11T07:09:35Z</time>
      </trkpt>
      <trkpt lat="46.55895" lon="4.4855">
        <ele>420.603</ele>
        <time>2020-06-11T07:09:40Z</time>
      </trkpt>
      <trkpt lat="46.559" lon="4.48559">
        <ele>419.603</ele>
        <time>2020-06-11T07:09:45Z</time>
      </trkpt>
      <trkpt lat="46.55906" lon="4.48567">
        <ele>424.603</ele>
        <time>2020-06-11T07:09:51Z</time>
      </trkpt>
      <trkpt lat="46.55909" lon="4.48577">
        <ele>424.603</ele>
        <time>2020-06-11T07:09:58Z</time>
      </trkpt>
      <trkpt lat="46.55911" lon="4.48588">
        <ele>426.603</ele>
        <time>2020-06-11T07:10:03Z</time>
      </trkpt>
      <trkpt lat="46.55914" lon="4.48602">
        <ele>425.603</ele>
        <time>2020-06-11T07:10:08Z</time>
      </trkpt>
      <trkpt lat="46.55916" lon="4.48613">
        <ele>423.603</ele>
        <time>2020-06-11T07:10:13Z</time>
      </trkpt>
      <trkpt lat="46.55918" lon="4.48626">
        <ele>425.603</ele>
        <time>2020-06-11T07:10:18Z</time>
      </trkpt>
      <trkpt lat="46.55921" lon="4.48637">
        <ele>426.603</ele>
        <time>2020-06-11T07:10:25Z</time>
      </trkpt>
      <trkpt lat="46.55926" lon="4.48644">
        <ele>428.603</ele>
        <time>2020-06-11T07:10:30Z</time>
      </trkpt>
      <trkpt lat="46.55927" lon="4.48656">
        <ele>428.603</ele>
        <time>2020-06-11T07:10:35Z</time>
      </trkpt>
      <trkpt lat="46.5593" lon="4.48668">
        <ele>424.603</ele>
        <time>2020-06-11T07:10:40Z</time>
      </trkpt>
      <trkpt lat="46.55932" lon="4.48678">
        <ele>420.603</ele>
        <time>2020-06-11T07:10:45Z</time>
      </trkpt>
      <trkpt lat="46.55937" lon="4.4869">
        <ele>422.603</ele>
        <time>2020-06-11T07:10:50Z</time>
      </trkpt>
      <trkpt lat="46.55941" lon="4.48699">
        <ele>419.603</ele>
        <time>2020-06-11T07:10:56Z</time>
      </trkpt>
      <trkpt lat="46.55945" lon="4.48708">
        <ele>420.603</ele>
        <time>2020-06-11T07:11:01Z</time>
      </trkpt>
      <trkpt lat="46.55949" lon="4.48718">
        <ele>418.603</ele>
        <time>2020-06-11T07:11:06Z</time>
      </trkpt>
      <trkpt lat="46.55949" lon="4.48732">
        <ele>418.603</ele>
        <time>2020-06-11T07:11:11Z</time>
      </trkpt>
      <trkpt lat="46.55954" lon="4.48744">
        <ele>420.603</ele>
        <time>2020-06-11T07:11:16Z</time>
      </trkpt>
      <trkpt lat="46.55957" lon="4.48753">
        <ele>422.603</ele>
        <time>2020-06-11T07:11:22Z</time>
      </trkpt>
      <trkpt lat="46.55958" lon="4.48764">
        <ele>422.603</ele>
        <time>2020-06-11T07:11:27Z</time>
      </trkpt>
      <trkpt lat="46.55959" lon="4.48773">
        <ele>423.603</ele>
        <time>2020-06-11T07:11:32Z</time>
      </trkpt>
      <trkpt lat="46.55965" lon="4.48785">
        <ele>422.603</ele>
        <time>2020-06-11T07:11:37Z</time>
      </trkpt>
      <trkpt lat="46.5597" lon="4.48791">
        <ele>419.603</ele>
        <time>2020-06-11T07:11:43Z</time>
      </trkpt>
      <trkpt lat="46.55975" lon="4.48799">
        <ele>416.603</ele>
        <time>2020-06-11T07:11:49Z</time>
      </trkpt>
      <trkpt lat="46.55978" lon="4.4881">
        <ele>414.603</ele>
        <time>2020-06-11T07:11:54Z</time>
      </trkpt>
      <trkpt lat="46.55979" lon="4.48822">
        <ele>414.603</ele>
        <time>2020-06-11T07:11:59Z</time>
      </trkpt>
      <trkpt lat="46.55982" lon="4.48833">
        <ele>415.603</ele>
        <time>2020-06-11T07:12:04Z</time>
      </trkpt>
      <trkpt lat="46.55983" lon="4.48843">
        <ele>414.603</ele>
        <time>2020-06-11T07:12:09Z</time>
      </trkpt>
      <trkpt lat="46.55984" lon="4.48854">
        <ele>410.603</ele>
        <time>2020-06-11T07:12:16Z</time>
      </trkpt>
      <trkpt lat="46.55989" lon="4.48866">
        <ele>410.603</ele>
        <time>2020-06-11T07:12:21Z</time>
      </trkpt>
      <trkpt lat="46.55996" lon="4.48878">
        <ele>409.603</ele>
        <time>2020-06-11T07:12:26Z</time>
      </trkpt>
      <trkpt lat="46.55999" lon="4.48887">
        <ele>404.603</ele>
        <time>2020-06-11T07:12:33Z</time>
      </trkpt>
      <trkpt lat="46.56" lon="4.48897">
        <ele>402.603</ele>
        <time>2020-06-11T07:12:41Z</time>
      </trkpt>
      <trkpt lat="46.56" lon="4.48906">
        <ele>404.603</ele>
        <time>2020-06-11T07:12:47Z</time>
      </trkpt>
      <trkpt lat="46.55999" lon="4.48922">
        <ele>403.603</ele>
        <time>2020-06-11T07:12:52Z</time>
      </trkpt>
      <trkpt lat="46.55995" lon="4.48931">
        <ele>402.603</ele>
        <time>2020-06-11T07:12:57Z</time>
      </trkpt>
      <trkpt lat="46.55992" lon="4.4894">
        <ele>400.603</ele>
        <time>2020-06-11T07:13:03Z</time>
      </trkpt>
      <trkpt lat="46.55988" lon="4.48949">
        <ele>398.603</ele>
        <time>2020-06-11T07:13:09Z</time>
      </trkpt>
      <trkpt lat="46.5599" lon="4.4896">
        <ele>396.603</ele>
        <time>2020-06-11T07:13:15Z</time>
      </trkpt>
      <trkpt lat="46.5599" lon="4.4897">
        <ele>396.603</ele>
        <time>2020-06-11T07:13:20Z</time>
      </trkpt>
      <trkpt lat="46.55994" lon="4.4898">
        <ele>395.603</ele>
        <time>2020-06-11T07:13:26Z</time>
      </trkpt>
      <trkpt lat="46.55998" lon="4.4899">
        <ele>392.603</ele>
        <time>2020-06-11T07:13:31Z</time>
      </trkpt>
      <trkpt lat="46.56003" lon="4.48999">
        <ele>395.603</ele>
        <time>2020-06-11T07:13:37Z</time>
      </trkpt>
      <trkpt lat="46.56006" lon="4.49009">
        <ele>395.603</ele>
        <time>2020-06-11T07:13:42Z</time>
      </trkpt>
      <trkpt lat="46.56009" lon="4.49018">
        <ele>392.603</ele>
        <time>2020-06-11T07:13:47Z</time>
      </trkpt>
      <trkpt lat="46.5601" lon="4.49032">
        <ele>389.603</ele>
        <time>2020-06-11T07:13:52Z</time>
      </trkpt>
      <trkpt lat="46.56009" lon="4.49042">
        <ele>391.603</ele>
        <time>2020-06-11T07:13:59Z</time>
      </trkpt>
      <trkpt lat="46.56005" lon="4.4905">
        <ele>389.603</ele>
        <time>2020-06-11T07:14:04Z</time>
      </trkpt>
      <trkpt lat="46.55999" lon="4.49059">
        <ele>389.603</ele>
        <time>2020-06-11T07:14:09Z</time>
      </trkpt>
      <trkpt lat="46.55994" lon="4.49065">
        <ele>388.603</ele>
        <time>2020-06-11T07:14:14Z</time>
      </trkpt>
      <trkpt lat="46.55989" lon="4.49073">
        <ele>383.603</ele>
        <time>2020-06-11T07:14:19Z</time>
      </trkpt>
      <trkpt lat="46.55982" lon="4.4908">
        <ele>380.603</ele>
        <time>2020-06-11T07:14:24Z</time>
      </trkpt>
      <trkpt lat="46.55978" lon="4.49088">
        <ele>378.603</ele>
        <time>2020-06-11T07:14:29Z</time>
      </trkpt>
      <trkpt lat="46.55975" lon="4.49099">
        <ele>374.603</ele>
        <time>2020-06-11T07:14:35Z</time>
      </trkpt>
      <trkpt lat="46.55977" lon="4.49108">
        <ele>369.603</ele>
        <time>2020-06-11T07:14:40Z</time>
      </trkpt>
      <trkpt lat="46.55969" lon="4.49122">
        <ele>368.603</ele>
        <time>2020-06-11T07:14:45Z</time>
      </trkpt>
      <trkpt lat="46.55967" lon="4.49132">
        <ele>372.603</ele>
        <time>2020-06-11T07:14:50Z</time>
      </trkpt>
      <trkpt lat="46.55964" lon="4.49143">
        <ele>370.603</ele>
        <time>2020-06-11T07:14:57Z</time>
      </trkpt>
      <trkpt lat="46.55958" lon="4.49156">
        <ele>367.603</ele>
        <time>2020-06-11T07:15:02Z</time>
      </trkpt>
      <trkpt lat="46.55957" lon="4.49167">
        <ele>369.603</ele>
        <time>2020-06-11T07:15:07Z</time>
      </trkpt>
      <trkpt lat="46.55952" lon="4.49177">
        <ele>367.603</ele>
        <time>2020-06-11T07:15:12Z</time>
      </trkpt>
      <trkpt lat="46.55947" lon="4.49187">
        <ele>372.603</ele>
        <time>2020-06-11T07:15:17Z</time>
      </trkpt>
      <trkpt lat="46.55948" lon="4.49197">
        <ele>372.603</ele>
        <time>2020-06-11T07:15:23Z</time>
      </trkpt>
      <trkpt lat="46.55946" lon="4.4921">
        <ele>370.603</ele>
        <time>2020-06-11T07:15:28Z</time>
      </trkpt>
      <trkpt lat="46.55947" lon="4.4922">
        <ele>369.603</ele>
        <time>2020-06-11T07:15:34Z</time>
      </trkpt>
      <trkpt lat="46.55944" lon="4.49232">
        <ele>368.603</ele>
        <time>2020-06-11T07:15:39Z</time>
      </trkpt>
      <trkpt lat="46.55942" lon="4.49242">
        <ele>367.603</ele>
        <time>2020-06-11T07:15:44Z</time>
      </trkpt>
      <trkpt lat="46.5594" lon="4.49252">
        <ele>367.603</ele>
        <time>2020-06-11T07:15:49Z</time>
      </trkpt>
      <trkpt lat="46.55939" lon="4.49262">
        <ele>364.603</ele>
        <time>2020-06-11T07:15:55Z</time>
      </trkpt>
      <trkpt lat="46.55938" lon="4.49274">
        <ele>360.603</ele>
        <time>2020-06-11T07:16:00Z</time>
      </trkpt>
      <trkpt lat="46.55935" lon="4.49284">
        <ele>360.603</ele>
        <time>2020-06-11T07:16:05Z</time>
      </trkpt>
      <trkpt lat="46.55932" lon="4.49293">
        <ele>361.603</ele>
        <time>2020-06-11T07:16:10Z</time>
      </trkpt>
      <trkpt lat="46.55929" lon="4.49303">
        <ele>362.603</ele>
        <time>2020-06-11T07:16:15Z</time>
      </trkpt>
      <trkpt lat="46.55926" lon="4.49314">
        <ele>359.603</ele>
        <time>2020-06-11T07:16:20Z</time>
      </trkpt>
      <trkpt lat="46.55924" lon="4.49324">
        <ele>358.603</ele>
        <time>2020-06-11T07:16:25Z</time>
      </trkpt>
      <trkpt lat="46.55922" lon="4.49337">
        <ele>359.603</ele>
        <time>2020-06-11T07:16:30Z</time>
      </trkpt>
      <trkpt lat="46.5592" lon="4.49348">
        <ele>361.603</ele>
        <time>2020-06-11T07:16:35Z</time>
      </trkpt>
      <trkpt lat="46.55919" lon="4.49359">
        <ele>361.603</ele>
        <time>2020-06-11T07:16:40Z</time>
      </trkpt>
      <trkpt lat="46.55918" lon="4.49369">
        <ele>360.603</ele>
        <time>2020-06-11T07:16:46Z</time>
      </trkpt>
      <trkpt lat="46.55915" lon="4.49379">
        <ele>360.603</ele>
        <time>2020-06-11T07:16:51Z</time>
      </trkpt>
      <trkpt lat="46.5591" lon="4.49387">
        <ele>359.603</ele>
        <time>2020-06-11T07:16:57Z</time>
      </trkpt>
      <trkpt lat="46.55903" lon="4.49391">
        <ele>356.603</ele>
        <time>2020-06-11T07:17:02Z</time>
      </trkpt>
      <trkpt lat="46.55898" lon="4.49398">
        <ele>357.603</ele>
        <time>2020-06-11T07:17:08Z</time>
      </trkpt>
      <trkpt lat="46.55891" lon="4.49405">
        <ele>353.603</ele>
        <time>2020-06-11T07:17:14Z</time>
      </trkpt>
      <trkpt lat="46.55887" lon="4.49412">
        <ele>352.603</ele>
        <time>2020-06-11T07:17:19Z</time>
      </trkpt>
      <trkpt lat="46.55883" lon="4.4942">
        <ele>351.603</ele>
        <time>2020-06-11T07:17:24Z</time>
      </trkpt>
      <trkpt lat="46.55877" lon="4.49428">
        <ele>351.603</ele>
        <time>2020-06-11T07:17:30Z</time>
      </trkpt>
      <trkpt lat="46.55871" lon="4.49434">
        <ele>351.603</ele>
        <time>2020-06-11T07:17:35Z</time>
      </trkpt>
      <trkpt lat="46.55863" lon="4.49439">
        <ele>348.603</ele>
        <time>2020-06-11T07:17:41Z</time>
      </trkpt>
      <trkpt lat="46.55857" lon="4.49444">
        <ele>348.603</ele>
        <time>2020-06-11T07:17:46Z</time>
      </trkpt>
      <trkpt lat="46.55851" lon="4.49447">
        <ele>345.603</ele>
        <time>2020-06-11T07:17:51Z</time>
      </trkpt>
      <trkpt lat="46.55843" lon="4.49451">
        <ele>342.603</ele>
        <time>2020-06-11T07:17:56Z</time>
      </trkpt>
      <trkpt lat="46.55836" lon="4.49458">
        <ele>343.603</ele>
        <time>2020-06-11T07:18:01Z</time>
      </trkpt>
      <trkpt lat="46.55831" lon="4.49466">
        <ele>345.603</ele>
        <time>2020-06-11T07:18:06Z</time>
      </trkpt>
      <trkpt lat="46.55824" lon="4.49471">
        <ele>338.603</ele>
        <time>2020-06-11T07:18:11Z</time>
      </trkpt>
      <trkpt lat="46.55819" lon="4.49478">
        <ele>335.603</ele>
        <time>2020-06-11T07:18:19Z</time>
      </trkpt>
      <trkpt lat="46.55814" lon="4.49486">
        <ele>336.603</ele>
        <time>2020-06-11T07:18:24Z</time>
      </trkpt>
      <trkpt lat="46.5581" lon="4.49496">
        <ele>340.603</ele>
        <time>2020-06-11T07:18:29Z</time>
      </trkpt>
      <trkpt lat="46.55805" lon="4.49507">
        <ele>343.603</ele>
        <time>2020-06-11T07:18:34Z</time>
      </trkpt>
      <trkpt lat="46.55802" lon="4.49516">
        <ele>340.603</ele>
        <time>2020-06-11T07:18:39Z</time>
      </trkpt>
      <trkpt lat="46.55797" lon="4.49526">
        <ele>339.603</ele>
        <time>2020-06-11T07:18:44Z</time>
      </trkpt>
      <trkpt lat="46.55793" lon="4.49538">
        <ele>343.603</ele>
        <time>2020-06-11T07:18:49Z</time>
      </trkpt>
      <trkpt lat="46.55789" lon="4.49548">
        <ele>344.603</ele>
        <time>2020-06-11T07:18:54Z</time>
      </trkpt>
      <trkpt lat="46.55786" lon="4.49556">
        <ele>344.603</ele>
        <time>2020-06-11T07:18:59Z</time>
      </trkpt>
      <trkpt lat="46.55784" lon="4.49566">
        <ele>344.603</ele>
        <time>2020-06-11T07:19:04Z</time>
      </trkpt>
      <trkpt lat="46.5578" lon="4.49575">
        <ele>344.603</ele>
        <time>2020-06-11T07:19:10Z</time>
      </trkpt>
      <trkpt lat="46.55776" lon="4.49584">
        <ele>338.603</ele>
        <time>2020-06-11T07:19:16Z</time>
      </trkpt>
      <trkpt lat="46.5577" lon="4.49594">
        <ele>333.603</ele>
        <time>2020-06-11T07:19:22Z</time>
      </trkpt>
      <trkpt lat="46.55767" lon="4.49602">
        <ele>332.603</ele>
        <time>2020-06-11T07:19:34Z</time>
      </trkpt>
      <trkpt lat="46.55761" lon="4.49618">
        <ele>332.603</ele>
        <time>2020-06-11T07:19:39Z</time>
      </trkpt>
      <trkpt lat="46.55755" lon="4.49627">
        <ele>329.603</ele>
        <time>2020-06-11T07:19:44Z</time>
      </trkpt>
      <trkpt lat="46.55752" lon="4.49639">
        <ele>327.603</ele>
        <time>2020-06-11T07:19:49Z</time>
      </trkpt>
      <trkpt lat="46.55749" lon="4.49654">
        <ele>327.603</ele>
        <time>2020-06-11T07:19:54Z</time>
      </trkpt>
      <trkpt lat="46.55747" lon="4.49667">
        <ele>329.603</ele>
        <time>2020-06-11T07:19:59Z</time>
      </trkpt>
      <trkpt lat="46.55744" lon="4.49678">
        <ele>325.603</ele>
        <time>2020-06-11T07:20:04Z</time>
      </trkpt>
      <trkpt lat="46.55742" lon="4.49688">
        <ele>324.603</ele>
        <time>2020-06-11T07:20:11Z</time>
      </trkpt>
      <trkpt lat="46.55737" lon="4.49697">
        <ele>321.603</ele>
        <time>2020-06-11T07:20:20Z</time>
      </trkpt>
      <trkpt lat="46.55731" lon="4.49715">
        <ele>321.603</ele>
        <time>2020-06-11T07:20:25Z</time>
      </trkpt>
      <trkpt lat="46.55727" lon="4.49725">
        <ele>323.603</ele>
        <time>2020-06-11T07:20:30Z</time>
      </trkpt>
      <trkpt lat="46.55724" lon="4.49735">
        <ele>325.603</ele>
        <time>2020-06-11T07:20:35Z</time>
      </trkpt>
      <trkpt lat="46.55722" lon="4.49747">
        <ele>324.603</ele>
        <time>2020-06-11T07:20:40Z</time>
      </trkpt>
      <trkpt lat="46.5572" lon="4.49758">
        <ele>323.603</ele>
        <time>2020-06-11T07:20:45Z</time>
      </trkpt>
      <trkpt lat="46.55718" lon="4.49769">
        <ele>323.603</ele>
        <time>2020-06-11T07:20:50Z</time>
      </trkpt>
      <trkpt lat="46.55715" lon="4.49779">
        <ele>322.603</ele>
        <time>2020-06-11T07:20:55Z</time>
      </trkpt>
      <trkpt lat="46.55713" lon="4.4979">
        <ele>321.603</ele>
        <time>2020-06-11T07:21:00Z</time>
      </trkpt>
      <trkpt lat="46.5571" lon="4.49801">
        <ele>320.603</ele>
        <time>2020-06-11T07:21:05Z</time>
      </trkpt>
      <trkpt lat="46.55708" lon="4.49811">
        <ele>322.603</ele>
        <time>2020-06-11T07:21:11Z</time>
      </trkpt>
      <trkpt lat="46.55705" lon="4.49822">
        <ele>321.603</ele>
        <time>2020-06-11T07:21:16Z</time>
      </trkpt>
      <trkpt lat="46.55702" lon="4.49833">
        <ele>320.603</ele>
        <time>2020-06-11T07:21:21Z</time>
      </trkpt>
      <trkpt lat="46.55699" lon="4.49842">
        <ele>319.603</ele>
        <time>2020-06-11T07:21:26Z</time>
      </trkpt>
      <trkpt lat="46.55696" lon="4.49851">
        <ele>319.603</ele>
        <time>2020-06-11T07:21:31Z</time>
      </trkpt>
      <trkpt lat="46.55693" lon="4.49862">
        <ele>321.603</ele>
        <time>2020-06-11T07:21:36Z</time>
      </trkpt>
      <trkpt lat="46.55688" lon="4.49872">
        <ele>320.603</ele>
        <time>2020-06-11T07:21:42Z</time>
      </trkpt>
      <trkpt lat="46.55686" lon="4.49881">
        <ele>318.603</ele>
        <time>2020-06-11T07:21:47Z</time>
      </trkpt>
      <trkpt lat="46.55683" lon="4.4989">
        <ele>317.603</ele>
        <time>2020-06-11T07:21:52Z</time>
      </trkpt>
      <trkpt lat="46.55682" lon="4.49901">
        <ele>317.603</ele>
        <time>2020-06-11T07:21:57Z</time>
      </trkpt>
      <trkpt lat="46.55681" lon="4.49911">
        <ele>316.603</ele>
        <time>2020-06-11T07:22:03Z</time>
      </trkpt>
      <trkpt lat="46.55678" lon="4.49923">
        <ele>315.603</ele>
        <time>2020-06-11T07:22:08Z</time>
      </trkpt>
      <trkpt lat="46.55674" lon="4.49934">
        <ele>313.603</ele>
        <time>2020-06-11T07:22:13Z</time>
      </trkpt>
      <trkpt lat="46.55672" lon="4.49947">
        <ele>309.603</ele>
        <time>2020-06-11T07:22:18Z</time>
      </trkpt>
      <trkpt lat="46.55671" lon="4.49957">
        <ele>309.603</ele>
        <time>2020-06-11T07:22:24Z</time>
      </trkpt>
      <trkpt lat="46.55668" lon="4.49969">
        <ele>312.603</ele>
        <time>2020-06-11T07:22:29Z</time>
      </trkpt>
      <trkpt lat="46.55666" lon="4.49979">
        <ele>312.603</ele>
        <time>2020-06-11T07:22:34Z</time>
      </trkpt>
      <trkpt lat="46.55666" lon="4.49989">
        <ele>310.603</ele>
        <time>2020-06-11T07:22:42Z</time>
      </trkpt>
      <trkpt lat="46.55664" lon="4.49999">
        <ele>309.603</ele>
        <time>2020-06-11T07:22:47Z</time>
      </trkpt>
      <trkpt lat="46.5566" lon="4.50011">
        <ele>306.603</ele>
        <time>2020-06-11T07:22:52Z</time>
      </trkpt>
      <trkpt lat="46.55657" lon="4.5002">
        <ele>307.603</ele>
        <time>2020-06-11T07:22:57Z</time>
      </trkpt>
      <trkpt lat="46.55655" lon="4.50031">
        <ele>306.603</ele>
        <time>2020-06-11T07:23:02Z</time>
      </trkpt>
      <trkpt lat="46.55654" lon="4.50041">
        <ele>307.603</ele>
        <time>2020-06-11T07:23:08Z</time>
      </trkpt>
      <trkpt lat="46.55651" lon="4.50053">
        <ele>308.603</ele>
        <time>2020-06-11T07:23:14Z</time>
      </trkpt>
      <trkpt lat="46.55647" lon="4.50065">
        <ele>308.603</ele>
        <time>2020-06-11T07:23:19Z</time>
      </trkpt>
      <trkpt lat="46.55643" lon="4.50075">
        <ele>306.603</ele>
        <time>2020-06-11T07:23:24Z</time>
      </trkpt>
      <trkpt lat="46.55638" lon="4.50082">
        <ele>307.603</ele>
        <time>2020-06-11T07:23:29Z</time>
      </trkpt>
      <trkpt lat="46.55631" lon="4.50086">
        <ele>306.603</ele>
        <time>2020-06-11T07:23:34Z</time>
      </trkpt>
      <trkpt lat="46.55624" lon="4.50088">
        <ele>306.603</ele>
        <time>2020-06-11T07:23:39Z</time>
      </trkpt>
      <trkpt lat="46.55616" lon="4.50092">
        <ele>301.603</ele>
        <time>2020-06-11T07:23:44Z</time>
      </trkpt>
      <trkpt lat="46.55611" lon="4.50101">
        <ele>295.603</ele>
        <time>2020-06-11T07:23:49Z</time>
      </trkpt>
      <trkpt lat="46.55605" lon="4.50106">
        <ele>293.603</ele>
        <time>2020-06-11T07:23:55Z</time>
      </trkpt>
      <trkpt lat="46.55597" lon="4.50113">
        <ele>290.603</ele>
        <time>2020-06-11T07:24:00Z</time>
      </trkpt>
      <trkpt lat="46.55591" lon="4.50119">
        <ele>292.603</ele>
        <time>2020-06-11T07:24:05Z</time>
      </trkpt>
      <trkpt lat="46.55586" lon="4.50125">
        <ele>287.603</ele>
        <time>2020-06-11T07:24:10Z</time>
      </trkpt>
      <trkpt lat="46.55581" lon="4.50132">
        <ele>285.603</ele>
        <time>2020-06-11T07:24:15Z</time>
      </trkpt>
      <trkpt lat="46.55575" lon="4.50138">
        <ele>284.603</ele>
        <time>2020-06-11T07:24:21Z</time>
      </trkpt>
      <trkpt lat="46.55568" lon="4.50143">
        <ele>285.603</ele>
        <time>2020-06-11T07:24:26Z</time>
      </trkpt>
      <trkpt lat="46.55561" lon="4.50148">
        <ele>281.603</ele>
        <time>2020-06-11T07:24:31Z</time>
      </trkpt>
      <trkpt lat="46.55555" lon="4.50155">
        <ele>281.603</ele>
        <time>2020-06-11T07:24:36Z</time>
      </trkpt>
      <trkpt lat="46.55548" lon="4.50158">
        <ele>284.603</ele>
        <time>2020-06-11T07:24:41Z</time>
      </trkpt>
      <trkpt lat="46.55541" lon="4.50163">
        <ele>283.603</ele>
        <time>2020-06-11T07:24:46Z</time>
      </trkpt>
      <trkpt lat="46.55535" lon="4.50169">
        <ele>280.603</ele>
        <time>2020-06-11T07:24:51Z</time>
      </trkpt>
      <trkpt lat="46.55529" lon="4.50172">
        <ele>278.603</ele>
        <time>2020-06-11T07:24:56Z</time>
      </trkpt>
      <trkpt lat="46.55522" lon="4.50176">
        <ele>274.603</ele>
        <time>2020-06-11T07:25:01Z</time>
      </trkpt>
      <trkpt lat="46.55515" lon="4.50177">
        <ele>273.603</ele>
        <time>2020-06-11T07:25:06Z</time>
      </trkpt>
      <trkpt lat="46.55509" lon="4.5018">
        <ele>272.603</ele>
        <time>2020-06-11T07:25:11Z</time>
      </trkpt>
      <trkpt lat="46.55502" lon="4.50182">
        <ele>273.603</ele>
        <time>2020-06-11T07:25:16Z</time>
      </trkpt>
      <trkpt lat="46.55494" lon="4.5018">
        <ele>273.603</ele>
        <time>2020-06-11T07:25:21Z</time>
      </trkpt>
      <trkpt lat="46.55487" lon="4.50177">
        <ele>277.603</ele>
        <time>2020-06-11T07:25:26Z</time>
      </trkpt>
      <trkpt lat="46.55479" lon="4.50175">
        <ele>277.603</ele>
        <time>2020-06-11T07:25:32Z</time>
      </trkpt>
      <trkpt lat="46.55471" lon="4.50175">
        <ele>278.603</ele>
        <time>2020-06-11T07:25:37Z</time>
      </trkpt>
      <trkpt lat="46.55464" lon="4.50178">
        <ele>274.603</ele>
        <time>2020-06-11T07:25:42Z</time>
      </trkpt>
      <trkpt lat="46.55457" lon="4.50177">
        <ele>272.603</ele>
        <time>2020-06-11T07:25:48Z</time>
      </trkpt>
      <trkpt lat="46.5545" lon="4.50179">
        <ele>272.603</ele>
        <time>2020-06-11T07:25:53Z</time>
      </trkpt>
      <trkpt lat="46.55442" lon="4.50182">
        <ele>271.603</ele>
        <time>2020-06-11T07:25:58Z</time>
      </trkpt>
      <trkpt lat="46.55437" lon="4.50192">
        <ele>268.603</ele>
        <time>2020-06-11T07:26:03Z</time>
      </trkpt>
      <trkpt lat="46.55434" lon="4.50203">
        <ele>267.603</ele>
        <time>2020-06-11T07:26:08Z</time>
      </trkpt>
      <trkpt lat="46.5543" lon="4.50213">
        <ele>268.603</ele>
        <time>2020-06-11T07:26:15Z</time>
      </trkpt>
      <trkpt lat="46.55427" lon="4.50222">
        <ele>269.603</ele>
        <time>2020-06-11T07:26:20Z</time>
      </trkpt>
      <trkpt lat="46.55423" lon="4.5023">
        <ele>269.603</ele>
        <time>2020-06-11T07:26:25Z</time>
      </trkpt>
      <trkpt lat="46.55418" lon="4.5024">
        <ele>267.603</ele>
        <time>2020-06-11T07:26:30Z</time>
      </trkpt>
      <trkpt lat="46.55411" lon="4.50247">
        <ele>264.603</ele>
        <time>2020-06-11T07:26:35Z</time>
      </trkpt>
      <trkpt lat="46.55414" lon="4.50257">
        <ele>266.603</ele>
        <time>2020-06-11T07:26:41Z</time>
      </trkpt>
      <trkpt lat="46.55417" lon="4.50267">
        <ele>268.603</ele>
        <time>2020-06-11T07:26:47Z</time>
      </trkpt>
      <trkpt lat="46.55423" lon="4.50275">
        <ele>268.603</ele>
        <time>2020-06-11T07:26:52Z</time>
      </trkpt>
      <trkpt lat="46.55429" lon="4.50283">
        <ele>267.603</ele>
        <time>2020-06-11T07:26:57Z</time>
      </trkpt>
      <trkpt lat="46.55432" lon="4.50292">
        <ele>268.603</ele>
        <time>2020-06-11T07:27:02Z</time>
      </trkpt>
      <trkpt lat="46.55436" lon="4.50301">
        <ele>260.603</ele>
        <time>2020-06-11T07:27:08Z</time>
      </trkpt>
      <trkpt lat="46.5544" lon="4.5031">
        <ele>263.603</ele>
        <time>2020-06-11T07:27:13Z</time>
      </trkpt>
      <trkpt lat="46.55444" lon="4.50321">
        <ele>263.603</ele>
        <time>2020-06-11T07:27:19Z</time>
      </trkpt>
      <trkpt lat="46.55447" lon="4.5033">
        <ele>265.603</ele>
        <time>2020-06-11T07:27:24Z</time>
      </trkpt>
      <trkpt lat="46.55449" lon="4.5034">
        <ele>266.603</ele>
        <time>2020-06-11T07:27:31Z</time>
      </trkpt>
      <trkpt lat="46.55448" lon="4.50351">
        <ele>265.603</ele>
        <time>2020-06-11T07:27:36Z</time>
      </trkpt>
      <trkpt lat="46.55445" lon="4.50361">
        <ele>264.603</ele>
        <time>2020-06-11T07:27:41Z</time>
      </trkpt>
      <trkpt lat="46.55443" lon="4.50371">
        <ele>269.603</ele>
        <time>2020-06-11T07:27:53Z</time>
      </trkpt>
      <trkpt lat="46.55438" lon="4.50379">
        <ele>270.603</ele>
        <time>2020-06-11T07:27:58Z</time>
      </trkpt>
      <trkpt lat="46.55432" lon="4.50388">
        <ele>270.603</ele>
        <time>2020-06-11T07:28:03Z</time>
      </trkpt>
      <trkpt lat="46.55427" lon="4.50394">
        <ele>268.603</ele>
        <time>2020-06-11T07:28:08Z</time>
      </trkpt>
      <trkpt lat="46.55421" lon="4.50401">
        <ele>271.603</ele>
        <time>2020-06-11T07:28:15Z</time>
      </trkpt>
      <trkpt lat="46.55417" lon="4.50409">
        <ele>269.603</ele>
        <time>2020-06-11T07:28:20Z</time>
      </trkpt>
      <trkpt lat="46.55411" lon="4.50416">
        <ele>270.603</ele>
        <time>2020-06-11T07:28:31Z</time>
      </trkpt>
      <trkpt lat="46.55402" lon="4.50425">
        <ele>269.603</ele>
        <time>2020-06-11T07:28:36Z</time>
      </trkpt>
      <trkpt lat="46.55393" lon="4.50433">
        <ele>272.603</ele>
        <time>2020-06-11T07:28:41Z</time>
      </trkpt>
      <trkpt lat="46.55387" lon="4.50441">
        <ele>270.603</ele>
        <time>2020-06-11T07:28:46Z</time>
      </trkpt>
      <trkpt lat="46.55382" lon="4.50447">
        <ele>274.603</ele>
        <time>2020-06-11T07:28:51Z</time>
      </trkpt>
      <trkpt lat="46.55377" lon="4.50453">
        <ele>274.603</ele>
        <time>2020-06-11T07:28:56Z</time>
      </trkpt>
      <trkpt lat="46.5537" lon="4.50459">
        <ele>274.603</ele>
        <time>2020-06-11T07:29:01Z</time>
      </trkpt>
      <trkpt lat="46.55365" lon="4.50465">
        <ele>274.603</ele>
        <time>2020-06-11T07:29:06Z</time>
      </trkpt>
      <trkpt lat="46.55359" lon="4.50473">
        <ele>277.603</ele>
        <time>2020-06-11T07:29:11Z</time>
      </trkpt>
      <trkpt lat="46.55355" lon="4.50482">
        <ele>277.603</ele>
        <time>2020-06-11T07:29:17Z</time>
      </trkpt>
      <trkpt lat="46.55352" lon="4.50492">
        <ele>275.603</ele>
        <time>2020-06-11T07:29:22Z</time>
      </trkpt>
      <trkpt lat="46.55351" lon="4.50502">
        <ele>275.603</ele>
        <time>2020-06-11T07:29:28Z</time>
      </trkpt>
      <trkpt lat="46.55349" lon="4.50513">
        <ele>274.603</ele>
        <time>2020-06-11T07:29:34Z</time>
      </trkpt>
      <trkpt lat="46.55347" lon="4.50524">
        <ele>276.603</ele>
        <time>2020-06-11T07:29:39Z</time>
      </trkpt>
      <trkpt lat="46.55343" lon="4.50535">
        <ele>278.603</ele>
        <time>2020-06-11T07:29:44Z</time>
      </trkpt>
      <trkpt lat="46.55341" lon="4.50545">
        <ele>281.603</ele>
        <time>2020-06-11T07:29:51Z</time>
      </trkpt>
      <trkpt lat="46.55336" lon="4.50552">
        <ele>281.603</ele>
        <time>2020-06-11T07:29:56Z</time>
      </trkpt>
      <trkpt lat="46.5533" lon="4.5056">
        <ele>282.603</ele>
        <time>2020-06-11T07:30:02Z</time>
      </trkpt>
      <trkpt lat="46.55325" lon="4.50566">
        <ele>281.603</ele>
        <time>2020-06-11T07:30:08Z</time>
      </trkpt>
      <trkpt lat="46.5532" lon="4.50574">
        <ele>282.603</ele>
        <time>2020-06-11T07:30:14Z</time>
      </trkpt>
      <trkpt lat="46.55316" lon="4.50582">
        <ele>283.603</ele>
        <time>2020-06-11T07:30:19Z</time>
      </trkpt>
      <trkpt lat="46.55313" lon="4.50593">
        <ele>283.603</ele>
        <time>2020-06-11T07:30:25Z</time>
      </trkpt>
      <trkpt lat="46.55311" lon="4.50602">
        <ele>287.603</ele>
        <time>2020-06-11T07:30:30Z</time>
      </trkpt>
      <trkpt lat="46.55306" lon="4.5061">
        <ele>286.603</ele>
        <time>2020-06-11T07:30:35Z</time>
      </trkpt>
      <trkpt lat="46.55302" lon="4.50618">
        <ele>286.603</ele>
        <time>2020-06-11T07:30:41Z</time>
      </trkpt>
      <trkpt lat="46.55296" lon="4.50625">
        <ele>288.603</ele>
        <time>2020-06-11T07:30:46Z</time>
      </trkpt>
      <trkpt lat="46.55291" lon="4.50634">
        <ele>290.603</ele>
        <time>2020-06-11T07:30:51Z</time>
      </trkpt>
      <trkpt lat="46.55285" lon="4.50638">
        <ele>291.602</ele>
        <time>2020-06-11T07:30:56Z</time>
      </trkpt>
      <trkpt lat="46.55279" lon="4.50644">
        <ele>286.602</ele>
        <time>2020-06-11T07:31:02Z</time>
      </trkpt>
      <trkpt lat="46.55272" lon="4.50648">
        <ele>288.602</ele>
        <time>2020-06-11T07:31:08Z</time>
      </trkpt>
      <trkpt lat="46.55266" lon="4.50655">
        <ele>289.602</ele>
        <time>2020-06-11T07:31:15Z</time>
      </trkpt>
      <trkpt lat="46.5526" lon="4.50661">
        <ele>287.602</ele>
        <time>2020-06-11T07:31:23Z</time>
      </trkpt>
      <trkpt lat="46.55253" lon="4.50664">
        <ele>285.602</ele>
        <time>2020-06-11T07:31:28Z</time>
      </trkpt>
      <trkpt lat="46.55247" lon="4.5067">
        <ele>285.602</ele>
        <time>2020-06-11T07:31:34Z</time>
      </trkpt>
      <trkpt lat="46.55241" lon="4.50674">
        <ele>285.602</ele>
        <time>2020-06-11T07:31:39Z</time>
      </trkpt>
      <trkpt lat="46.55233" lon="4.50678">
        <ele>284.602</ele>
        <time>2020-06-11T07:31:47Z</time>
      </trkpt>
      <trkpt lat="46.55228" lon="4.50686">
        <ele>286.602</ele>
        <time>2020-06-11T07:31:52Z</time>
      </trkpt>
      <trkpt lat="46.5522" lon="4.50693">
        <ele>288.602</ele>
        <time>2020-06-11T07:31:57Z</time>
      </trkpt>
      <trkpt lat="46.55213" lon="4.50698">
        <ele>290.602</ele>
        <time>2020-06-11T07:32:04Z</time>
      </trkpt>
      <trkpt lat="46.55209" lon="4.50706">
        <ele>289.602</ele>
        <time>2020-06-11T07:32:09Z</time>
      </trkpt>
      <trkpt lat="46.55211" lon="4.50715">
        <ele>288.602</ele>
        <time>2020-06-11T07:32:15Z</time>
      </trkpt>
      <trkpt lat="46.55214" lon="4.50725">
        <ele>287.602</ele>
        <time>2020-06-11T07:32:20Z</time>
      </trkpt>
      <trkpt lat="46.55216" lon="4.50735">
        <ele>287.602</ele>
        <time>2020-06-11T07:32:25Z</time>
      </trkpt>
      <trkpt lat="46.55216" lon="4.50747">
        <ele>287.602</ele>
        <time>2020-06-11T07:32:30Z</time>
      </trkpt>
      <trkpt lat="46.5522" lon="4.50757">
        <ele>288.602</ele>
        <time>2020-06-11T07:32:36Z</time>
      </trkpt>
      <trkpt lat="46.55219" lon="4.50767">
        <ele>288.602</ele>
        <time>2020-06-11T07:32:42Z</time>
      </trkpt>
      <trkpt lat="46.55225" lon="4.50773">
        <ele>289.602</ele>
        <time>2020-06-11T07:32:51Z</time>
      </trkpt>
      <trkpt lat="46.55231" lon="4.50781">
        <ele>289.602</ele>
        <time>2020-06-11T07:32:56Z</time>
      </trkpt>
      <trkpt lat="46.55235" lon="4.5079">
        <ele>288.602</ele>
        <time>2020-06-11T07:33:01Z</time>
      </trkpt>
      <trkpt lat="46.55239" lon="4.50799">
        <ele>287.602</ele>
        <time>2020-06-11T07:33:06Z</time>
      </trkpt>
      <trkpt lat="46.55244" lon="4.50806">
        <ele>284.603</ele>
        <time>2020-06-11T07:33:12Z</time>
      </trkpt>
      <trkpt lat="46.5525" lon="4.50814">
        <ele>286.603</ele>
        <time>2020-06-11T07:33:17Z</time>
      </trkpt>
      <trkpt lat="46.55256" lon="4.50821">
        <ele>286.603</ele>
        <time>2020-06-11T07:33:22Z</time>
      </trkpt>
      <trkpt lat="46.55261" lon="4.50827">
        <ele>286.603</ele>
        <time>2020-06-11T07:33:29Z</time>
      </trkpt>
      <trkpt lat="46.55266" lon="4.50837">
        <ele>286.603</ele>
        <time>2020-06-11T07:33:34Z</time>
      </trkpt>
      <trkpt lat="46.55273" lon="4.50843">
        <ele>285.603</ele>
        <time>2020-06-11T07:33:39Z</time>
      </trkpt>
      <trkpt lat="46.55278" lon="4.50851">
        <ele>283.603</ele>
        <time>2020-06-11T07:33:44Z</time>
      </trkpt>
      <trkpt lat="46.55285" lon="4.50859">
        <ele>284.603</ele>
        <time>2020-06-11T07:33:49Z</time>
      </trkpt>
      <trkpt lat="46.55291" lon="4.50868">
        <ele>284.603</ele>
        <time>2020-06-11T07:33:54Z</time>
      </trkpt>
      <trkpt lat="46.55296" lon="4.50876">
        <ele>287.603</ele>
        <time>2020-06-11T07:33:59Z</time>
      </trkpt>
      <trkpt lat="46.55302" lon="4.50879">
        <ele>286.603</ele>
        <time>2020-06-11T07:34:06Z</time>
      </trkpt>
      <trkpt lat="46.55307" lon="4.50886">
        <ele>286.603</ele>
        <time>2020-06-11T07:34:12Z</time>
      </trkpt>
      <trkpt lat="46.55314" lon="4.50898">
        <ele>286.603</ele>
        <time>2020-06-11T07:34:17Z</time>
      </trkpt>
      <trkpt lat="46.5532" lon="4.50904">
        <ele>281.603</ele>
        <time>2020-06-11T07:34:22Z</time>
      </trkpt>
      <trkpt lat="46.55326" lon="4.50912">
        <ele>282.603</ele>
        <time>2020-06-11T07:34:27Z</time>
      </trkpt>
      <trkpt lat="46.55331" lon="4.50921">
        <ele>280.603</ele>
        <time>2020-06-11T07:34:32Z</time>
      </trkpt>
      <trkpt lat="46.55338" lon="4.50926">
        <ele>277.603</ele>
        <time>2020-06-11T07:34:37Z</time>
      </trkpt>
      <trkpt lat="46.55344" lon="4.50929">
        <ele>277.603</ele>
        <time>2020-06-11T07:34:42Z</time>
      </trkpt>
      <trkpt lat="46.55351" lon="4.50937">
        <ele>280.603</ele>
        <time>2020-06-11T07:34:50Z</time>
      </trkpt>
      <trkpt lat="46.55357" lon="4.50945">
        <ele>282.603</ele>
        <time>2020-06-11T07:34:55Z</time>
      </trkpt>
      <trkpt lat="46.5536" lon="4.50958">
        <ele>284.603</ele>
        <time>2020-06-11T07:35:00Z</time>
      </trkpt>
      <trkpt lat="46.55364" lon="4.50967">
        <ele>281.603</ele>
        <time>2020-06-11T07:35:06Z</time>
      </trkpt>
      <trkpt lat="46.55365" lon="4.50982">
        <ele>282.603</ele>
        <time>2020-06-11T07:35:11Z</time>
      </trkpt>
      <trkpt lat="46.55366" lon="4.50993">
        <ele>282.603</ele>
        <time>2020-06-11T07:35:16Z</time>
      </trkpt>
      <trkpt lat="46.55366" lon="4.51002">
        <ele>281.603</ele>
        <time>2020-06-11T07:35:21Z</time>
      </trkpt>
      <trkpt lat="46.55369" lon="4.51013">
        <ele>278.603</ele>
        <time>2020-06-11T07:35:26Z</time>
      </trkpt>
      <trkpt lat="46.5537" lon="4.51024">
        <ele>278.603</ele>
        <time>2020-06-11T07:35:32Z</time>
      </trkpt>
      <trkpt lat="46.55372" lon="4.51037">
        <ele>277.603</ele>
        <time>2020-06-11T07:35:37Z</time>
      </trkpt>
      <trkpt lat="46.55373" lon="4.51049">
        <ele>278.603</ele>
        <time>2020-06-11T07:35:42Z</time>
      </trkpt>
      <trkpt lat="46.55372" lon="4.5106">
        <ele>279.603</ele>
        <time>2020-06-11T07:35:48Z</time>
      </trkpt>
      <trkpt lat="46.5537" lon="4.51071">
        <ele>277.603</ele>
        <time>2020-06-11T07:35:53Z</time>
      </trkpt>
      <trkpt lat="46.5537" lon="4.51083">
        <ele>275.603</ele>
        <time>2020-06-11T07:35:58Z</time>
      </trkpt>
      <trkpt lat="46.55369" lon="4.51093">
        <ele>275.603</ele>
        <time>2020-06-11T07:36:03Z</time>
      </trkpt>
      <trkpt lat="46.55368" lon="4.51106">
        <ele>276.603</ele>
        <time>2020-06-11T07:36:08Z</time>
      </trkpt>
      <trkpt lat="46.55369" lon="4.51118">
        <ele>277.603</ele>
        <time>2020-06-11T07:36:13Z</time>
      </trkpt>
      <trkpt lat="46.55369" lon="4.51128">
        <ele>275.603</ele>
        <time>2020-06-11T07:36:19Z</time>
      </trkpt>
      <trkpt lat="46.55369" lon="4.51138">
        <ele>274.603</ele>
        <time>2020-06-11T07:36:24Z</time>
      </trkpt>
      <trkpt lat="46.55369" lon="4.51148">
        <ele>273.603</ele>
        <time>2020-06-11T07:36:29Z</time>
      </trkpt>
      <trkpt lat="46.55366" lon="4.5116">
        <ele>274.603</ele>
        <time>2020-06-11T07:36:34Z</time>
      </trkpt>
      <trkpt lat="46.55365" lon="4.51172">
        <ele>274.603</ele>
        <time>2020-06-11T07:36:39Z</time>
      </trkpt>
      <trkpt lat="46.55364" lon="4.51183">
        <ele>274.603</ele>
        <time>2020-06-11T07:36:44Z</time>
      </trkpt>
      <trkpt lat="46.55365" lon="4.51193">
        <ele>276.603</ele>
        <time>2020-06-11T07:36:49Z</time>
      </trkpt>
      <trkpt lat="46.55366" lon="4.51203">
        <ele>274.603</ele>
        <time>2020-06-11T07:36:54Z</time>
      </trkpt>
      <trkpt lat="46.55365" lon="4.51212">
        <ele>275.603</ele>
        <time>2020-06-11T07:36:59Z</time>
      </trkpt>
      <trkpt lat="46.55364" lon="4.51222">
        <ele>276.603</ele>
        <time>2020-06-11T07:37:04Z</time>
      </trkpt>
      <trkpt lat="46.55365" lon="4.51232">
        <ele>276.603</ele>
        <time>2020-06-11T07:37:09Z</time>
      </trkpt>
      <trkpt lat="46.55364" lon="4.51244">
        <ele>277.603</ele>
        <time>2020-06-11T07:37:14Z</time>
      </trkpt>
      <trkpt lat="46.55365" lon="4.51256">
        <ele>278.603</ele>
        <time>2020-06-11T07:37:19Z</time>
      </trkpt>
      <trkpt lat="46.55364" lon="4.5127">
        <ele>280.603</ele>
        <time>2020-06-11T07:37:24Z</time>
      </trkpt>
      <trkpt lat="46.55363" lon="4.51283">
        <ele>279.603</ele>
        <time>2020-06-11T07:37:29Z</time>
      </trkpt>
      <trkpt lat="46.55362" lon="4.51293">
        <ele>276.603</ele>
        <time>2020-06-11T07:37:35Z</time>
      </trkpt>
      <trkpt lat="46.55361" lon="4.51303">
        <ele>275.603</ele>
        <time>2020-06-11T07:37:40Z</time>
      </trkpt>
      <trkpt lat="46.55359" lon="4.51313">
        <ele>272.603</ele>
        <time>2020-06-11T07:37:45Z</time>
      </trkpt>
      <trkpt lat="46.55358" lon="4.51325">
        <ele>270.603</ele>
        <time>2020-06-11T07:37:50Z</time>
      </trkpt>
      <trkpt lat="46.55358" lon="4.51336">
        <ele>270.603</ele>
        <time>2020-06-11T07:37:55Z</time>
      </trkpt>
      <trkpt lat="46.55356" lon="4.51349">
        <ele>273.603</ele>
        <time>2020-06-11T07:38:00Z</time>
      </trkpt>
      <trkpt lat="46.55353" lon="4.51359">
        <ele>275.603</ele>
        <time>2020-06-11T07:38:06Z</time>
      </trkpt>
      <trkpt lat="46.55352" lon="4.51368">
        <ele>271.603</ele>
        <time>2020-06-11T07:38:12Z</time>
      </trkpt>
      <trkpt lat="46.5535" lon="4.51379">
        <ele>269.603</ele>
        <time>2020-06-11T07:38:18Z</time>
      </trkpt>
      <trkpt lat="46.55349" lon="4.51389">
        <ele>273.603</ele>
        <time>2020-06-11T07:38:23Z</time>
      </trkpt>
      <trkpt lat="46.55349" lon="4.51401">
        <ele>272.603</ele>
        <time>2020-06-11T07:38:29Z</time>
      </trkpt>
      <trkpt lat="46.55347" lon="4.51414">
        <ele>273.603</ele>
        <time>2020-06-11T07:38:34Z</time>
      </trkpt>
      <trkpt lat="46.55346" lon="4.51427">
        <ele>273.603</ele>
        <time>2020-06-11T07:38:39Z</time>
      </trkpt>
      <trkpt lat="46.55343" lon="4.51438">
        <ele>273.603</ele>
        <time>2020-06-11T07:38:44Z</time>
      </trkpt>
      <trkpt lat="46.55342" lon="4.51448">
        <ele>272.603</ele>
        <time>2020-06-11T07:38:51Z</time>
      </trkpt>
      <trkpt lat="46.55338" lon="4.51459">
        <ele>274.603</ele>
        <time>2020-06-11T07:38:56Z</time>
      </trkpt>
      <trkpt lat="46.55336" lon="4.51469">
        <ele>272.603</ele>
        <time>2020-06-11T07:39:01Z</time>
      </trkpt>
      <trkpt lat="46.55333" lon="4.51479">
        <ele>273.603</ele>
        <time>2020-06-11T07:39:07Z</time>
      </trkpt>
      <trkpt lat="46.55331" lon="4.51489">
        <ele>272.603</ele>
        <time>2020-06-11T07:39:12Z</time>
      </trkpt>
      <trkpt lat="46.55328" lon="4.51501">
        <ele>274.603</ele>
        <time>2020-06-11T07:39:17Z</time>
      </trkpt>
      <trkpt lat="46.55327" lon="4.51513">
        <ele>272.603</ele>
        <time>2020-06-11T07:39:23Z</time>
      </trkpt>
      <trkpt lat="46.55324" lon="4.51523">
        <ele>268.603</ele>
        <time>2020-06-11T07:39:28Z</time>
      </trkpt>
      <trkpt lat="46.55322" lon="4.51534">
        <ele>270.603</ele>
        <time>2020-06-11T07:39:33Z</time>
      </trkpt>
      <trkpt lat="46.5532" lon="4.51544">
        <ele>270.603</ele>
        <time>2020-06-11T07:39:38Z</time>
      </trkpt>
      <trkpt lat="46.5532" lon="4.51553">
        <ele>272.603</ele>
        <time>2020-06-11T07:39:43Z</time>
      </trkpt>
      <trkpt lat="46.55317" lon="4.51565">
        <ele>274.603</ele>
        <time>2020-06-11T07:39:48Z</time>
      </trkpt>
      <trkpt lat="46.55316" lon="4.51576">
        <ele>273.603</ele>
        <time>2020-06-11T07:39:53Z</time>
      </trkpt>
      <trkpt lat="46.55315" lon="4.51587">
        <ele>271.603</ele>
        <time>2020-06-11T07:39:59Z</time>
      </trkpt>
      <trkpt lat="46.55312" lon="4.51598">
        <ele>271.603</ele>
        <time>2020-06-11T07:40:04Z</time>
      </trkpt>
      <trkpt lat="46.55311" lon="4.51609">
        <ele>270.603</ele>
        <time>2020-06-11T07:40:09Z</time>
      </trkpt>
      <trkpt lat="46.55308" lon="4.5162">
        <ele>271.603</ele>
        <time>2020-06-11T07:40:14Z</time>
      </trkpt>
      <trkpt lat="46.55306" lon="4.51631">
        <ele>270.603</ele>
        <time>2020-06-11T07:40:19Z</time>
      </trkpt>
      <trkpt lat="46.55305" lon="4.51642">
        <ele>267.603</ele>
        <time>2020-06-11T07:40:24Z</time>
      </trkpt>
      <trkpt lat="46.55301" lon="4.51653">
        <ele>268.603</ele>
        <time>2020-06-11T07:40:29Z</time>
      </trkpt>
      <trkpt lat="46.553" lon="4.51663">
        <ele>268.603</ele>
        <time>2020-06-11T07:40:34Z</time>
      </trkpt>
      <trkpt lat="46.55297" lon="4.51676">
        <ele>269.603</ele>
        <time>2020-06-11T07:40:39Z</time>
      </trkpt>
      <trkpt lat="46.55297" lon="4.51686">
        <ele>266.603</ele>
        <time>2020-06-11T07:40:45Z</time>
      </trkpt>
      <trkpt lat="46.55296" lon="4.51696">
        <ele>265.603</ele>
        <time>2020-06-11T07:40:50Z</time>
      </trkpt>
      <trkpt lat="46.55294" lon="4.51706">
        <ele>264.603</ele>
        <time>2020-06-11T07:40:55Z</time>
      </trkpt>
      <trkpt lat="46.55293" lon="4.51716">
        <ele>264.603</ele>
        <time>2020-06-11T07:41:00Z</time>
      </trkpt>
      <trkpt lat="46.55291" lon="4.51726">
        <ele>260.603</ele>
        <time>2020-06-11T07:41:05Z</time>
      </trkpt>
      <trkpt lat="46.5529" lon="4.51736">
        <ele>260.603</ele>
        <time>2020-06-11T07:41:10Z</time>
      </trkpt>
      <trkpt lat="46.55288" lon="4.51747">
        <ele>260.603</ele>
        <time>2020-06-11T07:41:15Z</time>
      </trkpt>
      <trkpt lat="46.55287" lon="4.51757">
        <ele>262.603</ele>
        <time>2020-06-11T07:41:20Z</time>
      </trkpt>
      <trkpt lat="46.55286" lon="4.51767">
        <ele>261.603</ele>
        <time>2020-06-11T07:41:25Z</time>
      </trkpt>
      <trkpt lat="46.55283" lon="4.51777">
        <ele>264.603</ele>
        <time>2020-06-11T07:41:30Z</time>
      </trkpt>
      <trkpt lat="46.5528" lon="4.51789">
        <ele>264.603</ele>
        <time>2020-06-11T07:41:35Z</time>
      </trkpt>
      <trkpt lat="46.55278" lon="4.51802">
        <ele>264.603</ele>
        <time>2020-06-11T07:41:40Z</time>
      </trkpt>
      <trkpt lat="46.55276" lon="4.51815">
        <ele>266.603</ele>
        <time>2020-06-11T07:41:45Z</time>
      </trkpt>
      <trkpt lat="46.55275" lon="4.51826">
        <ele>264.603</ele>
        <time>2020-06-11T07:41:50Z</time>
      </trkpt>
      <trkpt lat="46.55275" lon="4.51838">
        <ele>266.603</ele>
        <time>2020-06-11T07:41:55Z</time>
      </trkpt>
      <trkpt lat="46.55274" lon="4.51848">
        <ele>266.603</ele>
        <time>2020-06-11T07:42:00Z</time>
      </trkpt>
      <trkpt lat="46.55273" lon="4.51859">
        <ele>263.603</ele>
        <time>2020-06-11T07:42:05Z</time>
      </trkpt>
      <trkpt lat="46.55274" lon="4.51871">
        <ele>265.603</ele>
        <time>2020-06-11T07:42:10Z</time>
      </trkpt>
      <trkpt lat="46.55272" lon="4.51885">
        <ele>265.603</ele>
        <time>2020-06-11T07:42:15Z</time>
      </trkpt>
      <trkpt lat="46.5527" lon="4.51896">
        <ele>263.603</ele>
        <time>2020-06-11T07:42:20Z</time>
      </trkpt>
      <trkpt lat="46.55268" lon="4.51905">
        <ele>264.603</ele>
        <time>2020-06-11T07:42:25Z</time>
      </trkpt>
      <trkpt lat="46.55267" lon="4.51914">
        <ele>260.603</ele>
        <time>2020-06-11T07:42:32Z</time>
      </trkpt>
      <trkpt lat="46.55265" lon="4.51926">
        <ele>261.603</ele>
        <time>2020-06-11T07:42:37Z</time>
      </trkpt>
      <trkpt lat="46.55262" lon="4.51938">
        <ele>262.603</ele>
        <time>2020-06-11T07:42:42Z</time>
      </trkpt>
      <trkpt lat="46.5526" lon="4.51951">
        <ele>263.603</ele>
        <time>2020-06-11T07:42:47Z</time>
      </trkpt>
      <trkpt lat="46.55257" lon="4.51966">
        <ele>265.603</ele>
        <time>2020-06-11T07:42:52Z</time>
      </trkpt>
      <trkpt lat="46.55257" lon="4.51977">
        <ele>265.603</ele>
        <time>2020-06-11T07:42:57Z</time>
      </trkpt>
      <trkpt lat="46.55255" lon="4.51987">
        <ele>265.603</ele>
        <time>2020-06-11T07:43:02Z</time>
      </trkpt>
      <trkpt lat="46.55254" lon="4.51998">
        <ele>268.603</ele>
        <time>2020-06-11T07:43:07Z</time>
      </trkpt>
      <trkpt lat="46.55253" lon="4.52007">
        <ele>268.603</ele>
        <time>2020-06-11T07:43:12Z</time>
      </trkpt>
      <trkpt lat="46.55253" lon="4.52019">
        <ele>269.603</ele>
        <time>2020-06-11T07:43:18Z</time>
      </trkpt>
      <trkpt lat="46.55253" lon="4.52029">
        <ele>270.603</ele>
        <time>2020-06-11T07:43:23Z</time>
      </trkpt>
      <trkpt lat="46.55254" lon="4.52041">
        <ele>266.603</ele>
        <time>2020-06-11T07:43:29Z</time>
      </trkpt>
      <trkpt lat="46.55253" lon="4.52051">
        <ele>265.603</ele>
        <time>2020-06-11T07:43:34Z</time>
      </trkpt>
      <trkpt lat="46.55247" lon="4.52062">
        <ele>264.603</ele>
        <time>2020-06-11T07:43:39Z</time>
      </trkpt>
      <trkpt lat="46.55244" lon="4.5208">
        <ele>265.603</ele>
        <time>2020-06-11T07:43:44Z</time>
      </trkpt>
      <trkpt lat="46.55245" lon="4.52092">
        <ele>264.603</ele>
        <time>2020-06-11T07:43:49Z</time>
      </trkpt>
      <trkpt lat="46.55246" lon="4.52101">
        <ele>267.603</ele>
        <time>2020-06-11T07:43:55Z</time>
      </trkpt>
      <trkpt lat="46.55245" lon="4.52112">
        <ele>267.603</ele>
        <time>2020-06-11T07:44:00Z</time>
      </trkpt>
      <trkpt lat="46.55244" lon="4.52124">
        <ele>263.603</ele>
        <time>2020-06-11T07:44:05Z</time>
      </trkpt>
      <trkpt lat="46.55242" lon="4.52135">
        <ele>263.603</ele>
        <time>2020-06-11T07:44:11Z</time>
      </trkpt>
      <trkpt lat="46.55243" lon="4.52149">
        <ele>263.603</ele>
        <time>2020-06-11T07:44:16Z</time>
      </trkpt>
      <trkpt lat="46.55243" lon="4.52162">
        <ele>264.603</ele>
        <time>2020-06-11T07:44:21Z</time>
      </trkpt>
      <trkpt lat="46.55243" lon="4.52172">
        <ele>264.603</ele>
        <time>2020-06-11T07:44:26Z</time>
      </trkpt>
      <trkpt lat="46.55243" lon="4.52182">
        <ele>263.603</ele>
        <time>2020-06-11T07:44:31Z</time>
      </trkpt>
      <trkpt lat="46.55244" lon="4.52193">
        <ele>263.604</ele>
        <time>2020-06-11T07:44:36Z</time>
      </trkpt>
      <trkpt lat="46.55244" lon="4.52204">
        <ele>263.604</ele>
        <time>2020-06-11T07:44:42Z</time>
      </trkpt>
      <trkpt lat="46.55245" lon="4.52216">
        <ele>263.604</ele>
        <time>2020-06-11T07:44:47Z</time>
      </trkpt>
      <trkpt lat="46.55244" lon="4.52227">
        <ele>260.604</ele>
        <time>2020-06-11T07:44:53Z</time>
      </trkpt>
      <trkpt lat="46.55244" lon="4.52237">
        <ele>260.604</ele>
        <time>2020-06-11T07:44:58Z</time>
      </trkpt>
      <trkpt lat="46.55245" lon="4.52246">
        <ele>256.604</ele>
        <time>2020-06-11T07:45:05Z</time>
      </trkpt>
      <trkpt lat="46.55247" lon="4.52258">
        <ele>256.604</ele>
        <time>2020-06-11T07:45:11Z</time>
      </trkpt>
      <trkpt lat="46.55247" lon="4.52269">
        <ele>255.604</ele>
        <time>2020-06-11T07:45:17Z</time>
      </trkpt>
      <trkpt lat="46.55245" lon="4.52281">
        <ele>254.604</ele>
        <time>2020-06-11T07:45:22Z</time>
      </trkpt>
      <trkpt lat="46.55245" lon="4.52293">
        <ele>252.604</ele>
        <time>2020-06-11T07:45:28Z</time>
      </trkpt>
      <trkpt lat="46.55245" lon="4.52305">
        <ele>255.604</ele>
        <time>2020-06-11T07:45:33Z</time>
      </trkpt>
      <trkpt lat="46.55247" lon="4.52316">
        <ele>254.604</ele>
        <time>2020-06-11T07:45:38Z</time>
      </trkpt>
      <trkpt lat="46.55245" lon="4.52327">
        <ele>253.604</ele>
        <time>2020-06-11T07:45:45Z</time>
      </trkpt>
      <trkpt lat="46.55244" lon="4.52338">
        <ele>254.604</ele>
        <time>2020-06-11T07:45:50Z</time>
      </trkpt>
      <trkpt lat="46.55244" lon="4.52349">
        <ele>253.604</ele>
        <time>2020-06-11T07:45:55Z</time>
      </trkpt>
      <trkpt lat="46.55244" lon="4.52361">
        <ele>255.604</ele>
        <time>2020-06-11T07:46:00Z</time>
      </trkpt>
      <trkpt lat="46.55243" lon="4.52371">
        <ele>253.604</ele>
        <time>2020-06-11T07:46:06Z</time>
      </trkpt>
      <trkpt lat="46.55241" lon="4.52382">
        <ele>253.604</ele>
        <time>2020-06-11T07:46:12Z</time>
      </trkpt>
      <trkpt lat="46.55248" lon="4.52386">
        <ele>257.604</ele>
        <time>2020-06-11T07:46:19Z</time>
      </trkpt>
      <trkpt lat="46.55255" lon="4.52389">
        <ele>256.604</ele>
        <time>2020-06-11T07:46:28Z</time>
      </trkpt>
      <trkpt lat="46.55261" lon="4.52392">
        <ele>259.604</ele>
        <time>2020-06-11T07:46:33Z</time>
      </trkpt>
      <trkpt lat="46.55266" lon="4.52401">
        <ele>259.604</ele>
        <time>2020-06-11T07:46:39Z</time>
      </trkpt>
      <trkpt lat="46.55267" lon="4.52411">
        <ele>257.604</ele>
        <time>2020-06-11T07:46:44Z</time>
      </trkpt>
      <trkpt lat="46.55267" lon="4.52424">
        <ele>258.604</ele>
        <time>2020-06-11T07:46:49Z</time>
      </trkpt>
      <trkpt lat="46.55267" lon="4.52435">
        <ele>257.604</ele>
        <time>2020-06-11T07:46:54Z</time>
      </trkpt>
      <trkpt lat="46.55268" lon="4.52445">
        <ele>254.604</ele>
        <time>2020-06-11T07:47:00Z</time>
      </trkpt>
      <trkpt lat="46.55268" lon="4.52459">
        <ele>257.604</ele>
        <time>2020-06-11T07:47:05Z</time>
      </trkpt>
      <trkpt lat="46.55267" lon="4.52469">
        <ele>259.604</ele>
        <time>2020-06-11T07:47:10Z</time>
      </trkpt>
      <trkpt lat="46.55267" lon="4.5248">
        <ele>254.604</ele>
        <time>2020-06-11T07:49:54Z</time>
      </trkpt>
      <trkpt lat="46.55265" lon="4.52497">
        <ele>254.604</ele>
        <time>2020-06-11T07:49:59Z</time>
      </trkpt>
      <trkpt lat="46.55264" lon="4.52506">
        <ele>254.604</ele>
        <time>2020-06-11T07:50:04Z</time>
      </trkpt>
      <trkpt lat="46.55268" lon="4.52515">
        <ele>253.604</ele>
        <time>2020-06-11T07:50:09Z</time>
      </trkpt>
      <trkpt lat="46.55269" lon="4.52529">
        <ele>252.604</ele>
        <time>2020-06-11T07:50:14Z</time>
      </trkpt>
      <trkpt lat="46.55267" lon="4.52543">
        <ele>256.604</ele>
        <time>2020-06-11T07:50:19Z</time>
      </trkpt>
      <trkpt lat="46.55266" lon="4.52556">
        <ele>256.604</ele>
        <time>2020-06-11T07:50:24Z</time>
      </trkpt>
      <trkpt lat="46.55269" lon="4.52565">
        <ele>257.604</ele>
        <time>2020-06-11T07:50:29Z</time>
      </trkpt>
      <trkpt lat="46.55267" lon="4.52578">
        <ele>256.604</ele>
        <time>2020-06-11T07:50:34Z</time>
      </trkpt>
      <trkpt lat="46.55267" lon="4.5259">
        <ele>257.604</ele>
        <time>2020-06-11T07:50:40Z</time>
      </trkpt>
      <trkpt lat="46.55268" lon="4.52602">
        <ele>254.604</ele>
        <time>2020-06-11T07:50:45Z</time>
      </trkpt>
      <trkpt lat="46.55268" lon="4.52615">
        <ele>254.604</ele>
        <time>2020-06-11T07:50:50Z</time>
      </trkpt>
      <trkpt lat="46.5527" lon="4.52626">
        <ele>251.604</ele>
        <time>2020-06-11T07:50:55Z</time>
      </trkpt>
      <trkpt lat="46.55268" lon="4.52639">
        <ele>252.604</ele>
        <time>2020-06-11T07:51:00Z</time>
      </trkpt>
      <trkpt lat="46.55266" lon="4.52651">
        <ele>256.604</ele>
        <time>2020-06-11T07:51:05Z</time>
      </trkpt>
      <trkpt lat="46.55265" lon="4.52664">
        <ele>259.604</ele>
        <time>2020-06-11T07:51:10Z</time>
      </trkpt>
      <trkpt lat="46.55269" lon="4.52674">
        <ele>259.604</ele>
        <time>2020-06-11T07:51:16Z</time>
      </trkpt>
      <trkpt lat="46.55267" lon="4.52684">
        <ele>258.604</ele>
        <time>2020-06-11T07:51:21Z</time>
      </trkpt>
      <trkpt lat="46.55269" lon="4.52696">
        <ele>257.604</ele>
        <time>2020-06-11T07:51:26Z</time>
      </trkpt>
      <trkpt lat="46.55269" lon="4.52707">
        <ele>258.604</ele>
        <time>2020-06-11T07:51:31Z</time>
      </trkpt>
      <trkpt lat="46.55269" lon="4.52718">
        <ele>258.604</ele>
        <time>2020-06-11T07:51:36Z</time>
      </trkpt>
      <trkpt lat="46.55268" lon="4.52729">
        <ele>257.604</ele>
        <time>2020-06-11T07:51:41Z</time>
      </trkpt>
      <trkpt lat="46.55268" lon="4.52742">
        <ele>256.604</ele>
        <time>2020-06-11T07:51:46Z</time>
      </trkpt>
      <trkpt lat="46.55269" lon="4.52752">
        <ele>254.604</ele>
        <time>2020-06-11T07:51:51Z</time>
      </trkpt>
      <trkpt lat="46.55271" lon="4.52761">
        <ele>252.604</ele>
        <time>2020-06-11T07:51:57Z</time>
      </trkpt>
      <trkpt lat="46.55273" lon="4.5277">
        <ele>250.604</ele>
        <time>2020-06-11T07:52:02Z</time>
      </trkpt>
      <trkpt lat="46.55273" lon="4.52782">
        <ele>251.604</ele>
        <time>2020-06-11T07:52:07Z</time>
      </trkpt>
      <trkpt lat="46.55272" lon="4.52794">
        <ele>248.604</ele>
        <time>2020-06-11T07:52:12Z</time>
      </trkpt>
      <trkpt lat="46.55272" lon="4.52806">
        <ele>249.604</ele>
        <time>2020-06-11T07:52:17Z</time>
      </trkpt>
      <trkpt lat="46.55271" lon="4.52819">
        <ele>250.604</ele>
        <time>2020-06-11T07:52:22Z</time>
      </trkpt>
      <trkpt lat="46.55271" lon="4.5283">
        <ele>249.604</ele>
        <time>2020-06-11T07:52:28Z</time>
      </trkpt>
      <trkpt lat="46.55271" lon="4.52843">
        <ele>251.604</ele>
        <time>2020-06-11T07:52:33Z</time>
      </trkpt>
      <trkpt lat="46.55271" lon="4.52853">
        <ele>251.604</ele>
        <time>2020-06-11T07:52:38Z</time>
      </trkpt>
      <trkpt lat="46.5527" lon="4.52865">
        <ele>251.604</ele>
        <time>2020-06-11T07:52:43Z</time>
      </trkpt>
      <trkpt lat="46.55269" lon="4.52875">
        <ele>252.604</ele>
        <time>2020-06-11T07:52:48Z</time>
      </trkpt>
      <trkpt lat="46.5527" lon="4.52885">
        <ele>250.604</ele>
        <time>2020-06-11T07:52:53Z</time>
      </trkpt>
      <trkpt lat="46.55269" lon="4.52898">
        <ele>251.604</ele>
        <time>2020-06-11T07:52:58Z</time>
      </trkpt>
      <trkpt lat="46.55267" lon="4.5291">
        <ele>255.604</ele>
        <time>2020-06-11T07:53:03Z</time>
      </trkpt>
      <trkpt lat="46.55269" lon="4.52923">
        <ele>256.604</ele>
        <time>2020-06-11T07:53:08Z</time>
      </trkpt>
      <trkpt lat="46.55272" lon="4.52933">
        <ele>253.604</ele>
        <time>2020-06-11T07:53:13Z</time>
      </trkpt>
      <trkpt lat="46.55273" lon="4.52944">
        <ele>249.604</ele>
        <time>2020-06-11T07:53:19Z</time>
      </trkpt>
      <trkpt lat="46.55271" lon="4.52955">
        <ele>248.604</ele>
        <time>2020-06-11T07:53:24Z</time>
      </trkpt>
      <trkpt lat="46.55271" lon="4.52968">
        <ele>251.604</ele>
        <time>2020-06-11T07:53:29Z</time>
      </trkpt>
      <trkpt lat="46.55271" lon="4.52978">
        <ele>249.604</ele>
        <time>2020-06-11T07:53:34Z</time>
      </trkpt>
      <trkpt lat="46.55271" lon="4.52989">
        <ele>248.604</ele>
        <time>2020-06-11T07:53:39Z</time>
      </trkpt>
      <trkpt lat="46.55272" lon="4.53001">
        <ele>248.604</ele>
        <time>2020-06-11T07:53:44Z</time>
      </trkpt>
      <trkpt lat="46.55273" lon="4.53012">
        <ele>246.604</ele>
        <time>2020-06-11T07:53:49Z</time>
      </trkpt>
      <trkpt lat="46.55273" lon="4.53023">
        <ele>246.604</ele>
        <time>2020-06-11T07:53:54Z</time>
      </trkpt>
      <trkpt lat="46.55273" lon="4.53034">
        <ele>244.604</ele>
        <time>2020-06-11T07:54:00Z</time>
      </trkpt>
      <trkpt lat="46.55273" lon="4.53046">
        <ele>244.604</ele>
        <time>2020-06-11T07:54:05Z</time>
      </trkpt>
      <trkpt lat="46.55273" lon="4.53056">
        <ele>246.604</ele>
        <time>2020-06-11T07:54:10Z</time>
      </trkpt>
      <trkpt lat="46.55272" lon="4.53067">
        <ele>246.604</ele>
        <time>2020-06-11T07:54:16Z</time>
      </trkpt>
      <trkpt lat="46.5527" lon="4.53076">
        <ele>246.604</ele>
        <time>2020-06-11T07:55:33Z</time>
      </trkpt>
      <trkpt lat="46.55272" lon="4.53086">
        <ele>244.604</ele>
        <time>2020-06-11T07:55:38Z</time>
      </trkpt>
      <trkpt lat="46.55271" lon="4.53098">
        <ele>247.604</ele>
        <time>2020-06-11T07:55:43Z</time>
      </trkpt>
      <trkpt lat="46.55271" lon="4.53108">
        <ele>247.604</ele>
        <time>2020-06-11T07:55:48Z</time>
      </trkpt>
      <trkpt lat="46.55273" lon="4.53118">
        <ele>246.604</ele>
        <time>2020-06-11T07:55:55Z</time>
      </trkpt>
      <trkpt lat="46.55274" lon="4.53128">
        <ele>243.604</ele>
        <time>2020-06-11T07:56:00Z</time>
      </trkpt>
      <trkpt lat="46.55272" lon="4.53138">
        <ele>243.604</ele>
        <time>2020-06-11T07:56:05Z</time>
      </trkpt>
      <trkpt lat="46.55273" lon="4.53148">
        <ele>245.604</ele>
        <time>2020-06-11T07:56:10Z</time>
      </trkpt>
      <trkpt lat="46.55273" lon="4.5316">
        <ele>243.604</ele>
        <time>2020-06-11T07:56:17Z</time>
      </trkpt>
      <trkpt lat="46.55275" lon="4.53169">
        <ele>244.604</ele>
        <time>2020-06-11T07:56:22Z</time>
      </trkpt>
      <trkpt lat="46.55276" lon="4.53181">
        <ele>244.604</ele>
        <time>2020-06-11T07:56:27Z</time>
      </trkpt>
      <trkpt lat="46.55274" lon="4.53192">
        <ele>244.604</ele>
        <time>2020-06-11T07:56:32Z</time>
      </trkpt>
      <trkpt lat="46.55273" lon="4.53204">
        <ele>243.604</ele>
        <time>2020-06-11T07:56:37Z</time>
      </trkpt>
      <trkpt lat="46.55275" lon="4.53214">
        <ele>245.604</ele>
        <time>2020-06-11T07:56:42Z</time>
      </trkpt>
      <trkpt lat="46.55278" lon="4.53223">
        <ele>245.604</ele>
        <time>2020-06-11T07:56:47Z</time>
      </trkpt>
      <trkpt lat="46.55277" lon="4.53235">
        <ele>245.604</ele>
        <time>2020-06-11T07:56:52Z</time>
      </trkpt>
      <trkpt lat="46.55277" lon="4.53247">
        <ele>240.604</ele>
        <time>2020-06-11T07:56:57Z</time>
      </trkpt>
      <trkpt lat="46.55276" lon="4.53259">
        <ele>243.604</ele>
        <time>2020-06-11T07:57:02Z</time>
      </trkpt>
      <trkpt lat="46.55275" lon="4.53273">
        <ele>243.604</ele>
        <time>2020-06-11T07:57:07Z</time>
      </trkpt>
      <trkpt lat="46.55276" lon="4.53284">
        <ele>244.604</ele>
        <time>2020-06-11T07:57:12Z</time>
      </trkpt>
      <trkpt lat="46.55272" lon="4.53297">
        <ele>247.604</ele>
        <time>2020-06-11T07:57:17Z</time>
      </trkpt>
      <trkpt lat="46.55271" lon="4.53307">
        <ele>244.604</ele>
        <time>2020-06-11T07:57:25Z</time>
      </trkpt>
      <trkpt lat="46.55273" lon="4.53317">
        <ele>246.604</ele>
        <time>2020-06-11T07:57:30Z</time>
      </trkpt>
      <trkpt lat="46.55275" lon="4.53327">
        <ele>244.604</ele>
        <time>2020-06-11T07:57:35Z</time>
      </trkpt>
      <trkpt lat="46.55272" lon="4.53341">
        <ele>241.604</ele>
        <time>2020-06-11T07:57:40Z</time>
      </trkpt>
      <trkpt lat="46.55272" lon="4.53354">
        <ele>241.604</ele>
        <time>2020-06-11T07:57:45Z</time>
      </trkpt>
      <trkpt lat="46.55269" lon="4.53366">
        <ele>242.604</ele>
        <time>2020-06-11T07:57:50Z</time>
      </trkpt>
      <trkpt lat="46.55268" lon="4.53377">
        <ele>246.604</ele>
        <time>2020-06-11T07:57:55Z</time>
      </trkpt>
      <trkpt lat="46.55263" lon="4.53388">
        <ele>249.604</ele>
        <time>2020-06-11T07:58:09Z</time>
      </trkpt>
      <trkpt lat="46.55259" lon="4.53402">
        <ele>253.604</ele>
        <time>2020-06-11T07:58:14Z</time>
      </trkpt>
      <trkpt lat="46.55255" lon="4.53418">
        <ele>254.604</ele>
        <time>2020-06-11T07:58:19Z</time>
      </trkpt>
      <trkpt lat="46.55254" lon="4.53431">
        <ele>252.604</ele>
        <time>2020-06-11T07:58:24Z</time>
      </trkpt>
      <trkpt lat="46.55247" lon="4.53446">
        <ele>254.604</ele>
        <time>2020-06-11T07:58:29Z</time>
      </trkpt>
      <trkpt lat="46.55245" lon="4.53455">
        <ele>253.604</ele>
        <time>2020-06-11T07:58:34Z</time>
      </trkpt>
      <trkpt lat="46.55242" lon="4.53465">
        <ele>252.604</ele>
        <time>2020-06-11T07:58:41Z</time>
      </trkpt>
      <trkpt lat="46.55239" lon="4.53474">
        <ele>254.604</ele>
        <time>2020-06-11T07:58:47Z</time>
      </trkpt>
      <trkpt lat="46.55234" lon="4.53483">
        <ele>254.604</ele>
        <time>2020-06-11T07:58:52Z</time>
      </trkpt>
      <trkpt lat="46.55233" lon="4.53493">
        <ele>255.604</ele>
        <time>2020-06-11T07:58:57Z</time>
      </trkpt>
      <trkpt lat="46.55229" lon="4.53501">
        <ele>254.604</ele>
        <time>2020-06-11T07:59:02Z</time>
      </trkpt>
      <trkpt lat="46.55225" lon="4.53509">
        <ele>251.604</ele>
        <time>2020-06-11T07:59:07Z</time>
      </trkpt>
      <trkpt lat="46.55222" lon="4.53518">
        <ele>248.604</ele>
        <time>2020-06-11T07:59:13Z</time>
      </trkpt>
      <trkpt lat="46.55221" lon="4.53529">
        <ele>247.604</ele>
        <time>2020-06-11T07:59:20Z</time>
      </trkpt>
      <trkpt lat="46.55216" lon="4.53542">
        <ele>248.604</ele>
        <time>2020-06-11T07:59:25Z</time>
      </trkpt>
      <trkpt lat="46.55214" lon="4.53552">
        <ele>251.604</ele>
        <time>2020-06-11T07:59:31Z</time>
      </trkpt>
      <trkpt lat="46.55212" lon="4.53562">
        <ele>250.604</ele>
        <time>2020-06-11T07:59:36Z</time>
      </trkpt>
      <trkpt lat="46.5521" lon="4.53573">
        <ele>251.604</ele>
        <time>2020-06-11T07:59:41Z</time>
      </trkpt>
      <trkpt lat="46.55209" lon="4.53582">
        <ele>252.604</ele>
        <time>2020-06-11T07:59:46Z</time>
      </trkpt>
      <trkpt lat="46.55208" lon="4.53594">
        <ele>252.604</ele>
        <time>2020-06-11T07:59:52Z</time>
      </trkpt>
      <trkpt lat="46.55208" lon="4.53605">
        <ele>251.604</ele>
        <time>2020-06-11T07:59:57Z</time>
      </trkpt>
      <trkpt lat="46.55209" lon="4.53616">
        <ele>250.604</ele>
        <time>2020-06-11T08:00:02Z</time>
      </trkpt>
      <trkpt lat="46.55208" lon="4.53627">
        <ele>248.604</ele>
        <time>2020-06-11T08:00:09Z</time>
      </trkpt>
      <trkpt lat="46.55207" lon="4.53636">
        <ele>245.604</ele>
        <time>2020-06-11T08:00:14Z</time>
      </trkpt>
      <trkpt lat="46.55205" lon="4.53646">
        <ele>244.604</ele>
        <time>2020-06-11T08:00:20Z</time>
      </trkpt>
      <trkpt lat="46.55203" lon="4.53656">
        <ele>243.604</ele>
        <time>2020-06-11T08:00:25Z</time>
      </trkpt>
      <trkpt lat="46.55203" lon="4.53667">
        <ele>241.604</ele>
        <time>2020-06-11T08:00:31Z</time>
      </trkpt>
      <trkpt lat="46.55205" lon="4.53676">
        <ele>238.604</ele>
        <time>2020-06-11T08:00:36Z</time>
      </trkpt>
      <trkpt lat="46.55205" lon="4.53687">
        <ele>235.604</ele>
        <time>2020-06-11T08:00:41Z</time>
      </trkpt>
      <trkpt lat="46.55204" lon="4.53697">
        <ele>236.604</ele>
        <time>2020-06-11T08:00:46Z</time>
      </trkpt>
      <trkpt lat="46.55202" lon="4.5371">
        <ele>235.604</ele>
        <time>2020-06-11T08:00:51Z</time>
      </trkpt>
      <trkpt lat="46.55204" lon="4.5372">
        <ele>234.605</ele>
        <time>2020-06-11T08:00:56Z</time>
      </trkpt>
      <trkpt lat="46.55201" lon="4.5373">
        <ele>236.605</ele>
        <time>2020-06-11T08:01:01Z</time>
      </trkpt>
      <trkpt lat="46.55203" lon="4.53741">
        <ele>236.605</ele>
        <time>2020-06-11T08:01:07Z</time>
      </trkpt>
      <trkpt lat="46.55199" lon="4.53754">
        <ele>233.605</ele>
        <time>2020-06-11T08:01:12Z</time>
      </trkpt>
      <trkpt lat="46.55201" lon="4.53764">
        <ele>236.605</ele>
        <time>2020-06-11T08:01:17Z</time>
      </trkpt>
      <trkpt lat="46.55199" lon="4.53776">
        <ele>233.605</ele>
        <time>2020-06-11T08:01:22Z</time>
      </trkpt>
      <trkpt lat="46.552" lon="4.53787">
        <ele>231.605</ele>
        <time>2020-06-11T08:01:28Z</time>
      </trkpt>
      <trkpt lat="46.55202" lon="4.53797">
        <ele>231.605</ele>
        <time>2020-06-11T08:01:34Z</time>
      </trkpt>
      <trkpt lat="46.55202" lon="4.53809">
        <ele>233.605</ele>
        <time>2020-06-11T08:01:39Z</time>
      </trkpt>
      <trkpt lat="46.55201" lon="4.53819">
        <ele>231.605</ele>
        <time>2020-06-11T08:01:44Z</time>
      </trkpt>
      <trkpt lat="46.55203" lon="4.53831">
        <ele>230.605</ele>
        <time>2020-06-11T08:01:49Z</time>
      </trkpt>
      <trkpt lat="46.55203" lon="4.53843">
        <ele>229.605</ele>
        <time>2020-06-11T08:01:54Z</time>
      </trkpt>
      <trkpt lat="46.55203" lon="4.53853">
        <ele>227.605</ele>
        <time>2020-06-11T08:02:04Z</time>
      </trkpt>
      <trkpt lat="46.55204" lon="4.53866">
        <ele>225.605</ele>
        <time>2020-06-11T08:02:09Z</time>
      </trkpt>
      <trkpt lat="46.55207" lon="4.53877">
        <ele>226.605</ele>
        <time>2020-06-11T08:02:14Z</time>
      </trkpt>
      <trkpt lat="46.5521" lon="4.53893">
        <ele>226.605</ele>
        <time>2020-06-11T08:02:19Z</time>
      </trkpt>
      <trkpt lat="46.55217" lon="4.539">
        <ele>228.605</ele>
        <time>2020-06-11T08:02:27Z</time>
      </trkpt>
      <trkpt lat="46.55224" lon="4.53906">
        <ele>227.605</ele>
        <time>2020-06-11T08:02:33Z</time>
      </trkpt>
      <trkpt lat="46.5523" lon="4.53909">
        <ele>229.605</ele>
        <time>2020-06-11T08:02:38Z</time>
      </trkpt>
      <trkpt lat="46.55237" lon="4.53915">
        <ele>230.605</ele>
        <time>2020-06-11T08:02:44Z</time>
      </trkpt>
      <trkpt lat="46.55246" lon="4.53917">
        <ele>232.605</ele>
        <time>2020-06-11T08:02:49Z</time>
      </trkpt>
      <trkpt lat="46.55255" lon="4.53919">
        <ele>230.605</ele>
        <time>2020-06-11T08:02:56Z</time>
      </trkpt>
      <trkpt lat="46.55263" lon="4.53922">
        <ele>228.605</ele>
        <time>2020-06-11T08:03:01Z</time>
      </trkpt>
      <trkpt lat="46.55269" lon="4.53924">
        <ele>225.605</ele>
        <time>2020-06-11T08:03:06Z</time>
      </trkpt>
      <trkpt lat="46.55278" lon="4.53924">
        <ele>225.605</ele>
        <time>2020-06-11T08:03:11Z</time>
      </trkpt>
      <trkpt lat="46.55286" lon="4.53927">
        <ele>226.605</ele>
        <time>2020-06-11T08:03:16Z</time>
      </trkpt>
      <trkpt lat="46.55293" lon="4.5393">
        <ele>226.605</ele>
        <time>2020-06-11T08:03:21Z</time>
      </trkpt>
      <trkpt lat="46.55301" lon="4.53933">
        <ele>227.605</ele>
        <time>2020-06-11T08:03:26Z</time>
      </trkpt>
      <trkpt lat="46.55309" lon="4.53936">
        <ele>227.605</ele>
        <time>2020-06-11T08:03:31Z</time>
      </trkpt>
      <trkpt lat="46.55316" lon="4.53939">
        <ele>230.605</ele>
        <time>2020-06-11T08:03:36Z</time>
      </trkpt>
      <trkpt lat="46.55323" lon="4.5394">
        <ele>231.605</ele>
        <time>2020-06-11T08:03:41Z</time>
      </trkpt>
      <trkpt lat="46.5533" lon="4.53941">
        <ele>231.605</ele>
        <time>2020-06-11T08:03:46Z</time>
      </trkpt>
      <trkpt lat="46.55337" lon="4.53939">
        <ele>233.605</ele>
        <time>2020-06-11T08:03:52Z</time>
      </trkpt>
      <trkpt lat="46.55344" lon="4.53944">
        <ele>235.605</ele>
        <time>2020-06-11T08:03:57Z</time>
      </trkpt>
      <trkpt lat="46.55351" lon="4.53945">
        <ele>234.605</ele>
        <time>2020-06-11T08:04:02Z</time>
      </trkpt>
      <trkpt lat="46.55358" lon="4.53952">
        <ele>233.605</ele>
        <time>2020-06-11T08:04:07Z</time>
      </trkpt>
      <trkpt lat="46.55365" lon="4.53958">
        <ele>232.605</ele>
        <time>2020-06-11T08:04:12Z</time>
      </trkpt>
      <trkpt lat="46.55367" lon="4.53971">
        <ele>230.605</ele>
        <time>2020-06-11T08:04:17Z</time>
      </trkpt>
      <trkpt lat="46.55365" lon="4.53985">
        <ele>230.605</ele>
        <time>2020-06-11T08:04:22Z</time>
      </trkpt>
      <trkpt lat="46.55362" lon="4.53995">
        <ele>227.605</ele>
        <time>2020-06-11T08:04:29Z</time>
      </trkpt>
      <trkpt lat="46.5536" lon="4.54004">
        <ele>227.605</ele>
        <time>2020-06-11T08:04:34Z</time>
      </trkpt>
      <trkpt lat="46.55357" lon="4.54015">
        <ele>228.605</ele>
        <time>2020-06-11T08:04:39Z</time>
      </trkpt>
      <trkpt lat="46.55354" lon="4.54024">
        <ele>222.605</ele>
        <time>2020-06-11T08:04:46Z</time>
      </trkpt>
      <trkpt lat="46.55352" lon="4.54034">
        <ele>221.605</ele>
        <time>2020-06-11T08:04:51Z</time>
      </trkpt>
      <trkpt lat="46.55349" lon="4.54047">
        <ele>224.605</ele>
        <time>2020-06-11T08:04:56Z</time>
      </trkpt>
      <trkpt lat="46.5535" lon="4.54057">
        <ele>223.605</ele>
        <time>2020-06-11T08:05:02Z</time>
      </trkpt>
      <trkpt lat="46.55348" lon="4.5407">
        <ele>222.605</ele>
        <time>2020-06-11T08:05:07Z</time>
      </trkpt>
      <trkpt lat="46.55348" lon="4.54083">
        <ele>224.605</ele>
        <time>2020-06-11T08:05:12Z</time>
      </trkpt>
      <trkpt lat="46.55348" lon="4.54094">
        <ele>223.605</ele>
        <time>2020-06-11T08:05:17Z</time>
      </trkpt>
      <trkpt lat="46.55352" lon="4.54105">
        <ele>224.605</ele>
        <time>2020-06-11T08:05:22Z</time>
      </trkpt>
      <trkpt lat="46.55355" lon="4.54116">
        <ele>223.605</ele>
        <time>2020-06-11T08:05:27Z</time>
      </trkpt>
      <trkpt lat="46.55361" lon="4.54123">
        <ele>222.605</ele>
        <time>2020-06-11T08:05:33Z</time>
      </trkpt>
      <trkpt lat="46.55365" lon="4.54131">
        <ele>221.605</ele>
        <time>2020-06-11T08:05:40Z</time>
      </trkpt>
      <trkpt lat="46.55368" lon="4.5414">
        <ele>224.605</ele>
        <time>2020-06-11T08:05:45Z</time>
      </trkpt>
      <trkpt lat="46.55371" lon="4.54152">
        <ele>225.605</ele>
        <time>2020-06-11T08:05:50Z</time>
      </trkpt>
      <trkpt lat="46.55376" lon="4.54159">
        <ele>228.605</ele>
        <time>2020-06-11T08:05:57Z</time>
      </trkpt>
      <trkpt lat="46.55378" lon="4.54169">
        <ele>228.605</ele>
        <time>2020-06-11T08:06:04Z</time>
      </trkpt>
      <trkpt lat="46.55379" lon="4.54179">
        <ele>230.605</ele>
        <time>2020-06-11T08:06:09Z</time>
      </trkpt>
      <trkpt lat="46.55382" lon="4.5419">
        <ele>229.605</ele>
        <time>2020-06-11T08:06:14Z</time>
      </trkpt>
      <trkpt lat="46.55383" lon="4.542">
        <ele>229.605</ele>
        <time>2020-06-11T08:06:20Z</time>
      </trkpt>
      <trkpt lat="46.55383" lon="4.54214">
        <ele>229.605</ele>
        <time>2020-06-11T08:06:25Z</time>
      </trkpt>
      <trkpt lat="46.55383" lon="4.54225">
        <ele>231.605</ele>
        <time>2020-06-11T08:06:32Z</time>
      </trkpt>
      <trkpt lat="46.55381" lon="4.54237">
        <ele>234.605</ele>
        <time>2020-06-11T08:06:39Z</time>
      </trkpt>
      <trkpt lat="46.55383" lon="4.54247">
        <ele>234.605</ele>
        <time>2020-06-11T08:06:47Z</time>
      </trkpt>
      <trkpt lat="46.55383" lon="4.54258">
        <ele>235.605</ele>
        <time>2020-06-11T08:06:52Z</time>
      </trkpt>
      <trkpt lat="46.55378" lon="4.54267">
        <ele>238.605</ele>
        <time>2020-06-11T08:06:59Z</time>
      </trkpt>
      <trkpt lat="46.55377" lon="4.54276">
        <ele>241.605</ele>
        <time>2020-06-11T08:07:07Z</time>
      </trkpt>
      <trkpt lat="46.55375" lon="4.54288">
        <ele>246.605</ele>
        <time>2020-06-11T08:07:14Z</time>
      </trkpt>
      <trkpt lat="46.55373" lon="4.54297">
        <ele>246.605</ele>
        <time>2020-06-11T08:07:24Z</time>
      </trkpt>
      <trkpt lat="46.55371" lon="4.54307">
        <ele>244.605</ele>
        <time>2020-06-11T08:07:34Z</time>
      </trkpt>
      <trkpt lat="46.5537" lon="4.54317">
        <ele>245.605</ele>
        <time>2020-06-11T08:07:42Z</time>
      </trkpt>
      <trkpt lat="46.55365" lon="4.54323">
        <ele>250.605</ele>
        <time>2020-06-11T08:07:50Z</time>
      </trkpt>
      <trkpt lat="46.5536" lon="4.54329">
        <ele>250.605</ele>
        <time>2020-06-11T08:07:59Z</time>
      </trkpt>
      <trkpt lat="46.55355" lon="4.54336">
        <ele>251.605</ele>
        <time>2020-06-11T08:08:07Z</time>
      </trkpt>
      <trkpt lat="46.5535" lon="4.54342">
        <ele>251.605</ele>
        <time>2020-06-11T08:08:15Z</time>
      </trkpt>
      <trkpt lat="46.55345" lon="4.5435">
        <ele>252.605</ele>
        <time>2020-06-11T08:08:22Z</time>
      </trkpt>
      <trkpt lat="46.55341" lon="4.54358">
        <ele>253.605</ele>
        <time>2020-06-11T08:08:30Z</time>
      </trkpt>
      <trkpt lat="46.55335" lon="4.54365">
        <ele>251.605</ele>
        <time>2020-06-11T08:08:37Z</time>
      </trkpt>
      <trkpt lat="46.55329" lon="4.54371">
        <ele>253.605</ele>
        <time>2020-06-11T08:08:45Z</time>
      </trkpt>
      <trkpt lat="46.55324" lon="4.5438">
        <ele>254.605</ele>
        <time>2020-06-11T08:08:51Z</time>
      </trkpt>
      <trkpt lat="46.55319" lon="4.54387">
        <ele>253.605</ele>
        <time>2020-06-11T08:08:59Z</time>
      </trkpt>
      <trkpt lat="46.55315" lon="4.54396">
        <ele>254.605</ele>
        <time>2020-06-11T08:09:05Z</time>
      </trkpt>
      <trkpt lat="46.55311" lon="4.54405">
        <ele>257.605</ele>
        <time>2020-06-11T08:09:12Z</time>
      </trkpt>
      <trkpt lat="46.55308" lon="4.54413">
        <ele>259.605</ele>
        <time>2020-06-11T08:09:18Z</time>
      </trkpt>
      <trkpt lat="46.55302" lon="4.54417">
        <ele>262.605</ele>
        <time>2020-06-11T08:09:24Z</time>
      </trkpt>
      <trkpt lat="46.55295" lon="4.54421">
        <ele>260.605</ele>
        <time>2020-06-11T08:09:30Z</time>
      </trkpt>
      <trkpt lat="46.55288" lon="4.54421">
        <ele>260.605</ele>
        <time>2020-06-11T08:09:36Z</time>
      </trkpt>
      <trkpt lat="46.55281" lon="4.54424">
        <ele>259.605</ele>
        <time>2020-06-11T08:09:42Z</time>
      </trkpt>
      <trkpt lat="46.55275" lon="4.54424">
        <ele>258.605</ele>
        <time>2020-06-11T08:09:47Z</time>
      </trkpt>
      <trkpt lat="46.55268" lon="4.54422">
        <ele>259.605</ele>
        <time>2020-06-11T08:09:53Z</time>
      </trkpt>
      <trkpt lat="46.55261" lon="4.54423">
        <ele>259.605</ele>
        <time>2020-06-11T08:09:58Z</time>
      </trkpt>
      <trkpt lat="46.55253" lon="4.54425">
        <ele>257.605</ele>
        <time>2020-06-11T08:10:03Z</time>
      </trkpt>
      <trkpt lat="46.55246" lon="4.54423">
        <ele>256.605</ele>
        <time>2020-06-11T08:10:09Z</time>
      </trkpt>
      <trkpt lat="46.55239" lon="4.54422">
        <ele>254.605</ele>
        <time>2020-06-11T08:10:14Z</time>
      </trkpt>
      <trkpt lat="46.55232" lon="4.54422">
        <ele>252.605</ele>
        <time>2020-06-11T08:10:21Z</time>
      </trkpt>
      <trkpt lat="46.55225" lon="4.54422">
        <ele>247.605</ele>
        <time>2020-06-11T08:10:26Z</time>
      </trkpt>
      <trkpt lat="46.55219" lon="4.54419">
        <ele>246.605</ele>
        <time>2020-06-11T08:10:32Z</time>
      </trkpt>
      <trkpt lat="46.55211" lon="4.54416">
        <ele>247.605</ele>
        <time>2020-06-11T08:10:38Z</time>
      </trkpt>
      <trkpt lat="46.55205" lon="4.54416">
        <ele>248.605</ele>
        <time>2020-06-11T08:10:43Z</time>
      </trkpt>
      <trkpt lat="46.55198" lon="4.54415">
        <ele>249.605</ele>
        <time>2020-06-11T08:10:49Z</time>
      </trkpt>
      <trkpt lat="46.55191" lon="4.54413">
        <ele>251.605</ele>
        <time>2020-06-11T08:10:55Z</time>
      </trkpt>
      <trkpt lat="46.55184" lon="4.54414">
        <ele>253.605</ele>
        <time>2020-06-11T08:11:02Z</time>
      </trkpt>
      <trkpt lat="46.55177" lon="4.54413">
        <ele>253.605</ele>
        <time>2020-06-11T08:11:08Z</time>
      </trkpt>
      <trkpt lat="46.5517" lon="4.54416">
        <ele>254.605</ele>
        <time>2020-06-11T08:11:14Z</time>
      </trkpt>
      <trkpt lat="46.55163" lon="4.54418">
        <ele>258.605</ele>
        <time>2020-06-11T08:11:20Z</time>
      </trkpt>
      <trkpt lat="46.55157" lon="4.54422">
        <ele>259.605</ele>
        <time>2020-06-11T08:11:25Z</time>
      </trkpt>
      <trkpt lat="46.5515" lon="4.54426">
        <ele>258.605</ele>
        <time>2020-06-11T08:11:31Z</time>
      </trkpt>
      <trkpt lat="46.55144" lon="4.5443">
        <ele>260.605</ele>
        <time>2020-06-11T08:11:36Z</time>
      </trkpt>
      <trkpt lat="46.55137" lon="4.54437">
        <ele>258.605</ele>
        <time>2020-06-11T08:11:42Z</time>
      </trkpt>
      <trkpt lat="46.55131" lon="4.54442">
        <ele>260.605</ele>
        <time>2020-06-11T08:11:48Z</time>
      </trkpt>
      <trkpt lat="46.55125" lon="4.54446">
        <ele>259.605</ele>
        <time>2020-06-11T08:11:53Z</time>
      </trkpt>
      <trkpt lat="46.55119" lon="4.54451">
        <ele>262.605</ele>
        <time>2020-06-11T08:12:05Z</time>
      </trkpt>
      <trkpt lat="46.55114" lon="4.54458">
        <ele>266.605</ele>
        <time>2020-06-11T08:12:10Z</time>
      </trkpt>
      <trkpt lat="46.55108" lon="4.54464">
        <ele>273.605</ele>
        <time>2020-06-11T08:12:19Z</time>
      </trkpt>
      <trkpt lat="46.55102" lon="4.5447">
        <ele>270.605</ele>
        <time>2020-06-11T08:12:24Z</time>
      </trkpt>
      <trkpt lat="46.55092" lon="4.54473">
        <ele>268.605</ele>
        <time>2020-06-11T08:12:29Z</time>
      </trkpt>
      <trkpt lat="46.55085" lon="4.54475">
        <ele>270.605</ele>
        <time>2020-06-11T08:12:38Z</time>
      </trkpt>
      <trkpt lat="46.55079" lon="4.54478">
        <ele>274.605</ele>
        <time>2020-06-11T08:12:43Z</time>
      </trkpt>
      <trkpt lat="46.55072" lon="4.54481">
        <ele>275.605</ele>
        <time>2020-06-11T08:12:51Z</time>
      </trkpt>
      <trkpt lat="46.55066" lon="4.54486">
        <ele>277.605</ele>
        <time>2020-06-11T08:13:03Z</time>
      </trkpt>
      <trkpt lat="46.55059" lon="4.54488">
        <ele>277.605</ele>
        <time>2020-06-11T08:13:18Z</time>
      </trkpt>
      <trkpt lat="46.55053" lon="4.54493">
        <ele>276.605</ele>
        <time>2020-06-11T08:13:24Z</time>
      </trkpt>
      <trkpt lat="46.55044" lon="4.54495">
        <ele>278.605</ele>
        <time>2020-06-11T08:13:30Z</time>
      </trkpt>
      <trkpt lat="46.55038" lon="4.54498">
        <ele>282.605</ele>
        <time>2020-06-11T08:13:46Z</time>
      </trkpt>
      <trkpt lat="46.5503" lon="4.54503">
        <ele>281.605</ele>
        <time>2020-06-11T08:13:51Z</time>
      </trkpt>
      <trkpt lat="46.55023" lon="4.54502">
        <ele>285.605</ele>
        <time>2020-06-11T08:13:59Z</time>
      </trkpt>
      <trkpt lat="46.55017" lon="4.54502">
        <ele>286.605</ele>
        <time>2020-06-11T08:14:05Z</time>
      </trkpt>
      <trkpt lat="46.5501" lon="4.54504">
        <ele>284.605</ele>
        <time>2020-06-11T08:14:11Z</time>
      </trkpt>
      <trkpt lat="46.55003" lon="4.54503">
        <ele>286.605</ele>
        <time>2020-06-11T08:14:18Z</time>
      </trkpt>
      <trkpt lat="46.54996" lon="4.54503">
        <ele>283.605</ele>
        <time>2020-06-11T08:14:24Z</time>
      </trkpt>
      <trkpt lat="46.5499" lon="4.54504">
        <ele>282.604</ele>
        <time>2020-06-11T08:14:31Z</time>
      </trkpt>
      <trkpt lat="46.54983" lon="4.54499">
        <ele>283.604</ele>
        <time>2020-06-11T08:14:36Z</time>
      </trkpt>
      <trkpt lat="46.54975" lon="4.54498">
        <ele>280.604</ele>
        <time>2020-06-11T08:14:42Z</time>
      </trkpt>
      <trkpt lat="46.54968" lon="4.54496">
        <ele>282.604</ele>
        <time>2020-06-11T08:14:47Z</time>
      </trkpt>
      <trkpt lat="46.54961" lon="4.54495">
        <ele>282.604</ele>
        <time>2020-06-11T08:14:53Z</time>
      </trkpt>
      <trkpt lat="46.54954" lon="4.54495">
        <ele>281.604</ele>
        <time>2020-06-11T08:14:59Z</time>
      </trkpt>
      <trkpt lat="46.54947" lon="4.54493">
        <ele>283.604</ele>
        <time>2020-06-11T08:15:04Z</time>
      </trkpt>
      <trkpt lat="46.54939" lon="4.5449">
        <ele>283.604</ele>
        <time>2020-06-11T08:15:09Z</time>
      </trkpt>
      <trkpt lat="46.54931" lon="4.54487">
        <ele>282.604</ele>
        <time>2020-06-11T08:15:15Z</time>
      </trkpt>
      <trkpt lat="46.54925" lon="4.54488">
        <ele>283.604</ele>
        <time>2020-06-11T08:15:21Z</time>
      </trkpt>
      <trkpt lat="46.54918" lon="4.54486">
        <ele>284.604</ele>
        <time>2020-06-11T08:15:26Z</time>
      </trkpt>
      <trkpt lat="46.54913" lon="4.54486">
        <ele>283.604</ele>
        <time>2020-06-11T08:15:30Z</time>
      </trkpt>
      <trkpt lat="46.54905" lon="4.54485">
        <ele>282.604</ele>
        <time>2020-06-11T08:15:36Z</time>
      </trkpt>
      <trkpt lat="46.54897" lon="4.5448">
        <ele>283.604</ele>
        <time>2020-06-11T08:15:42Z</time>
      </trkpt>
      <trkpt lat="46.5489" lon="4.54478">
        <ele>279.604</ele>
        <time>2020-06-11T08:15:48Z</time>
      </trkpt>
      <trkpt lat="46.54881" lon="4.54483">
        <ele>280.604</ele>
        <time>2020-06-11T08:15:56Z</time>
      </trkpt>
      <trkpt lat="46.54874" lon="4.54485">
        <ele>281.604</ele>
        <time>2020-06-11T08:16:01Z</time>
      </trkpt>
      <trkpt lat="46.54867" lon="4.5448">
        <ele>278.604</ele>
        <time>2020-06-11T08:16:07Z</time>
      </trkpt>
      <trkpt lat="46.5486" lon="4.54475">
        <ele>278.604</ele>
        <time>2020-06-11T08:16:13Z</time>
      </trkpt>
      <trkpt lat="46.54854" lon="4.54469">
        <ele>278.604</ele>
        <time>2020-06-11T08:16:18Z</time>
      </trkpt>
      <trkpt lat="46.54847" lon="4.54464">
        <ele>273.604</ele>
        <time>2020-06-11T08:16:23Z</time>
      </trkpt>
      <trkpt lat="46.5484" lon="4.54464">
        <ele>270.604</ele>
        <time>2020-06-11T08:16:30Z</time>
      </trkpt>
      <trkpt lat="46.54833" lon="4.5446">
        <ele>271.604</ele>
        <time>2020-06-11T08:16:37Z</time>
      </trkpt>
      <trkpt lat="46.54827" lon="4.5445">
        <ele>275.604</ele>
        <time>2020-06-11T08:16:42Z</time>
      </trkpt>
      <trkpt lat="46.5482" lon="4.54444">
        <ele>277.604</ele>
        <time>2020-06-11T08:16:47Z</time>
      </trkpt>
      <trkpt lat="46.54815" lon="4.54438">
        <ele>279.604</ele>
        <time>2020-06-11T08:16:52Z</time>
      </trkpt>
      <trkpt lat="46.54809" lon="4.54432">
        <ele>282.604</ele>
        <time>2020-06-11T08:16:58Z</time>
      </trkpt>
      <trkpt lat="46.54803" lon="4.54426">
        <ele>282.604</ele>
        <time>2020-06-11T08:17:04Z</time>
      </trkpt>
      <trkpt lat="46.54797" lon="4.54421">
        <ele>281.604</ele>
        <time>2020-06-11T08:17:11Z</time>
      </trkpt>
      <trkpt lat="46.54792" lon="4.54414">
        <ele>281.604</ele>
        <time>2020-06-11T08:17:17Z</time>
      </trkpt>
      <trkpt lat="46.54787" lon="4.54407">
        <ele>284.604</ele>
        <time>2020-06-11T08:17:22Z</time>
      </trkpt>
      <trkpt lat="46.54783" lon="4.54398">
        <ele>285.604</ele>
        <time>2020-06-11T08:17:28Z</time>
      </trkpt>
      <trkpt lat="46.54781" lon="4.54388">
        <ele>286.604</ele>
        <time>2020-06-11T08:17:36Z</time>
      </trkpt>
      <trkpt lat="46.5478" lon="4.54378">
        <ele>287.604</ele>
        <time>2020-06-11T08:17:43Z</time>
      </trkpt>
      <trkpt lat="46.54778" lon="4.54367">
        <ele>287.604</ele>
        <time>2020-06-11T08:17:50Z</time>
      </trkpt>
      <trkpt lat="46.54775" lon="4.54355">
        <ele>292.604</ele>
        <time>2020-06-11T08:17:55Z</time>
      </trkpt>
      <trkpt lat="46.54771" lon="4.54346">
        <ele>295.604</ele>
        <time>2020-06-11T08:18:03Z</time>
      </trkpt>
      <trkpt lat="46.54765" lon="4.5434">
        <ele>293.604</ele>
        <time>2020-06-11T08:18:09Z</time>
      </trkpt>
      <trkpt lat="46.54761" lon="4.54331">
        <ele>294.604</ele>
        <time>2020-06-11T08:18:15Z</time>
      </trkpt>
      <trkpt lat="46.54755" lon="4.54324">
        <ele>294.604</ele>
        <time>2020-06-11T08:18:22Z</time>
      </trkpt>
      <trkpt lat="46.54749" lon="4.54315">
        <ele>293.604</ele>
        <time>2020-06-11T08:18:27Z</time>
      </trkpt>
      <trkpt lat="46.54743" lon="4.54309">
        <ele>292.604</ele>
        <time>2020-06-11T08:18:33Z</time>
      </trkpt>
      <trkpt lat="46.54736" lon="4.543">
        <ele>297.604</ele>
        <time>2020-06-11T08:18:38Z</time>
      </trkpt>
      <trkpt lat="46.54729" lon="4.54297">
        <ele>296.604</ele>
        <time>2020-06-11T08:18:44Z</time>
      </trkpt>
      <trkpt lat="46.54722" lon="4.54295">
        <ele>293.604</ele>
        <time>2020-06-11T08:18:50Z</time>
      </trkpt>
      <trkpt lat="46.54717" lon="4.54289">
        <ele>294.604</ele>
        <time>2020-06-11T08:18:55Z</time>
      </trkpt>
      <trkpt lat="46.54711" lon="4.54283">
        <ele>294.604</ele>
        <time>2020-06-11T08:19:00Z</time>
      </trkpt>
      <trkpt lat="46.54704" lon="4.54279">
        <ele>293.604</ele>
        <time>2020-06-11T08:19:06Z</time>
      </trkpt>
      <trkpt lat="46.54699" lon="4.54273">
        <ele>295.604</ele>
        <time>2020-06-11T08:19:11Z</time>
      </trkpt>
      <trkpt lat="46.54692" lon="4.54267">
        <ele>295.604</ele>
        <time>2020-06-11T08:19:16Z</time>
      </trkpt>
      <trkpt lat="46.54686" lon="4.54262">
        <ele>296.603</ele>
        <time>2020-06-11T08:19:21Z</time>
      </trkpt>
      <trkpt lat="46.54679" lon="4.5426">
        <ele>296.603</ele>
        <time>2020-06-11T08:19:26Z</time>
      </trkpt>
      <trkpt lat="46.54672" lon="4.54257">
        <ele>294.603</ele>
        <time>2020-06-11T08:19:32Z</time>
      </trkpt>
      <trkpt lat="46.54666" lon="4.54256">
        <ele>294.603</ele>
        <time>2020-06-11T08:19:37Z</time>
      </trkpt>
      <trkpt lat="46.54659" lon="4.54252">
        <ele>295.603</ele>
        <time>2020-06-11T08:19:42Z</time>
      </trkpt>
      <trkpt lat="46.54652" lon="4.54251">
        <ele>290.603</ele>
        <time>2020-06-11T08:19:57Z</time>
      </trkpt>
      <trkpt lat="46.54646" lon="4.54248">
        <ele>290.603</ele>
        <time>2020-06-11T08:20:04Z</time>
      </trkpt>
      <trkpt lat="46.5464" lon="4.54243">
        <ele>291.603</ele>
        <time>2020-06-11T08:20:10Z</time>
      </trkpt>
      <trkpt lat="46.54633" lon="4.54241">
        <ele>284.603</ele>
        <time>2020-06-11T08:20:19Z</time>
      </trkpt>
      <trkpt lat="46.54627" lon="4.54234">
        <ele>284.603</ele>
        <time>2020-06-11T08:20:25Z</time>
      </trkpt>
      <trkpt lat="46.54622" lon="4.54226">
        <ele>283.603</ele>
        <time>2020-06-11T08:20:32Z</time>
      </trkpt>
      <trkpt lat="46.54619" lon="4.54216">
        <ele>284.603</ele>
        <time>2020-06-11T08:20:53Z</time>
      </trkpt>
      <trkpt lat="46.54615" lon="4.54208">
        <ele>281.603</ele>
        <time>2020-06-11T08:20:59Z</time>
      </trkpt>
      <trkpt lat="46.5461" lon="4.54201">
        <ele>281.603</ele>
        <time>2020-06-11T08:21:04Z</time>
      </trkpt>
      <trkpt lat="46.54604" lon="4.54197">
        <ele>283.603</ele>
        <time>2020-06-11T08:21:10Z</time>
      </trkpt>
      <trkpt lat="46.54598" lon="4.54191">
        <ele>285.603</ele>
        <time>2020-06-11T08:21:15Z</time>
      </trkpt>
      <trkpt lat="46.54593" lon="4.54181">
        <ele>287.603</ele>
        <time>2020-06-11T08:21:20Z</time>
      </trkpt>
      <trkpt lat="46.54586" lon="4.54181">
        <ele>281.603</ele>
        <time>2020-06-11T08:21:26Z</time>
      </trkpt>
      <trkpt lat="46.54581" lon="4.54173">
        <ele>278.603</ele>
        <time>2020-06-11T08:21:33Z</time>
      </trkpt>
      <trkpt lat="46.54574" lon="4.54165">
        <ele>279.603</ele>
        <time>2020-06-11T08:21:38Z</time>
      </trkpt>
      <trkpt lat="46.54568" lon="4.54158">
        <ele>279.603</ele>
        <time>2020-06-11T08:21:43Z</time>
      </trkpt>
      <trkpt lat="46.54561" lon="4.54153">
        <ele>277.603</ele>
        <time>2020-06-11T08:21:48Z</time>
      </trkpt>
      <trkpt lat="46.54555" lon="4.54145">
        <ele>277.603</ele>
        <time>2020-06-11T08:21:53Z</time>
      </trkpt>
      <trkpt lat="46.54549" lon="4.5414">
        <ele>276.603</ele>
        <time>2020-06-11T08:21:58Z</time>
      </trkpt>
      <trkpt lat="46.54544" lon="4.54134">
        <ele>275.603</ele>
        <time>2020-06-11T08:22:03Z</time>
      </trkpt>
      <trkpt lat="46.54538" lon="4.54128">
        <ele>272.603</ele>
        <time>2020-06-11T08:22:08Z</time>
      </trkpt>
      <trkpt lat="46.54533" lon="4.54121">
        <ele>271.603</ele>
        <time>2020-06-11T08:22:13Z</time>
      </trkpt>
      <trkpt lat="46.54527" lon="4.54114">
        <ele>271.603</ele>
        <time>2020-06-11T08:22:18Z</time>
      </trkpt>
      <trkpt lat="46.5452" lon="4.5411">
        <ele>264.603</ele>
        <time>2020-06-11T08:22:25Z</time>
      </trkpt>
      <trkpt lat="46.54514" lon="4.54099">
        <ele>264.603</ele>
        <time>2020-06-11T08:22:30Z</time>
      </trkpt>
      <trkpt lat="46.54508" lon="4.54089">
        <ele>264.603</ele>
        <time>2020-06-11T08:22:35Z</time>
      </trkpt>
      <trkpt lat="46.54502" lon="4.54084">
        <ele>264.603</ele>
        <time>2020-06-11T08:22:40Z</time>
      </trkpt>
      <trkpt lat="46.54497" lon="4.54077">
        <ele>260.603</ele>
        <time>2020-06-11T08:22:46Z</time>
      </trkpt>
      <trkpt lat="46.54491" lon="4.54068">
        <ele>258.603</ele>
        <time>2020-06-11T08:22:52Z</time>
      </trkpt>
      <trkpt lat="46.54485" lon="4.54059">
        <ele>257.603</ele>
        <time>2020-06-11T08:22:57Z</time>
      </trkpt>
      <trkpt lat="46.54479" lon="4.54051">
        <ele>256.603</ele>
        <time>2020-06-11T08:23:02Z</time>
      </trkpt>
      <trkpt lat="46.54474" lon="4.54044">
        <ele>257.603</ele>
        <time>2020-06-11T08:23:07Z</time>
      </trkpt>
      <trkpt lat="46.54468" lon="4.54037">
        <ele>256.603</ele>
        <time>2020-06-11T08:23:12Z</time>
      </trkpt>
      <trkpt lat="46.54463" lon="4.54029">
        <ele>257.603</ele>
        <time>2020-06-11T08:23:17Z</time>
      </trkpt>
      <trkpt lat="46.54459" lon="4.54018">
        <ele>253.603</ele>
        <time>2020-06-11T08:23:23Z</time>
      </trkpt>
      <trkpt lat="46.54453" lon="4.54011">
        <ele>254.603</ele>
        <time>2020-06-11T08:23:28Z</time>
      </trkpt>
      <trkpt lat="46.54447" lon="4.54003">
        <ele>253.603</ele>
        <time>2020-06-11T08:23:34Z</time>
      </trkpt>
      <trkpt lat="46.54445" lon="4.53992">
        <ele>250.603</ele>
        <time>2020-06-11T08:23:39Z</time>
      </trkpt>
      <trkpt lat="46.54442" lon="4.53982">
        <ele>250.603</ele>
        <time>2020-06-11T08:23:44Z</time>
      </trkpt>
      <trkpt lat="46.54438" lon="4.53974">
        <ele>250.603</ele>
        <time>2020-06-11T08:23:49Z</time>
      </trkpt>
      <trkpt lat="46.54433" lon="4.53963">
        <ele>250.603</ele>
        <time>2020-06-11T08:23:54Z</time>
      </trkpt>
      <trkpt lat="46.54426" lon="4.53953">
        <ele>250.603</ele>
        <time>2020-06-11T08:23:59Z</time>
      </trkpt>
      <trkpt lat="46.54422" lon="4.53946">
        <ele>249.603</ele>
        <time>2020-06-11T08:24:05Z</time>
      </trkpt>
      <trkpt lat="46.54415" lon="4.5394">
        <ele>249.603</ele>
        <time>2020-06-11T08:24:10Z</time>
      </trkpt>
      <trkpt lat="46.54412" lon="4.53931">
        <ele>249.602</ele>
        <time>2020-06-11T08:24:15Z</time>
      </trkpt>
      <trkpt lat="46.54406" lon="4.53923">
        <ele>247.602</ele>
        <time>2020-06-11T08:24:20Z</time>
      </trkpt>
      <trkpt lat="46.54402" lon="4.53914">
        <ele>245.602</ele>
        <time>2020-06-11T08:24:25Z</time>
      </trkpt>
      <trkpt lat="46.54395" lon="4.53908">
        <ele>240.602</ele>
        <time>2020-06-11T08:24:31Z</time>
      </trkpt>
      <trkpt lat="46.54389" lon="4.53902">
        <ele>239.602</ele>
        <time>2020-06-11T08:24:36Z</time>
      </trkpt>
      <trkpt lat="46.54382" lon="4.539">
        <ele>236.602</ele>
        <time>2020-06-11T08:24:41Z</time>
      </trkpt>
      <trkpt lat="46.54375" lon="4.53895">
        <ele>233.602</ele>
        <time>2020-06-11T08:24:46Z</time>
      </trkpt>
      <trkpt lat="46.54367" lon="4.53886">
        <ele>235.602</ele>
        <time>2020-06-11T08:24:51Z</time>
      </trkpt>
      <trkpt lat="46.54359" lon="4.53881">
        <ele>237.602</ele>
        <time>2020-06-11T08:24:56Z</time>
      </trkpt>
      <trkpt lat="46.54352" lon="4.53877">
        <ele>237.602</ele>
        <time>2020-06-11T08:25:01Z</time>
      </trkpt>
      <trkpt lat="46.54344" lon="4.53873">
        <ele>236.602</ele>
        <time>2020-06-11T08:25:06Z</time>
      </trkpt>
      <trkpt lat="46.54337" lon="4.53867">
        <ele>236.602</ele>
        <time>2020-06-11T08:25:12Z</time>
      </trkpt>
      <trkpt lat="46.54331" lon="4.53862">
        <ele>236.602</ele>
        <time>2020-06-11T08:25:17Z</time>
      </trkpt>
      <trkpt lat="46.54324" lon="4.5386">
        <ele>238.602</ele>
        <time>2020-06-11T08:25:22Z</time>
      </trkpt>
      <trkpt lat="46.54317" lon="4.53855">
        <ele>237.602</ele>
        <time>2020-06-11T08:25:27Z</time>
      </trkpt>
      <trkpt lat="46.54309" lon="4.53851">
        <ele>242.602</ele>
        <time>2020-06-11T08:25:32Z</time>
      </trkpt>
      <trkpt lat="46.54302" lon="4.53849">
        <ele>241.602</ele>
        <time>2020-06-11T08:25:37Z</time>
      </trkpt>
      <trkpt lat="46.54294" lon="4.53847">
        <ele>240.602</ele>
        <time>2020-06-11T08:25:42Z</time>
      </trkpt>
      <trkpt lat="46.54287" lon="4.53847">
        <ele>239.602</ele>
        <time>2020-06-11T08:25:47Z</time>
      </trkpt>
      <trkpt lat="46.5428" lon="4.5385">
        <ele>238.602</ele>
        <time>2020-06-11T08:25:52Z</time>
      </trkpt>
      <trkpt lat="46.54271" lon="4.53852">
        <ele>238.602</ele>
        <time>2020-06-11T08:25:57Z</time>
      </trkpt>
      <trkpt lat="46.54264" lon="4.53854">
        <ele>235.602</ele>
        <time>2020-06-11T08:26:02Z</time>
      </trkpt>
      <trkpt lat="46.54256" lon="4.53852">
        <ele>236.602</ele>
        <time>2020-06-11T08:26:07Z</time>
      </trkpt>
      <trkpt lat="46.54249" lon="4.53854">
        <ele>235.602</ele>
        <time>2020-06-11T08:26:12Z</time>
      </trkpt>
      <trkpt lat="46.54241" lon="4.53852">
        <ele>237.602</ele>
        <time>2020-06-11T08:26:17Z</time>
      </trkpt>
      <trkpt lat="46.54234" lon="4.53849">
        <ele>238.602</ele>
        <time>2020-06-11T08:26:22Z</time>
      </trkpt>
      <trkpt lat="46.54226" lon="4.5384">
        <ele>239.602</ele>
        <time>2020-06-11T08:26:27Z</time>
      </trkpt>
      <trkpt lat="46.54219" lon="4.53841">
        <ele>242.602</ele>
        <time>2020-06-11T08:26:32Z</time>
      </trkpt>
      <trkpt lat="46.54212" lon="4.53837">
        <ele>239.602</ele>
        <time>2020-06-11T08:26:37Z</time>
      </trkpt>
      <trkpt lat="46.54206" lon="4.53837">
        <ele>237.602</ele>
        <time>2020-06-11T08:26:42Z</time>
      </trkpt>
      <trkpt lat="46.54198" lon="4.53837">
        <ele>236.602</ele>
        <time>2020-06-11T08:26:47Z</time>
      </trkpt>
      <trkpt lat="46.54191" lon="4.53833">
        <ele>236.602</ele>
        <time>2020-06-11T08:26:52Z</time>
      </trkpt>
      <trkpt lat="46.54184" lon="4.53828">
        <ele>235.602</ele>
        <time>2020-06-11T08:26:57Z</time>
      </trkpt>
      <trkpt lat="46.5418" lon="4.5382">
        <ele>234.602</ele>
        <time>2020-06-11T08:27:04Z</time>
      </trkpt>
      <trkpt lat="46.54175" lon="4.53806">
        <ele>233.602</ele>
        <time>2020-06-11T08:27:09Z</time>
      </trkpt>
      <trkpt lat="46.54173" lon="4.53797">
        <ele>229.602</ele>
        <time>2020-06-11T08:27:15Z</time>
      </trkpt>
      <trkpt lat="46.54169" lon="4.53786">
        <ele>227.602</ele>
        <time>2020-06-11T08:27:22Z</time>
      </trkpt>
      <trkpt lat="46.54164" lon="4.53776">
        <ele>227.602</ele>
        <time>2020-06-11T08:27:27Z</time>
      </trkpt>
      <trkpt lat="46.54158" lon="4.5377">
        <ele>224.602</ele>
        <time>2020-06-11T08:27:32Z</time>
      </trkpt>
      <trkpt lat="46.54151" lon="4.53767">
        <ele>224.602</ele>
        <time>2020-06-11T08:27:37Z</time>
      </trkpt>
      <trkpt lat="46.54144" lon="4.53766">
        <ele>223.602</ele>
        <time>2020-06-11T08:27:42Z</time>
      </trkpt>
      <trkpt lat="46.54138" lon="4.53764">
        <ele>224.602</ele>
        <time>2020-06-11T08:27:48Z</time>
      </trkpt>
      <trkpt lat="46.5413" lon="4.53758">
        <ele>223.602</ele>
        <time>2020-06-11T08:27:53Z</time>
      </trkpt>
      <trkpt lat="46.54121" lon="4.53754">
        <ele>226.602</ele>
        <time>2020-06-11T08:27:58Z</time>
      </trkpt>
      <trkpt lat="46.54114" lon="4.5375">
        <ele>226.602</ele>
        <time>2020-06-11T08:28:03Z</time>
      </trkpt>
      <trkpt lat="46.54107" lon="4.5375">
        <ele>225.602</ele>
        <time>2020-06-11T08:28:08Z</time>
      </trkpt>
      <trkpt lat="46.541" lon="4.53745">
        <ele>226.602</ele>
        <time>2020-06-11T08:28:14Z</time>
      </trkpt>
      <trkpt lat="46.54094" lon="4.53736">
        <ele>227.601</ele>
        <time>2020-06-11T08:28:19Z</time>
      </trkpt>
      <trkpt lat="46.54087" lon="4.53729">
        <ele>228.601</ele>
        <time>2020-06-11T08:28:24Z</time>
      </trkpt>
      <trkpt lat="46.54083" lon="4.53716">
        <ele>230.601</ele>
        <time>2020-06-11T08:28:29Z</time>
      </trkpt>
      <trkpt lat="46.5408" lon="4.53707">
        <ele>228.601</ele>
        <time>2020-06-11T08:28:34Z</time>
      </trkpt>
      <trkpt lat="46.54077" lon="4.53695">
        <ele>231.601</ele>
        <time>2020-06-11T08:28:39Z</time>
      </trkpt>
      <trkpt lat="46.54078" lon="4.53684">
        <ele>234.601</ele>
        <time>2020-06-11T08:28:53Z</time>
      </trkpt>
      <trkpt lat="46.5408" lon="4.53669">
        <ele>237.601</ele>
        <time>2020-06-11T08:28:58Z</time>
      </trkpt>
      <trkpt lat="46.54081" lon="4.53658">
        <ele>238.601</ele>
        <time>2020-06-11T08:29:03Z</time>
      </trkpt>
      <trkpt lat="46.54085" lon="4.53644">
        <ele>238.601</ele>
        <time>2020-06-11T08:29:08Z</time>
      </trkpt>
      <trkpt lat="46.54089" lon="4.5363">
        <ele>238.601</ele>
        <time>2020-06-11T08:29:13Z</time>
      </trkpt>
      <trkpt lat="46.54092" lon="4.5362">
        <ele>239.601</ele>
        <time>2020-06-11T08:29:18Z</time>
      </trkpt>
      <trkpt lat="46.54096" lon="4.53609">
        <ele>237.601</ele>
        <time>2020-06-11T08:29:23Z</time>
      </trkpt>
      <trkpt lat="46.54101" lon="4.53598">
        <ele>236.601</ele>
        <time>2020-06-11T08:29:28Z</time>
      </trkpt>
      <trkpt lat="46.54102" lon="4.53585">
        <ele>238.601</ele>
        <time>2020-06-11T08:29:33Z</time>
      </trkpt>
      <trkpt lat="46.54104" lon="4.53574">
        <ele>237.601</ele>
        <time>2020-06-11T08:29:38Z</time>
      </trkpt>
      <trkpt lat="46.54105" lon="4.53564">
        <ele>235.601</ele>
        <time>2020-06-11T08:29:43Z</time>
      </trkpt>
      <trkpt lat="46.54106" lon="4.53555">
        <ele>234.601</ele>
        <time>2020-06-11T08:29:50Z</time>
      </trkpt>
      <trkpt lat="46.54107" lon="4.53545">
        <ele>238.601</ele>
        <time>2020-06-11T08:29:55Z</time>
      </trkpt>
      <trkpt lat="46.54107" lon="4.53534">
        <ele>236.601</ele>
        <time>2020-06-11T08:30:01Z</time>
      </trkpt>
      <trkpt lat="46.54102" lon="4.53522">
        <ele>238.601</ele>
        <time>2020-06-11T08:30:07Z</time>
      </trkpt>
      <trkpt lat="46.54098" lon="4.53512">
        <ele>235.601</ele>
        <time>2020-06-11T08:30:13Z</time>
      </trkpt>
      <trkpt lat="46.54097" lon="4.53501">
        <ele>235.601</ele>
        <time>2020-06-11T08:30:18Z</time>
      </trkpt>
      <trkpt lat="46.54092" lon="4.53493">
        <ele>233.601</ele>
        <time>2020-06-11T08:30:23Z</time>
      </trkpt>
      <trkpt lat="46.5409" lon="4.53482">
        <ele>232.601</ele>
        <time>2020-06-11T08:30:29Z</time>
      </trkpt>
      <trkpt lat="46.54088" lon="4.53472">
        <ele>230.601</ele>
        <time>2020-06-11T08:30:35Z</time>
      </trkpt>
      <trkpt lat="46.54086" lon="4.53463">
        <ele>235.601</ele>
        <time>2020-06-11T08:30:43Z</time>
      </trkpt>
      <trkpt lat="46.5408" lon="4.53458">
        <ele>242.601</ele>
        <time>2020-06-11T08:34:11Z</time>
      </trkpt>
      <trkpt lat="46.54072" lon="4.53453">
        <ele>242.601</ele>
        <time>2020-06-11T08:34:16Z</time>
      </trkpt>
      <trkpt lat="46.54066" lon="4.53448">
        <ele>243.601</ele>
        <time>2020-06-11T08:34:21Z</time>
      </trkpt>
      <trkpt lat="46.54062" lon="4.53456">
        <ele>240.601</ele>
        <time>2020-06-11T08:34:35Z</time>
      </trkpt>
      <trkpt lat="46.54056" lon="4.53448">
        <ele>240.601</ele>
        <time>2020-06-11T08:34:48Z</time>
      </trkpt>
      <trkpt lat="46.5405" lon="4.53444">
        <ele>236.601</ele>
        <time>2020-06-11T08:34:54Z</time>
      </trkpt>
      <trkpt lat="46.54043" lon="4.5344">
        <ele>237.601</ele>
        <time>2020-06-11T08:35:01Z</time>
      </trkpt>
      <trkpt lat="46.54036" lon="4.53441">
        <ele>238.601</ele>
        <time>2020-06-11T08:35:08Z</time>
      </trkpt>
      <trkpt lat="46.54028" lon="4.53442">
        <ele>236.601</ele>
        <time>2020-06-11T08:35:14Z</time>
      </trkpt>
      <trkpt lat="46.54021" lon="4.53442">
        <ele>237.601</ele>
        <time>2020-06-11T08:35:20Z</time>
      </trkpt>
      <trkpt lat="46.54014" lon="4.53441">
        <ele>236.601</ele>
        <time>2020-06-11T08:35:25Z</time>
      </trkpt>
      <trkpt lat="46.54007" lon="4.53443">
        <ele>234.601</ele>
        <time>2020-06-11T08:35:32Z</time>
      </trkpt>
      <trkpt lat="46.53998" lon="4.53439">
        <ele>242.601</ele>
        <time>2020-06-11T08:35:37Z</time>
      </trkpt>
      <trkpt lat="46.5399" lon="4.53438">
        <ele>246.601</ele>
        <time>2020-06-11T08:35:42Z</time>
      </trkpt>
      <trkpt lat="46.53983" lon="4.53438">
        <ele>244.601</ele>
        <time>2020-06-11T08:35:48Z</time>
      </trkpt>
      <trkpt lat="46.53977" lon="4.53437">
        <ele>247.601</ele>
        <time>2020-06-11T08:35:53Z</time>
      </trkpt>
      <trkpt lat="46.53969" lon="4.53439">
        <ele>243.601</ele>
        <time>2020-06-11T08:35:58Z</time>
      </trkpt>
      <trkpt lat="46.53961" lon="4.53437">
        <ele>242.601</ele>
        <time>2020-06-11T08:36:03Z</time>
      </trkpt>
      <trkpt lat="46.53955" lon="4.53434">
        <ele>241.601</ele>
        <time>2020-06-11T08:36:08Z</time>
      </trkpt>
      <trkpt lat="46.53948" lon="4.53431">
        <ele>240.601</ele>
        <time>2020-06-11T08:36:13Z</time>
      </trkpt>
      <trkpt lat="46.53942" lon="4.53426">
        <ele>240.601</ele>
        <time>2020-06-11T08:36:18Z</time>
      </trkpt>
      <trkpt lat="46.53936" lon="4.53424">
        <ele>239.601</ele>
        <time>2020-06-11T08:36:24Z</time>
      </trkpt>
      <trkpt lat="46.5393" lon="4.53419">
        <ele>239.601</ele>
        <time>2020-06-11T08:36:30Z</time>
      </trkpt>
      <trkpt lat="46.53923" lon="4.53417">
        <ele>235.601</ele>
        <time>2020-06-11T08:36:35Z</time>
      </trkpt>
      <trkpt lat="46.53915" lon="4.53416">
        <ele>233.601</ele>
        <time>2020-06-11T08:36:40Z</time>
      </trkpt>
      <trkpt lat="46.53908" lon="4.53413">
        <ele>235.601</ele>
        <time>2020-06-11T08:36:45Z</time>
      </trkpt>
      <trkpt lat="46.53901" lon="4.53409">
        <ele>234.601</ele>
        <time>2020-06-11T08:36:51Z</time>
      </trkpt>
      <trkpt lat="46.53895" lon="4.53405">
        <ele>235.601</ele>
        <time>2020-06-11T08:36:56Z</time>
      </trkpt>
      <trkpt lat="46.53886" lon="4.53402">
        <ele>236.601</ele>
        <time>2020-06-11T08:37:01Z</time>
      </trkpt>
      <trkpt lat="46.53879" lon="4.53398">
        <ele>235.601</ele>
        <time>2020-06-11T08:37:06Z</time>
      </trkpt>
      <trkpt lat="46.53872" lon="4.53393">
        <ele>235.601</ele>
        <time>2020-06-11T08:37:13Z</time>
      </trkpt>
      <trkpt lat="46.53865" lon="4.5339">
        <ele>234.601</ele>
        <time>2020-06-11T08:37:18Z</time>
      </trkpt>
      <trkpt lat="46.53857" lon="4.53386">
        <ele>235.601</ele>
        <time>2020-06-11T08:37:23Z</time>
      </trkpt>
      <trkpt lat="46.53849" lon="4.53383">
        <ele>236.601</ele>
        <time>2020-06-11T08:37:28Z</time>
      </trkpt>
      <trkpt lat="46.53842" lon="4.53378">
        <ele>238.601</ele>
        <time>2020-06-11T08:37:33Z</time>
      </trkpt>
      <trkpt lat="46.53835" lon="4.53375">
        <ele>239.601</ele>
        <time>2020-06-11T08:37:38Z</time>
      </trkpt>
      <trkpt lat="46.53829" lon="4.53368">
        <ele>239.6</ele>
        <time>2020-06-11T08:37:43Z</time>
      </trkpt>
      <trkpt lat="46.53823" lon="4.53362">
        <ele>239.6</ele>
        <time>2020-06-11T08:37:48Z</time>
      </trkpt>
      <trkpt lat="46.53819" lon="4.53354">
        <ele>247.6</ele>
        <time>2020-06-11T08:44:16Z</time>
      </trkpt>
      <trkpt lat="46.53809" lon="4.53351">
        <ele>243.6</ele>
        <time>2020-06-11T08:44:21Z</time>
      </trkpt>
      <trkpt lat="46.53801" lon="4.53348">
        <ele>243.6</ele>
        <time>2020-06-11T08:44:26Z</time>
      </trkpt>
      <trkpt lat="46.53795" lon="4.53346">
        <ele>242.6</ele>
        <time>2020-06-11T08:44:31Z</time>
      </trkpt>
      <trkpt lat="46.53787" lon="4.53346">
        <ele>238.6</ele>
        <time>2020-06-11T08:44:38Z</time>
      </trkpt>
      <trkpt lat="46.53781" lon="4.53346">
        <ele>239.6</ele>
        <time>2020-06-11T08:44:45Z</time>
      </trkpt>
      <trkpt lat="46.53774" lon="4.53348">
        <ele>244.6</ele>
        <time>2020-06-11T08:44:51Z</time>
      </trkpt>
      <trkpt lat="46.53776" lon="4.53357">
        <ele>244.6</ele>
        <time>2020-06-11T08:44:59Z</time>
      </trkpt>
    </trkseg>
  </trk>
</gpx>